[[[{"header":{"parameterUnit":"kt","parameterCategory":2,"dx":1,"dy":1,"la1":29.285339999999998,"la2":30.599998999999997,"lo1":-89.70041500000002,"lo2":-87.6738589999976,"nx":112,"ny":82,"refTime":"2022-10-18T12:00:00:Z","depth":0,"parameterNumber":1,"parameterNumberName":"U-component_of_WINDS"},"data":[-6.4624,-6.4829,-6.4483,-6.2706,-6.0685,-5.895,-5.8161,-5.4788,-5.1077,-4.8508,-4.8017,-4.6839,-4.2926,-4.2031,-4.1575,0.0,0.0,0.0,0.0,-3.6565,0.0,0.0,0.0,0.0,0.0,0.0,0.0,0.0,0.0,0.0,0.0,-4.2149,-4.4616,-4.5006,-4.6876,-4.7889,-4.7889,-4.7889,-4.7889,-4.7889,-4.7889,-4.8304,-4.9057,-4.9421,-5.0018,-5.0771,-5.1135,-5.1291,-5.1291,-5.1291,-5.1291,-5.1291,-5.1291,-5.1291,-5.1291,-5.1291,-4.9392,-4.6092,-4.0583,-3.3172,-2.6054,-2.6054,-2.6054,-2.6054,-2.6054,-2.6054,-2.6028,-2.5922,-2.5962,-2.6028,-2.5922,-2.5975,-2.6054,-2.6054,-2.6054,-2.6054,-2.6054,-2.6054,-2.6054,-2.6054,-2.6054,-2.6054,-2.6054,-2.6054,-2.6054,-2.6054,-2.6054,-2.6054,-2.6054,-2.6054,-2.6054,-2.6054,-2.6054,-2.6054,-2.6054,-2.6054,-2.6054,-2.6054,-1.7897,-1.3024,-1.3024,-0.4573,0.0,0.0,0.0,0.0,0.0,0.0,0.0,0.0,0.0,0.0,-6.1844,-6.2054,-6.1432,-5.8716,-5.6371,-5.4406,-5.3049,-4.945,-4.5678,-4.3452,-4.3024,-4.2411,-4.0432,-4.0053,-3.9827,0.0,0.0,0.0,0.0,-3.5385,-3.4127,0.0,0.0,0.0,0.0,0.0,0.0,0.0,-3.9163,0.0,-4.0487,-4.3759,-4.5785,-4.6201,-4.7291,-4.7889,-4.7889,-4.7889,-4.7889,-4.7889,-4.7889,-4.82,-4.8772,-4.9135,-4.9733,-5.0637,-5.0849,-5.1135,-5.1291,-5.1291,-5.1291,-5.1291,-5.1291,-5.1291,-5.1291,-5.1291,-5.0342,-4.8131,-4.1053,-3.3172,-2.6054,-2.6054,-2.6054,-2.6054,-2.6054,-2.6054,-2.6054,-2.6054,-2.6054,-2.6054,-2.6054,-2.6054,-2.6054,-2.6054,-2.6054,-2.6054,-2.6054,-2.6054,-2.6054,-2.6054,-2.6054,-2.6054,-2.6054,-2.6054,-2.6054,-2.6054,-2.6054,-2.6054,-2.6054,-2.6054,-2.6054,-2.6054,-2.6054,-2.6054,-2.6054,-2.6054,-2.6054,-2.6054,-1.7897,-1.3024,-1.3024,-0.4573,0.0,0.0,0.0,0.0,0.0,0.0,0.0,0.0,0.0,0.0,-5.9566,-5.9841,-5.8294,-5.1965,-5.0415,-4.8838,-4.2739,-4.1229,-4.1003,-4.0243,-4.0053,-4.0053,-4.0091,-4.0016,-3.9333,-3.7306,-3.7393,0.0,0.0,-3.5012,-3.4223,-3.1288,-3.3375,0.0,0.0,-3.8617,-4.0228,0.0,-4.3422,-4.5058,-4.4487,-4.6642,-4.7889,-4.7889,-4.7889,-4.7889,-4.7889,-4.7889,-4.7889,-4.7889,-4.7889,-4.8174,-4.872,-4.8746,-4.9343,-5.0559,-5.0585,-5.0771,-5.1265,-5.1291,-5.1291,-5.1291,-5.1291,-5.1291,-5.1291,-5.1291,-4.8595,-4.4358,-4.0112,-3.3172,-2.6202,-2.6041,-2.6054,-2.6054,-2.6054,-2.6054,-2.6054,-2.6054,-2.6054,-2.6054,-2.6054,-2.6054,-2.6054,-2.6054,-2.6054,-2.6054,-2.6054,-2.6054,-2.6054,-2.6054,-2.6054,-2.6054,-2.6054,-2.6054,-2.6054,-2.6054,-2.6054,-2.6054,-2.6054,-2.6054,-2.6054,-2.6054,-2.6054,-2.6054,-2.6054,-2.6054,-2.6054,-2.6054,-1.7897,-1.3024,-1.3024,-0.4573,0.0,0.0,0.0,0.0,0.0,0.0,0.0,0.0,0.0,0.0,-5.6307,-5.4916,-5.2379,-4.8459,-4.7421,-4.6821,-4.4473,-4.2066,-4.0282,-4.0091,-4.0053,0.0,0.0,0.0,-3.8341,-3.8311,0.0,-3.5242,-3.3181,-3.3793,-3.4775,-3.5742,-3.6825,-3.8436,-4.0669,-4.0461,-4.0877,-4.2539,-4.3915,-4.4616,-4.4568,-4.6642,-4.7889,-4.7889,-4.7889,-4.7889,-4.7889,-4.7889,-4.7889,-4.7889,-4.7889,-4.7967,-4.8148,-4.8564,-4.8928,-4.9265,-5.0246,-5.0538,-5.0719,-5.1135,-5.1291,-5.1291,-5.1291,-5.1291,-5.1291,-5.1291,-4.8595,-4.4358,-4.0112,-3.5061,-2.9997,-2.6993,-2.6054,-2.6054,-2.6054,-2.6054,-2.6054,-2.6054,-2.6054,-2.6054,-2.6054,-2.6054,-2.6054,-2.6054,-2.6054,-2.6054,-2.6054,-2.6054,-2.6054,-2.6054,-2.6054,-2.6054,-2.6054,-2.6054,-2.6054,-2.6054,-2.6054,-2.6054,-2.6054,-2.6054,-2.6054,-2.6054,-2.6054,-2.6054,-2.6054,-2.6054,-2.6054,-2.6054,-1.7897,-1.3024,-1.3024,-0.4573,0.0,0.0,0.0,0.0,0.0,0.0,0.0,0.0,0.0,0.0,-5.1058,-4.9369,-4.7404,-4.439,-4.3705,-4.3471,-4.2977,-4.1383,-3.9826,-3.9245,0.0,0.0,0.0,0.0,0.0,0.0,-3.5326,-3.4296,-3.2985,-3.3685,-3.5038,-3.6811,-3.828,-3.9838,-4.15,-4.2097,-4.311,-4.4902,-4.5785,-4.6149,-4.5889,-4.7162,-4.7889,-4.7889,-4.7889,-4.7889,-4.7889,-4.7889,-4.7889,-4.7889,-4.7889,-4.7889,-4.7915,-4.8226,-4.8642,-4.9135,-4.981,-5.0356,-5.0823,-5.1161,-5.1291,-5.1291,-5.1291,-5.1291,-5.1291,-5.1291,-4.8595,-4.4358,-4.0112,-3.5853,-3.1579,-2.7476,-2.6054,-2.6054,-2.6054,-2.6054,-2.6054,-2.6054,-2.6054,-2.6054,-2.6054,-2.6054,-2.6054,-2.6054,-2.6054,-2.6054,-2.6054,-2.6054,-2.6054,-2.6054,-2.6054,-2.6054,-2.6054,-2.6054,-2.6054,-2.6054,-2.6054,-2.6054,-2.6054,-2.6054,-2.6054,-2.6054,-2.6054,-2.6054,-2.6054,-2.6054,-2.6054,-2.6054,-2.1314,-1.6925,-1.3186,-0.4573,0.0,0.0,0.0,0.0,0.0,0.0,0.0,0.0,0.0,0.0,-4.5394,-4.4294,-4.3371,-4.0659,-3.9902,-3.9675,-3.9788,0.0,-3.9344,-3.8,0.0,-3.7577,-3.6209,0.0,0.0,-3.3242,-3.3602,-3.4007,-3.3719,-3.493,-3.6228,-3.7007,-3.9345,-4.0877,-4.0877,-4.3708,-4.5993,-4.7058,-4.8071,-4.8434,-4.7915,-4.7889,-4.7889,-4.7889,-4.7889,-4.7889,-4.7889,-4.7889,-4.7889,-4.7889,-4.7889,-4.7889,-4.7889,-4.7889,-4.8434,-4.9395,-4.9473,-5.0096,-5.1109,-5.1187,-5.1239,-5.1291,-5.1291,-5.1291,-5.1291,-5.1291,-4.8595,-4.4358,-4.0112,-3.5853,-3.1579,-2.7476,-2.6054,-2.6054,-2.6054,-2.6054,-2.6054,-2.6054,-2.6054,-2.6054,-2.6054,-2.6054,-2.6054,-2.6054,-2.6054,-2.6054,-2.6054,-2.6054,-2.6054,-2.6054,-2.6054,-2.6054,-2.6054,-2.6054,-2.6054,-2.6054,-2.6054,-2.6054,-2.6054,-2.6054,-2.6054,-2.6054,-2.6054,-2.6054,-2.6054,-2.6054,-2.6054,-2.6054,-2.6054,-2.2132,-1.3349,-0.5549,-0.0982,0.0,0.0,0.0,0.0,0.0,0.0,0.0,0.0,0.0,-4.4685,-4.2717,-4.0773,-4.0167,-3.8803,-3.7644,0.0,0.0,0.0,-3.7874,-3.8916,-3.977,-3.9266,-3.7597,-3.6545,-3.729,-3.5978,-3.477,-3.4696,-3.8514,-4.1994,-4.3993,-4.472,-4.5058,-4.5058,-4.6071,-4.7006,-4.7681,-4.7941,-4.7993,-4.7745,-4.7889,-4.7889,-4.7889,-4.7889,-4.7889,-4.7889,-4.7889,-4.7889,-4.7889,-4.7889,-4.7889,-4.7889,-4.7889,-4.7875,-4.8252,-4.872,-4.9291,-4.9966,-5.0434,-5.0875,-5.1291,-5.1291,-5.1291,-5.1291,-5.1291,-4.8595,-4.4358,-4.0112,-3.5853,-3.1579,-2.7476,-2.6054,-2.6054,-2.6054,-2.6054,-2.6054,-2.6054,-2.6054,-2.6054,-2.6054,-2.6054,-2.6054,-2.6054,-2.6054,-2.6054,-2.6054,-2.6054,-2.6054,-2.6054,-2.6054,-2.6054,-2.6054,-2.6054,-2.6054,-2.6054,-2.6054,-2.6054,-2.6054,-2.6054,-2.6054,-2.6054,-2.6054,-2.6054,-2.6054,-2.6054,-2.6054,-2.6054,-2.6054,-2.2132,-1.3349,-1.1399,-0.7177,-0.0164,0.0,0.0,0.0,0.0,0.0,0.0,0.0,0.0,-4.2717,-4.1191,-3.9826,-3.9051,-3.8114,0.0,0.0,-3.6439,-3.6395,-3.7081,-3.7865,-3.8566,-3.8854,-3.7881,-3.7361,-3.8068,-3.7358,-3.7397,-3.8968,-4.2305,-4.4565,-4.485,-4.5915,-4.6616,-4.6616,-4.7136,-4.7577,-4.7863,-4.7889,-4.7889,-4.7889,-4.7889,-4.7889,-4.7889,-4.7889,-4.7889,-4.7889,-4.7889,-4.7889,-4.7889,-4.7889,-4.7889,-4.7889,-4.7889,-4.8045,-4.833,-4.8642,-4.9083,-4.9629,-5.0226,-5.0797,-5.1291,-5.1291,-5.1291,-5.1291,-5.1291,-5.0034,-4.7178,-4.0897,-3.7276,-3.4426,-2.8104,-2.6054,-2.6054,-2.6054,-2.6054,-2.6054,-2.6054,-2.6054,-2.6054,-2.6054,-2.6054,-2.6054,-2.6054,-2.6054,-2.6054,-2.6054,-2.6054,-2.6054,-2.6054,-2.6054,-2.6054,-2.6054,-2.6054,-2.6054,-2.6054,-2.6054,-2.6054,-2.6054,-2.6054,-2.6054,-2.6054,-2.6054,-2.6054,-2.6054,-2.6054,-2.6054,-2.6054,-2.392,-1.9848,-1.3355,-1.0917,-0.6688,-0.0164,0.0,0.0,0.0,0.0,0.0,0.0,0.0,0.0,-4.0659,-3.9864,-3.9248,-3.7989,-3.7196,0.0,-3.533,-3.5281,-3.5727,-3.6608,-3.7357,-3.7923,-3.8257,-3.8306,-3.8384,-3.8707,-3.9033,-4.0487,-4.3785,-4.5473,-4.5889,-4.4565,-4.6071,-4.7213,-4.7213,-4.7629,-4.7889,-4.7889,-4.7889,-4.7889,-4.7889,-4.7889,-4.7889,-4.7889,-4.7889,-4.7889,-4.7889,-4.7889,-4.7889,-4.7889,-4.7889,-4.7889,-4.7889,-4.7889,-4.8148,-4.859,-4.859,-4.8953,-4.9629,-5.0096,-5.0564,-5.0979,-5.1213,-5.1291,-5.1291,-5.1291,-5.1291,-5.0188,-4.168,-3.8696,-3.7276,-2.8746,-2.6054,-2.6054,-2.6054,-2.6054,-2.6054,-2.6054,-2.6054,-2.6054,-2.6054,-2.6054,-2.6054,-2.6054,-2.6054,-2.6054,-2.6054,-2.6054,-2.6054,-2.6054,-2.6054,-2.6054,-2.6054,-2.6054,-2.6054,-2.6054,-2.6054,-2.6054,-2.6054,-2.6054,-2.6054,-2.6054,-2.6054,-2.6054,-2.6054,-2.6054,-2.6054,-2.6054,-2.1971,-1.7573,-1.3186,-0.8802,-0.4573,-0.0164,0.0,0.0,0.0,0.0,0.0,0.0,0.0,0.0,-4.0167,-3.901,-3.7945,-3.7697,-3.5285,0.0,-3.403,-3.5064,-3.6192,-3.7319,-3.9934,-4.1723,-4.0773,-4.0669,-4.0981,-4.2019,-4.2227,-4.3292,-4.6253,-4.6824,-4.7058,-4.7369,-4.7629,-4.7811,-4.7811,-4.7719,-4.7889,-4.7889,-4.7889,-4.7889,-4.7889,-4.7889,-4.7889,-4.7889,-4.7889,-4.7889,-4.7889,-4.7889,-4.7889,-4.7889,-4.7889,-4.7889,-4.7889,-4.7889,-4.7915,-4.7993,-4.7993,-4.859,-4.9603,-4.9655,-4.9733,-4.9888,-5.0901,-5.1291,-5.1291,-5.1291,-5.1291,-5.0188,-4.168,-3.8696,-3.7276,-2.8746,-2.6054,-2.6054,-2.6054,-2.6054,-2.6054,-2.6054,-2.6054,-2.6054,-2.6054,-2.6054,-2.6054,-2.6054,-2.6054,-2.6054,-2.6054,-2.6054,-2.6054,-2.6054,-2.6054,-2.6054,-2.6054,-2.6054,-2.6054,-2.6054,-2.6054,-2.6054,-2.6054,-2.6054,-2.6054,-2.6054,-2.6054,-2.6054,-2.6054,-2.6054,-2.6054,-2.6054,-2.1971,-1.7573,-1.3186,-0.8802,-0.4409,-0.0164,0.0,0.0,0.0,0.0,0.0,0.0,0.0,0.0,-3.8969,-3.8199,-3.7299,-3.5497,0.0,0.0,-3.2795,-3.4124,-3.5657,-3.6488,-3.9371,-4.1812,-4.1994,-4.2851,-4.3811,-4.4616,-4.5032,-4.5785,-4.7317,-4.7525,-4.7629,-4.7863,-4.7889,-4.7889,-4.7889,-4.7889,-4.7889,-4.7889,-4.698,-4.6709,-4.7837,-4.7889,-4.7889,-4.7889,-4.7889,-4.7889,-4.7889,-4.7889,-4.7889,-4.7889,-4.7889,-4.7889,-4.7889,-4.7889,-4.7889,-4.7889,-4.7889,-4.8148,-4.8642,-4.9317,-4.9785,-5.0174,-5.0979,-5.1291,-5.1291,-5.1291,-5.1291,-5.0496,-4.4358,-4.074,-3.775,-3.1579,-2.8104,-2.6054,-2.6054,-2.6054,-2.6054,-2.6054,-2.6054,-2.6054,-2.6054,-2.6054,-2.6054,-2.6054,-2.6054,-2.6054,-2.6054,-2.6054,-2.6054,-2.6054,-2.6054,-2.6054,-2.6054,-2.6054,-2.6054,-2.6054,-2.6054,-2.6054,-2.6054,-2.6054,-2.6054,-2.6054,-2.6054,-2.6054,-2.6054,-2.6054,-2.6054,-2.6054,-1.9525,-1.4979,-1.3031,-0.6365,-0.1798,0.0,0.0,0.0,0.0,0.0,0.0,0.0,0.0,0.0,-3.8148,0.0,0.0,0.0,0.0,0.0,-3.2299,-3.4125,-3.612,-3.6955,-3.9838,-4.2539,-4.3526,-4.472,-4.5811,-4.6564,-4.7006,-4.7421,-4.7837,-4.7889,-4.7889,-4.7889,-4.7889,-4.7889,-4.7889,-4.7889,-4.7889,-4.7889,-4.6746,-4.6451,-4.7837,-4.7889,-4.7889,-4.7889,-4.7889,-4.7889,-4.7889,-4.7889,-4.7889,-4.7889,-4.7889,-4.7889,-4.7889,-4.7889,-4.7889,-4.7889,-4.7889,-4.7889,-4.7967,-4.8953,-4.9707,-5.0278,-5.0849,-5.1161,-5.1291,-5.1291,-5.1291,-5.0496,-4.5137,-4.121,-3.775,-3.2376,-2.8411,-2.6054,-2.6054,-2.6054,-2.6054,-2.6054,-2.6054,-2.6054,-2.6054,-2.6054,-2.6054,-2.6054,-2.6054,-2.6054,-2.6054,-2.6054,-2.6054,-2.6054,-2.6054,-2.6054,-2.6054,-2.6054,-2.6054,-2.6054,-2.6054,-2.6054,-2.6054,-2.6054,-2.6054,-2.6054,-2.6054,-2.6054,-2.6054,-2.6054,-2.6054,-2.6054,-1.9039,-1.4322,-1.3031,-0.5876,-0.1309,0.0,0.0,0.0,0.0,0.0,0.0,0.0,0.0,0.0,0.0,0.0,0.0,-3.4502,-3.2904,-3.1987,-3.3133,-3.5943,-3.8721,-3.9838,-4.2799,-4.5396,-4.5993,-4.6149,-4.6538,-4.7655,-4.7719,-4.7863,-4.7889,-4.7889,-4.7889,-4.7889,-4.7889,-4.7889,-4.7889,-4.7889,-4.7889,-4.7889,-4.7837,-4.7837,-4.7889,-4.7889,-4.7889,-4.7889,-4.7889,-4.7889,-4.7889,-4.7889,-4.7889,-4.7889,-4.7889,-4.7889,-4.7889,-4.7889,-4.7889,-4.7889,-4.7889,-4.7889,-4.7941,-4.8538,-4.9109,-4.9681,-5.0252,-5.0823,-5.1291,-5.1291,-5.1291,-5.0188,-4.168,-3.8853,-3.7276,-2.8906,-2.6215,-2.6054,-2.6054,-2.6054,-2.6054,-2.6054,-2.6054,-2.6054,-2.6054,-2.6054,-2.6054,-2.6054,-2.6054,-2.6054,-2.6054,-2.6054,-2.6054,-2.6054,-2.6054,-2.6054,-2.6054,-2.6054,-2.6054,-2.6054,-2.6054,-2.6054,-2.6054,-2.6054,-2.6054,-2.6054,-2.6054,-2.6054,-2.6054,-2.6054,-2.6054,-2.6054,-2.1798,-1.7411,-1.3186,-0.8802,-0.4409,-0.0164,0.0,0.0,0.0,0.0,0.0,0.0,0.0,0.0,-3.9186,-3.7987,-3.7059,-3.6024,-3.4341,-3.3576,-3.615,-3.8254,-3.9734,-4.0124,-4.324,-4.5733,-4.5271,-4.6279,-4.7447,-4.7837,-4.7889,-4.7889,-4.7889,-4.7889,-4.7889,-4.7889,-4.7889,-4.7889,-4.7889,-4.7889,-4.7889,-4.7889,-4.6824,-4.6694,-4.7837,-4.6824,-4.672,-4.7719,-4.7889,-4.7889,-4.7889,-4.7889,-4.7889,-4.7889,-4.7889,-4.7889,-4.7889,-4.7889,-4.7889,-4.7889,-4.7889,-4.7889,-4.7941,-4.8512,-4.9083,-4.9655,-5.0226,-5.0797,-5.1291,-5.1291,-5.1291,-5.0496,-4.4825,-4.1053,-3.775,-3.2057,-2.8265,-2.6054,-2.6054,-2.6054,-2.6054,-2.6054,-2.6054,-2.6054,-2.6054,-2.6054,-2.6054,-2.6054,-2.6054,-2.6054,-2.6054,-2.6054,-2.6054,-2.6054,-2.6054,-2.6054,-2.6054,-2.6054,-2.6054,-2.6054,-2.6054,-2.6054,-2.6054,-2.6054,-2.6054,-2.6054,-2.6054,-2.6054,-2.6054,-2.6054,-2.6054,-2.6054,-2.1971,-1.7573,-1.3186,-0.8802,-0.4409,-0.0164,0.0,0.0,0.0,0.0,0.0,0.0,0.0,0.0,-3.9548,-3.8422,-3.7479,-3.7177,-3.5683,-3.5217,-3.8358,-3.9656,-4.0487,-4.15,-4.4279,-4.6331,-4.5785,-4.6902,-4.7889,-4.7889,-4.7889,-4.7889,-4.7889,-4.7889,-4.7889,-4.7889,-4.7889,-4.7889,-4.7889,-4.7889,-4.7889,-4.7889,-4.6876,-4.6746,-4.7837,-4.685,-4.6746,-4.7719,-4.7889,-4.7889,-4.7889,-4.7889,-4.7889,-4.7889,-4.7889,-4.7889,-4.7889,-4.7889,-4.7889,-4.7889,-4.7889,-4.7889,-4.7941,-4.8512,-4.9083,-4.9655,-5.0226,-5.0797,-5.1291,-5.1291,-5.1291,-5.0496,-4.467,-4.0897,-3.775,-3.1898,-2.8265,-2.6054,-2.6054,-2.6054,-2.6054,-2.6054,-2.6054,-2.6054,-2.6054,-2.6054,-2.6054,-2.6054,-2.6054,-2.6054,-2.6054,-2.6054,-2.6054,-2.6054,-2.6054,-2.6054,-2.6054,-2.6054,-2.6054,-2.6054,-2.6054,-2.6054,-2.6054,-2.6054,-2.6054,-2.6054,-2.6054,-2.6054,-2.6054,-2.6054,-2.6054,-2.6054,-2.3436,-1.9201,-1.3186,-1.0266,-0.6039,-0.0164,0.0,0.0,0.0,0.0,0.0,0.0,0.0,0.0,-3.9446,-3.8584,-3.7778,-3.7989,-3.7033,-3.6877,-3.9786,-4.0409,-4.1162,-4.4125,-4.5915,-4.7265,-4.7785,-4.7889,-4.7889,-4.7889,-4.7889,-4.7889,-4.7889,-4.7889,-4.7889,-4.7889,-4.7889,-4.7889,-4.7889,-4.7889,-4.7889,-4.7889,-4.7889,-4.7889,-4.7889,-4.7889,-4.7889,-4.7889,-4.7889,-4.7889,-4.7889,-4.7889,-4.7889,-4.7889,-4.7889,-4.7889,-4.7889,-4.7889,-4.7889,-4.7889,-4.7889,-4.7915,-4.7967,-4.8538,-4.9109,-4.9681,-5.0252,-5.0797,-5.1291,-5.1291,-5.1291,-5.0188,-4.168,-3.8696,-3.7276,-2.8746,-2.6054,-2.6054,-2.6054,-2.6054,-2.6054,-2.6054,-2.6054,-2.6054,-2.6054,-2.6054,-2.6054,-2.6054,-2.6054,-2.6054,-2.6054,-2.6054,-2.6054,-2.6054,-2.6054,-2.6054,-2.6054,-2.6054,-2.6054,-2.6054,-2.6054,-2.6054,-2.6054,-2.6054,-2.6054,-2.6054,-2.6054,-2.6054,-2.6054,-2.6054,-2.6054,-2.6054,-2.6054,-2.2132,-1.3349,-1.3024,-0.8964,-0.0164,0.0,0.0,0.0,0.0,0.0,0.0,0.0,0.0,-3.9886,-3.924,-3.9048,-4.1462,-4.0254,-3.9448,-4.3188,-4.3344,-4.3422,-4.5889,-4.7084,-4.7733,-4.7863,-4.7889,-4.7889,-4.7889,-4.7889,-4.7889,-4.7889,-4.7889,-4.7889,-4.7889,-4.7889,-4.7889,-4.7889,-4.7889,-4.7889,-4.7889,-4.7889,-4.7889,-4.7889,-4.7889,-4.7889,-4.7889,-4.7889,-4.7889,-4.7889,-4.7889,-4.7889,-4.7889,-4.7889,-4.7889,-4.7889,-4.7889,-4.7889,-4.7889,-4.7889,-4.8122,-4.8538,-4.8694,-4.9343,-5.0252,-5.0559,-5.0797,-5.1291,-5.1291,-5.1291,-5.0188,-4.168,-3.8696,-3.7276,-2.8746,-2.6054,-2.6054,-2.6054,-2.6054,-2.6054,-2.6054,-2.6054,-2.6054,-2.6054,-2.6054,-2.6054,-2.6054,-2.6054,-2.6054,-2.6054,-2.6054,-2.6054,-2.6054,-2.6054,-2.6054,-2.6054,-2.6054,-2.6054,-2.6054,-2.6054,-2.6054,-2.6054,-2.6054,-2.6054,-2.6054,-2.6054,-2.6054,-2.6054,-2.6054,-2.6054,-2.6054,-2.6054,-2.2132,-1.3349,-1.3024,-0.8964,-0.0164,0.0,0.0,0.0,0.0,0.0,0.0,0.0,0.0,-4.0275,-3.9313,-3.8939,-4.1768,-4.1085,-4.0773,-4.4798,-4.4798,-4.4616,-4.6928,-4.7681,-4.7889,-4.7889,-4.7889,-4.7889,-4.7889,-4.7889,-4.7889,-4.7889,-4.7889,-4.7889,-4.7889,-4.7889,-4.7889,-4.7889,-4.7889,-4.7889,-4.7889,-4.7889,-4.7889,-4.7889,-4.7889,-4.7889,-4.7889,-4.7889,-4.7889,-4.7889,-4.7889,-4.7889,-4.7889,-4.7889,-4.7889,-4.7889,-4.7889,-4.7889,-4.7915,-4.8148,-4.846,-4.8798,-4.9291,-4.9888,-5.0637,-5.0719,-5.1005,-5.1291,-5.1291,-5.1291,-5.0342,-4.3734,-4.0269,-3.7592,-3.0956,-2.7476,-2.6054,-2.6054,-2.6054,-2.6054,-2.6054,-2.6054,-2.6054,-2.6054,-2.6054,-2.6054,-2.6054,-2.6054,-2.6054,-2.6054,-2.6054,-2.6054,-2.6054,-2.6054,-2.6054,-2.6054,-2.6054,-2.6054,-2.6054,-2.6054,-2.6054,-2.6054,-2.6054,-2.6054,-2.6054,-2.6054,-2.6054,-2.6054,-2.6054,-2.6054,-2.6054,-2.4255,-2.0172,-1.3355,-1.1074,-0.6851,-0.0164,0.0,0.0,0.0,0.0,0.0,0.0,0.0,0.0,-4.0531,-3.913,-3.8202,-4.0565,-4.1007,-4.176,-4.5084,-4.5292,-4.537,-4.7447,-4.7889,-4.7889,-4.7889,-4.7889,-4.7889,-4.7889,-4.7889,-4.7889,-4.7889,-4.7889,-4.7889,-4.7889,-4.7889,-4.7889,-4.7889,-4.7889,-4.7889,-4.7889,-4.7889,-4.7889,-4.7889,-4.7889,-4.7889,-4.7889,-4.7889,-4.7889,-4.7889,-4.7889,-4.7889,-4.7889,-4.7889,-4.7889,-4.7889,-4.7889,-4.7889,-4.7915,-4.8512,-4.8798,-4.8953,-5.0168,-5.0637,-5.0767,-5.1109,-5.1291,-5.1291,-5.1291,-5.1291,-5.0675,-4.6403,-4.2463,-3.8696,-3.3791,-2.9838,-2.6846,-2.6215,-2.6054,-2.6054,-2.6054,-2.6054,-2.6054,-2.6054,-2.6054,-2.6054,-2.6054,-2.6054,-2.6054,-2.6054,-2.6054,-2.6054,-2.6054,-2.6054,-2.6054,-2.6054,-2.6054,-2.6054,-2.6054,-2.6054,-2.6054,-2.6054,-2.6054,-2.6041,-2.5988,-2.6028,-2.6028,-2.5988,-2.6028,-2.6054,-2.6054,-2.2455,-1.8059,-1.3186,-0.929,-0.5062,-0.0164,0.0,0.0,0.0,0.0,0.0,0.0,0.0,0.0,-4.0277,-3.913,-3.8421,-4.1182,-4.311,-4.4383,-4.4097,-4.537,-4.685,-4.7707,-4.7889,-4.7889,-4.7889,-4.7889,-4.7889,-4.7889,-4.7889,-4.7889,-4.7889,-4.7889,-4.7889,-4.7889,-4.7889,-4.7889,-4.7889,-4.7889,-4.7889,-4.7889,-4.7889,-4.7889,-4.7889,-4.7889,-4.7889,-4.7889,-4.7889,-4.7889,-4.7889,-4.7889,-4.7889,-4.7889,-4.7889,-4.7889,-4.7889,-4.7889,-4.7889,-4.7915,-4.8512,-4.9031,-4.9499,-5.0174,-5.0719,-5.1161,-5.1265,-5.1291,-5.1291,-5.1291,-5.1291,-5.0675,-4.6403,-4.4514,-4.2619,-3.4726,-3.1722,-3.0621,-2.7154,-2.6054,-2.6054,-2.6054,-2.6054,-2.6054,-2.6054,-2.6054,-2.6054,-2.6054,-2.6054,-2.6054,-2.6054,-2.6054,-2.6054,-2.6054,-2.6054,-2.6054,-2.6054,-2.6054,-2.6054,-2.6054,-2.6054,-2.6054,-2.6054,-2.6054,-2.5949,-2.5711,-2.5896,-2.5949,-2.5698,-2.5909,-2.6054,-2.6054,-2.5396,-2.1314,-1.3349,-1.2212,-0.8155,-0.0164,0.0,0.0,0.0,0.0,0.0,0.0,0.0,0.0,-4.2551,-4.0542,-3.8286,-3.8702,-4.0305,-4.2331,-4.4461,-4.5577,-4.6486,-4.7655,-4.7188,-4.6824,-4.7733,-4.7889,-4.7889,-4.7889,-4.7889,-4.7889,-4.7889,-4.7889,-4.7889,-4.7889,-4.7889,-4.7889,-4.7889,-4.7889,-4.7889,-4.7889,-4.7889,-4.7889,-4.7889,-4.7889,-4.7889,-4.7889,-4.7889,-4.7889,-4.7889,-4.7889,-4.7889,-4.7889,-4.7889,-4.7889,-4.7889,-4.7889,-4.8045,-4.8382,-4.8953,-4.9525,-5.0096,-5.0668,-5.1057,-5.1291,-5.1291,-5.1291,-5.1291,-5.1291,-5.1291,-5.0983,-4.8929,-4.6713,-4.4202,-4.0248,-3.7415,-3.4743,-3.0637,-2.9372,-2.8892,-2.6685,-2.6054,-2.6054,-2.6054,-2.6054,-2.6054,-2.6054,-2.6054,-2.6054,-2.6054,-2.6054,-2.6054,-2.6054,-2.6054,-2.6054,-2.6054,-2.6054,-2.6054,-2.6054,-2.6054,-2.6054,-2.6054,-2.6054,-2.5988,-2.5856,-2.5962,-2.5988,-2.5843,-2.5962,-2.6054,-2.6054,-2.1809,-1.7411,-1.3186,-1.0917,-0.6691,-0.0164,0.0,0.0,0.0,0.0,0.0,0.0,0.0,0.0,-4.4078,-4.1524,-3.8447,-3.7355,-3.7579,-3.9345,-4.4019,-4.485,-4.5214,-4.7447,-4.6824,-4.6305,-4.7486,-4.7889,-4.7889,-4.7889,-4.7889,-4.7889,-4.7889,-4.7889,-4.7889,-4.7889,-4.7889,-4.7889,-4.7889,-4.7889,-4.7889,-4.7889,-4.7889,-4.7889,-4.7889,-4.7889,-4.7889,-4.7889,-4.7889,-4.7889,-4.7889,-4.7889,-4.7889,-4.7889,-4.7889,-4.7889,-4.7889,-4.7889,-4.8122,-4.8616,-4.9291,-4.9862,-5.033,-5.1005,-5.1291,-5.1291,-5.1291,-5.1291,-5.1291,-5.1291,-5.1291,-5.1291,-5.1291,-4.9083,-4.6092,-4.5137,-4.2619,-3.9011,-3.3791,-3.22,-3.142,-2.7154,-2.6054,-2.6054,-2.6054,-2.6054,-2.6054,-2.6054,-2.6054,-2.6054,-2.6054,-2.6054,-2.6054,-2.6054,-2.6054,-2.6054,-2.6054,-2.6054,-2.6054,-2.6054,-2.5988,-2.5949,-2.5949,-2.5896,-2.587,-2.587,-2.587,-2.5843,-2.5777,-2.583,-2.5562,-2.4651,-1.8156,-1.3477,-1.1724,-0.7503,-0.3595,0.0,0.0,0.0,0.0,0.0,0.0,0.0,0.0,0.0,-4.2138,-4.0259,-3.8963,-4.0224,-3.8747,-3.7734,-4.0799,-4.1864,-4.3292,-4.711,-4.7759,-4.7707,-4.7863,-4.7889,-4.7889,-4.7889,-4.7889,-4.7889,-4.7889,-4.7889,-4.7889,-4.7889,-4.7889,-4.7889,-4.7889,-4.7889,-4.7889,-4.7889,-4.7889,-4.7889,-4.7889,-4.7889,-4.7889,-4.7889,-4.7889,-4.7889,-4.7889,-4.7889,-4.7889,-4.7889,-4.7889,-4.7889,-4.7889,-4.7889,-4.7915,-4.8019,-4.9109,-4.9629,-4.9759,-5.0849,-5.1291,-5.1291,-5.1291,-5.1291,-5.1291,-5.1291,-5.1291,-5.1291,-5.1291,-5.1137,-5.0034,-4.6248,-4.467,-4.2775,-3.4726,-3.22,-3.142,-2.7154,-2.6054,-2.6054,-2.6054,-2.6054,-2.6054,-2.6054,-2.6054,-2.6054,-2.6054,-2.6054,-2.6054,-2.6054,-2.6054,-2.6054,-2.6054,-2.6054,-2.6054,-2.6054,-2.5817,-2.5645,-2.5645,-2.5421,-2.5276,-2.5276,-2.5276,-2.5158,-2.4881,-2.5118,-2.3785,-1.9854,-1.8899,-1.4972,-0.7336,-0.2941,-0.0491,0.0,0.0,0.0,0.0,0.0,0.0,0.0,0.0,0.0,-4.4834,-4.2202,-3.9575,-4.0575,-3.8703,-3.7163,-3.8643,-4.0228,-4.2331,-4.5681,-4.6356,-4.6019,-4.498,-4.6486,-4.7551,-4.6512,-4.7213,-4.7889,-4.7889,-4.7889,-4.7889,-4.7889,-4.7889,-4.7889,-4.7889,-4.7889,-4.7889,-4.7889,-4.7889,-4.7889,-4.7889,-4.7889,-4.7889,-4.7889,-4.7889,-4.7889,-4.7889,-4.7889,-4.7889,-4.7889,-4.7889,-4.7889,-4.7889,-4.7889,-4.7889,-4.7797,-4.8746,-4.9083,-4.9187,-5.0304,-5.0797,-5.0823,-5.1161,-5.1291,-5.1291,-5.1291,-5.1291,-5.1291,-5.1291,-5.1291,-5.0983,-4.9237,-4.8774,-4.7178,-3.8676,-3.6169,-3.4743,-2.7958,-2.6054,-2.6054,-2.6054,-2.6054,-2.6054,-2.6054,-2.6054,-2.6054,-2.6054,-2.6054,-2.5988,-2.5817,-2.5777,-2.5725,-2.5566,-2.5527,-2.5527,-2.5527,-2.5434,-2.5355,-2.5355,-2.5263,-2.5197,-2.5197,-2.5197,-2.5144,-2.5026,-2.5131,-2.3493,-1.9304,-1.6572,-1.1391,-0.2912,-0.0978,0.0,0.0,0.0,0.0,0.0,0.0,0.0,0.0,0.0,0.0,-4.5619,-4.336,-4.0882,-4.1318,-3.9302,-3.7742,-3.9915,-4.0197,-4.0955,-4.4149,-4.5499,-4.5577,-4.3837,-4.5499,-4.6606,-4.5551,-4.6356,-4.7176,-4.7667,-4.7889,-4.7889,-4.7889,-4.7889,-4.7889,-4.7889,-4.7889,-4.7889,-4.7889,-4.7889,-4.7889,-4.7889,-4.7889,-4.7889,-4.7889,-4.7889,-4.7889,-4.7889,-4.7889,-4.7889,-4.7889,-4.7889,-4.7889,-4.7889,-4.7889,-4.7889,-4.7915,-4.833,-4.859,-4.8824,-4.9629,-5.0298,-5.0637,-5.0901,-5.1161,-5.1291,-5.1291,-5.1291,-5.1291,-5.1291,-5.1291,-5.1291,-5.1291,-5.1291,-5.0034,-4.2775,-3.964,-3.7118,-3.0013,-2.6993,-2.6054,-2.6054,-2.6054,-2.6054,-2.6054,-2.6054,-2.6028,-2.5936,-2.5922,-2.583,-2.554,-2.5487,-2.5421,-2.538,-2.5197,-2.5197,-2.5197,-2.5118,-2.5065,-2.5065,-2.5065,-2.5065,-2.5065,-2.4986,-2.4933,-2.4933,-2.4933,-2.2771,-1.7362,-1.4238,-0.8769,-0.032,0.0,0.0,0.0,0.0,0.0,0.0,0.0,0.0,0.0,0.0,0.0,-4.2903,-4.2924,-4.3464,-4.331,-4.0651,-3.9523,-4.5255,-4.196,-3.8799,-4.2773,-4.5863,-4.7343,-4.5629,-4.5344,-4.537,-4.5344,-4.537,-4.5967,-4.7655,-4.7889,-4.7889,-4.7889,-4.7889,-4.7889,-4.7889,-4.7889,-4.7889,-4.7889,-4.7889,-4.7889,-4.7889,-4.7889,-4.7889,-4.7889,-4.7889,-4.7889,-4.7889,-4.7889,-4.7889,-4.7889,-4.7889,-4.7889,-4.7889,-4.7889,-4.7889,-4.7889,-4.7745,-4.8226,-4.8746,-4.8772,-4.9421,-5.0611,-5.0611,-5.0797,-5.1291,-5.1291,-5.1291,-5.1291,-5.1291,-5.1291,-5.1291,-5.1291,-5.1291,-5.0496,-4.6248,-4.1993,-3.775,-3.3473,-2.9212,-2.6054,-2.6054,-2.6054,-2.6054,-2.6054,-2.6054,-2.5962,-2.5672,-2.5606,-2.5527,-2.525,-2.5197,-2.5197,-2.5197,-2.5197,-2.5197,-2.5197,-2.4947,-2.4749,-2.4749,-2.4749,-2.4749,-2.4749,-2.4485,-2.4314,-2.4314,-2.4314,-2.0915,-1.2838,-1.2196,-0.8507,-0.0316,0.0,0.0,0.0,0.0,0.0,0.0,0.0,0.0,0.0,0.0,0.0,-4.5018,-4.3882,-4.3655,-4.7633,-4.2941,-4.0096,-5.0787,-4.7883,-4.4071,-4.7585,-4.6435,-4.4169,-4.2214,-4.3759,-4.5344,-4.5344,-4.6331,-4.7265,-4.7811,-4.7889,-4.7889,-4.7889,-4.7889,-4.7889,-4.7889,-4.7889,-4.7889,-4.7889,-4.7889,-4.7889,-4.7889,-4.7889,-4.7889,-4.7889,-4.7889,-4.7889,-4.7889,-4.7889,-4.7889,-4.7889,-4.7889,-4.7889,-4.7889,-4.7889,-4.7889,-4.7889,-4.7889,-4.7993,-4.82,-4.859,-4.9187,-4.994,-5.0719,-5.1135,-5.1291,-5.1291,-5.1291,-5.1291,-5.1291,-5.1291,-5.1291,-5.1291,-5.1291,-5.0496,-4.6248,-4.4046,-4.1993,-3.7907,-3.3632,-3.0317,-3.0317,-2.8265,-2.6001,-2.579,-2.5751,-2.5672,-2.5382,-2.5329,-2.5237,-2.4947,-2.4881,-2.4828,-2.4617,-2.4577,-2.4577,-2.4577,-2.4498,-2.4446,-2.4446,-2.4446,-2.4446,-2.4446,-2.4353,-2.4301,-2.4301,-2.4301,-2.0836,-1.2687,-1.2208,-0.8564,-0.0313,0.0,0.0,0.0,0.0,0.0,0.0,0.0,0.0,0.0,0.0,0.0,-4.5635,-4.5065,-4.5412,-5.007,-4.5237,-4.2384,-5.3639,-4.9941,-4.5502,-5.0104,-4.8107,-4.519,-4.395,-4.4066,-4.4565,-4.524,-4.6227,-4.702,-4.7642,-4.7889,-4.7889,-4.7889,-4.7889,-4.7889,-4.7889,-4.7889,-4.7889,-4.7889,-4.7889,-4.7889,-4.7889,-4.7889,-4.7889,-4.7889,-4.7889,-4.7889,-4.7889,-4.7889,-4.7889,-4.7889,-4.7889,-4.7889,-4.7889,-4.7889,-4.7889,-4.7889,-4.7889,-4.7889,-4.7941,-4.8512,-4.8953,-4.9395,-5.0538,-5.1109,-5.1291,-5.1291,-5.1291,-5.1291,-5.1291,-5.1291,-5.1291,-5.1291,-5.1291,-5.0829,-4.8131,-4.6248,-4.4358,-4.1837,-3.6783,-3.2678,-3.4267,-3.0292,-2.5698,-2.5632,-2.5527,-2.5369,-2.5092,-2.5026,-2.4933,-2.463,-2.4577,-2.4525,-2.4327,-2.4301,-2.4301,-2.4301,-2.4301,-2.4301,-2.4301,-2.4301,-2.4301,-2.4301,-2.4301,-2.4301,-2.4301,-2.4301,-2.0802,-1.2763,-1.0716,-0.6937,-0.0311,0.0,0.0,0.0,0.0,0.0,0.0,0.0,0.0,0.0,0.0,0.0,-4.4904,-4.6003,-4.7989,-5.0836,-4.7756,-4.6237,-5.4634,-4.937,-4.4471,-5.0968,-5.0519,-4.9153,-4.9597,-4.6023,-4.3574,-4.5119,-4.5506,-4.6045,-4.7499,-4.7707,-4.7707,-4.7707,-4.7707,-4.7707,-4.7707,-4.7667,-4.7889,-4.7889,-4.7889,-4.7889,-4.7889,-4.7889,-4.7889,-4.7889,-4.7889,-4.7889,-4.7889,-4.7889,-4.7837,-4.7707,-4.7837,-4.7837,-4.7707,-4.7837,-4.7889,-4.7889,-4.7616,-4.7642,-4.7915,-4.8434,-4.8694,-4.8928,-5.007,-5.0823,-5.1291,-5.1291,-5.1291,-5.1291,-5.1291,-5.1291,-5.1291,-5.1291,-5.1291,-5.1291,-5.1291,-4.8595,-4.5292,-4.5292,-3.9266,-3.3581,-3.7496,-3.1974,-2.525,-2.5487,-2.5342,-2.5078,-2.4775,-2.4709,-2.463,-2.4353,-2.4301,-2.4301,-2.4301,-2.4301,-2.4301,-2.4301,-2.4301,-2.4301,-2.4301,-2.4301,-2.4301,-2.4301,-2.4301,-2.4301,-2.4301,-2.4301,-2.0802,-1.2763,-0.8364,-0.4285,-0.0155,0.0,0.0,0.0,0.0,0.0,0.0,0.0,0.0,0.0,0.0,0.0,-4.4904,-4.5169,-4.6837,-5.2696,-5.1258,-5.0506,-5.829,-5.3883,-4.9409,-5.4259,-5.1017,-4.7946,-4.9926,-4.8219,-4.6491,-4.6609,-4.7023,-4.6839,-4.6071,-4.5941,-4.5941,-4.5941,-4.5941,-4.5941,-4.5941,-4.7136,-4.7889,-4.7889,-4.7889,-4.7889,-4.7889,-4.7889,-4.7889,-4.7889,-4.7889,-4.7889,-4.7889,-4.7889,-4.7098,-4.5967,-4.7265,-4.7213,-4.5993,-4.7291,-4.7889,-4.7667,-4.6373,-4.6668,-4.7863,-4.7577,-4.8226,-4.9499,-5.0642,-5.1187,-5.1291,-5.1291,-5.1291,-5.1291,-5.1291,-5.1291,-5.1291,-5.1291,-5.1291,-5.1291,-5.1291,-5.065,-4.988,-4.988,-4.3601,-3.7019,-3.7484,-3.1439,-2.5158,-2.4986,-2.4894,-2.4775,-2.4472,-2.4406,-2.438,-2.4314,-2.4301,-2.4301,-2.4301,-2.4301,-2.4301,-2.4301,-2.4301,-2.4301,-2.4301,-2.4301,-2.4301,-2.4301,-2.4301,-2.4301,-2.4301,-2.4301,-2.0802,-1.2763,-0.8364,-0.4269,-0.0153,0.0,0.0,0.0,0.0,0.0,0.0,0.0,0.0,0.0,0.0,0.0,-4.4904,-4.5435,-4.7292,-5.2544,-5.1633,-5.0912,-5.6531,-5.3797,-5.1234,-5.5915,-5.4165,-5.2008,-5.2684,-5.3663,-5.2779,-4.8535,-4.8846,-4.874,-4.6473,-4.6779,-4.646,-4.4359,-4.5551,-4.6201,-4.5422,-4.6876,-4.7889,-4.7889,-4.7889,-4.7889,-4.7889,-4.7889,-4.7889,-4.7889,-4.7889,-4.7889,-4.7889,-4.7889,-4.7032,-4.537,-4.6943,-4.6865,-4.5396,-4.711,-4.7889,-4.7693,-4.6902,-4.7032,-4.7889,-4.7837,-4.8538,-4.9681,-5.0564,-5.1057,-5.1291,-5.1291,-5.1291,-5.1291,-5.1291,-5.1291,-5.1291,-5.1291,-5.1291,-5.1291,-5.1291,-5.1291,-5.1239,-5.0979,-4.4571,-3.7285,-3.511,-2.9684,-2.4775,-2.4749,-2.4643,-2.4498,-2.434,-2.4301,-2.4301,-2.4301,-2.4301,-2.4301,-2.4301,-2.4301,-2.4301,-2.4301,-2.4301,-2.4301,-2.4301,-2.4301,-2.4301,-2.4301,-2.4301,-2.4301,-2.4301,-2.4301,-2.1567,-1.5345,-1.1096,-0.624,-0.0305,0.0,0.0,0.0,0.0,0.0,0.0,0.0,0.0,0.0,0.0,0.0,-4.5245,-4.647,-4.8444,-5.1709,-5.0722,-4.9773,-5.3138,-5.1823,-5.133,-5.5961,-5.7018,-5.6715,-5.5814,-5.8684,-5.8528,-5.0794,-5.084,-5.0894,-4.7655,-4.7941,-4.7054,-4.3288,-4.5318,-4.6642,-4.5448,-4.6876,-4.7889,-4.7889,-4.7889,-4.7889,-4.7889,-4.7889,-4.7889,-4.7889,-4.7889,-4.7889,-4.7889,-4.7889,-4.7032,-4.537,-4.6943,-4.6865,-4.5396,-4.711,-4.7889,-4.7719,-4.7603,-4.7655,-4.7915,-4.8226,-4.8798,-4.9525,-5.0096,-5.0616,-5.1031,-5.1031,-5.1031,-5.1057,-5.1135,-5.1239,-5.1291,-5.1291,-5.1291,-5.1291,-5.1187,-5.1161,-5.0878,-4.9752,-4.3383,-3.6059,-3.2283,-2.7823,-2.4366,-2.4617,-2.4485,-2.4301,-2.4301,-2.4301,-2.4301,-2.4301,-2.4301,-2.4301,-2.4301,-2.4301,-2.4301,-2.4301,-2.4301,-2.4301,-2.4301,-2.4301,-2.4301,-2.4301,-2.4301,-2.4301,-2.4301,-2.4301,-2.2621,-1.8528,-1.4437,-0.8824,-0.1221,-0.0305,0.0,0.0,0.0,0.0,0.0,0.0,0.0,0.0,0.0,0.0,-4.6888,-4.7799,-4.9165,-5.1861,-5.1178,-5.0532,-5.319,-5.1823,-5.0836,-5.3759,-5.4431,-5.4719,-5.5921,-5.6643,-5.6064,-5.3121,-5.3352,-5.2576,-4.8573,-4.5591,-4.3521,-4.2901,-4.3214,-4.3993,-4.5214,-4.6876,-4.7889,-4.7889,-4.7889,-4.7889,-4.7889,-4.7889,-4.7889,-4.7889,-4.7889,-4.7889,-4.7889,-4.7889,-4.7032,-4.537,-4.6943,-4.6865,-4.5396,-4.711,-4.7889,-4.7811,-4.6356,-4.6564,-4.7811,-4.6954,-4.7499,-4.8928,-4.9499,-4.9785,-4.9862,-4.9862,-4.9862,-4.9914,-5.0408,-5.0901,-5.1291,-5.1291,-5.1291,-5.1213,-5.0719,-5.059,-4.9726,-4.5186,-4.0584,-3.5924,-3.1467,-2.7331,-2.4314,-2.4353,-2.434,-2.4301,-2.4301,-2.4301,-2.4301,-2.4301,-2.4301,-2.4301,-2.4301,-2.4301,-2.4301,-2.4301,-2.4301,-2.4301,-2.4301,-2.4301,-2.4301,-2.4301,-2.4301,-2.4301,-2.4301,-2.4301,-2.2621,-1.8528,-1.4437,-1.0034,-0.5327,-0.183,0.0,0.0,0.0,0.0,0.0,0.0,0.0,0.0,0.0,0.0,-4.7343,-4.8444,-4.9697,-5.0874,-5.0513,-5.0247,-5.1481,-5.0874,-5.0664,-5.3266,-5.3899,-5.4291,-5.5923,-5.7366,-5.7801,-5.6466,-5.7637,-5.8179,-5.631,-5.2239,-4.8617,-4.5961,-4.5551,-4.5473,-4.537,-4.6876,-4.7889,-4.7889,-4.7889,-4.7889,-4.7889,-4.7889,-4.7889,-4.7889,-4.7889,-4.7889,-4.7889,-4.7889,-4.7032,-4.537,-4.6943,-4.6486,-4.4019,-4.6694,-4.7253,-4.6512,-4.6668,-4.7162,-4.7837,-4.7317,-4.7759,-4.8772,-4.9031,-4.9317,-4.9629,-4.994,-5.007,-5.0148,-5.0719,-5.0875,-5.0797,-5.0486,-5.0382,-5.033,-5.007,-4.9785,-4.8603,-4.3714,-3.9498,-3.5597,-3.128,-2.7257,-2.4301,-2.4301,-2.4301,-2.4301,-2.4301,-2.4301,-2.4301,-2.4301,-2.4301,-2.4301,-2.4301,-2.4301,-2.4301,-2.4301,-2.4301,-2.4301,-2.4301,-2.4301,-2.4301,-2.4301,-2.4301,-2.4301,-2.4301,-2.4301,-2.1567,-1.5345,-1.3218,-0.9426,-0.3048,-0.0915,0.0,0.0,0.0,0.0,0.0,0.0,0.0,0.0,0.0,0.0,-4.871,0.0,-5.1785,-5.1785,-5.133,-5.0912,0.0,-5.0361,-5.0475,-5.2506,-5.338,-5.4101,-5.5164,-5.7442,-5.8847,-5.7974,-6.0479,-6.2066,-6.0642,-5.7741,-5.3947,-4.8613,-4.7538,-4.6928,-4.6019,-4.7136,-4.7889,-4.7889,-4.7889,-4.7889,-4.7889,-4.7889,-4.7889,-4.7889,-4.7889,-4.7889,-4.7889,-4.7889,-4.7239,-4.5967,-4.7265,-4.6305,-4.3448,-4.6486,-4.6954,-4.5448,-4.7136,-4.7889,-4.7889,-4.7889,-4.8148,-4.8538,-4.8538,-4.8798,-4.9239,-4.9681,-4.9862,-4.994,-5.0512,-5.0408,-5.0018,-4.9681,-4.9603,-4.9577,-4.9447,-4.9005,-4.7417,-4.2081,-3.8447,-3.5072,-3.0058,-2.6523,-2.4301,-2.4301,-2.4301,-2.4301,-2.4301,-2.4301,-2.4301,-2.4301,-2.4301,-2.4301,-2.4301,-2.4301,-2.4301,-2.4301,-2.4301,-2.4301,-2.4301,-2.4301,-2.4301,-2.4301,-2.4301,-2.4301,-2.4301,-2.4301,-2.1254,-1.4134,-1.2763,-0.8976,-0.1677,-0.0458,0.0,0.0,0.0,0.0,0.0,0.0,0.0,0.0,0.0,0.0,0.0,-5.5088,-5.6948,-5.6948,-5.5202,-5.3633,-5.3633,-5.1709,0.0,-5.0171,-5.2165,-5.3569,-5.2886,-5.4822,-5.6227,-5.5392,-5.934,-6.0605,-5.481,-5.6225,-5.5245,-4.7964,-4.6186,-4.6097,-4.7409,-4.7667,-4.7889,-4.7889,-4.7889,-4.7889,-4.7889,-4.7889,-4.7889,-4.7889,-4.7889,-4.7889,-4.7889,-4.7889,-4.7837,-4.7707,-4.7837,-4.6928,-4.5214,-4.6917,-4.6954,-4.5448,-4.7136,-4.7889,-4.7889,-4.7889,-4.7915,-4.7967,-4.7967,-4.7967,-4.8019,-4.8071,-4.8071,-4.8148,-4.8746,-4.8902,-4.8953,-4.9447,-4.9603,-4.9499,-4.8979,-4.8408,-4.6307,-3.8761,-3.6395,-3.4335,-2.6673,-2.4451,-2.4301,-2.4301,-2.4301,-2.4301,-2.4301,-2.4301,-2.4301,-2.4301,-2.4301,-2.4301,-2.4301,-2.4301,-2.4301,-2.4301,-2.4301,-2.4301,-2.4301,-2.4301,-2.4301,-2.4301,-2.4301,-2.4301,-2.4301,-2.4301,-2.247,-1.8075,-1.4285,-1.0185,-0.5783,-0.1982,0.0,0.0,0.0,0.0,0.0,0.0,0.0,0.0,0.0,0.0,-5.3519,-5.5687,-5.7589,-5.7589,-5.6866,-5.5801,-5.4241,-5.3038,-5.2051,-5.1026,-5.1557,-5.2468,-5.319,-5.4063,-5.5278,-5.7024,-5.8885,-6.0436,-6.1228,-6.242,-6.0991,-5.506,-5.0034,-4.7188,-4.7837,-4.6928,-4.6746,-4.7811,-4.6902,-4.6772,-4.7837,-4.7889,-4.7889,-4.7889,-4.7889,-4.7889,-4.7889,-4.7889,-4.7889,-4.7889,-4.7889,-4.6865,-4.5396,-4.711,-4.6954,-4.5448,-4.7136,-4.715,0.0,-4.7447,-4.7265,-4.6408,-4.7473,-4.7889,-4.7941,-4.8278,-4.8434,-4.8512,-4.9083,-4.9057,-4.8798,-4.9005,-4.8824,-4.8486,-4.8278,-4.8071,-4.6713,-4.124,-3.6249,-3.1674,-2.8734,-2.6074,-2.4301,-2.4301,-2.4301,-2.4301,-2.4301,-2.4301,-2.4301,-2.4301,-2.4301,-2.4301,-2.4301,-2.4301,-2.4301,-2.4301,-2.4301,-2.4301,-2.4301,-2.4301,-2.4301,-2.4301,-2.4301,-2.4301,-2.4301,-2.4301,-2.1567,-1.4891,-1.3066,-0.928,-0.2591,-0.0763,0.0,0.0,0.0,0.0,0.0,0.0,0.0,0.0,0.0,0.0,-5.5923,-5.8163,-6.0251,-6.0251,-5.9872,-5.8809,-5.6341,-5.5126,-5.3987,-5.2089,-5.1671,-5.2127,-5.3633,-5.3899,-5.486,-5.8163,-5.8695,-5.9834,-6.2924,-6.3357,-6.1524,-5.6584,-5.1427,-4.8229,-4.7837,-4.6824,-4.6642,-4.7811,-4.6798,-4.6668,-4.7837,-4.7889,-4.7889,-4.7889,-4.7889,-4.7889,-4.7889,-4.7889,-4.7889,-4.7889,-4.7889,-4.6865,-4.5396,-4.711,-4.6954,-4.5448,-4.7136,-4.6928,-4.5473,-4.7188,-4.6876,-4.5525,-4.7213,-4.7889,-4.7941,-4.833,-4.8486,-4.8538,-4.8928,-4.8798,-4.8486,-4.8486,-4.82,-4.7889,-4.7889,-4.7001,-4.5367,-4.2716,-3.6229,-2.9909,-2.8585,-2.6374,-2.4301,-2.4301,-2.4301,-2.4301,-2.4301,-2.4301,-2.4301,-2.4301,-2.4301,-2.4301,-2.4301,-2.4301,-2.4301,-2.4301,-2.4301,-2.4301,-2.4301,-2.4301,-2.4301,-2.4301,-2.4301,-2.4301,-2.4301,-2.4301,-2.1404,-1.458,-1.2915,-0.9123,-0.2135,-0.061,0.0,0.0,0.0,0.0,0.0,0.0,0.0,0.0,0.0,0.0,-6.0555,-6.3668,-6.625,-6.625,-6.4997,-6.3137,-6.0631,-5.8087,-5.5544,-5.3038,-5.2544,-5.2772,-5.3645,-5.3899,-5.486,-5.8163,-5.8695,-5.8289,-5.71,-5.6966,-5.5049,-5.0224,-4.9655,-4.9174,-4.7967,-4.7863,-4.7863,-4.7863,-4.7863,-4.7863,-4.7889,-4.7889,-4.7889,-4.7889,-4.7889,-4.7889,-4.7889,-4.7889,-4.7889,-4.7889,-4.7889,-4.7006,-4.5422,-4.711,-4.698,-4.5473,-4.7162,-4.6902,-4.5448,-4.7188,-4.6876,-4.5473,-4.7213,-4.7889,-4.7889,-4.7889,-4.7889,-4.7889,-4.7889,-4.7889,-4.7889,-4.7889,-4.7889,-4.7889,-4.7889,-4.5078,-4.199,-4.199,-3.6249,-2.9165,-2.5338,-2.4301,-2.4301,-2.4301,-2.4301,-2.4301,-2.4301,-2.4301,-2.4301,-2.4301,-2.4301,-2.4301,-2.4301,-2.4301,-2.4301,-2.4301,-2.4301,-2.4301,-2.4301,-2.4301,-2.4301,-2.4301,-2.4301,-2.4301,-2.4301,-2.4301,-2.247,-1.8528,-1.4429,-1.0337,-0.6084,-0.2135,0.0,0.0,0.0,0.0,0.0,0.0,0.0,0.0,0.0,0.0,-5.9568,-6.2795,-6.5862,-6.3803,-6.4769,-6.4608,-5.7611,-5.7574,-5.786,-5.4177,-5.3418,-5.3645,-5.4481,-5.4633,-5.477,-5.4836,-5.4927,-5.5118,-5.5629,-5.5771,-5.4862,-5.2638,-5.2317,-5.0675,-4.6425,-4.6097,-4.6097,-4.6097,-4.6097,-4.6616,-4.7837,-4.7889,-4.7889,-4.7889,-4.7889,-4.7889,-4.7889,-4.7889,-4.7889,-4.7889,-4.7889,-4.7486,-4.702,-4.7655,-4.7603,-4.7162,-4.7681,-4.6227,-4.3734,-4.6668,-4.6149,-4.3811,-4.6746,-4.7889,-4.7889,-4.7889,-4.7889,-4.7889,-4.7889,-4.7889,-4.7889,-4.7889,-4.7889,-4.7889,-4.7889,-4.5078,-4.1386,-3.8594,-3.4187,-2.9165,-2.5338,-2.4301,-2.4301,-2.4301,-2.4301,-2.4301,-2.4301,-2.4301,-2.4301,-2.4301,-2.4301,-2.4301,-2.4301,-2.4301,-2.4301,-2.4301,-2.4301,-2.4301,-2.4301,-2.4301,-2.4301,-2.4301,-2.4301,-2.4301,-2.4301,-2.4301,-2.1416,-1.4429,-1.2922,-0.9123,-0.2135,-0.061,0.0,0.0,0.0,0.0,0.0,0.0,0.0,0.0,0.0,0.0,-6.1694,-6.4428,-6.6841,-6.5228,-6.6635,-6.6879,-6.0519,-6.0136,-6.0024,-5.6493,-5.4974,-5.4708,-5.6189,-5.6493,-5.6531,-5.6877,-5.5189,-5.3882,-5.4198,-5.2888,-5.1573,-5.034,-5.0148,-4.9204,-4.6521,-4.5733,-4.5629,-4.6305,-4.6356,-4.6798,-4.7837,-4.7889,-4.7889,-4.7889,-4.7889,-4.7889,-4.7889,-4.7889,-4.7889,-4.7889,-4.7889,-4.7889,-4.7889,-4.7889,-4.7889,-4.7889,-4.7889,-4.6331,-4.3993,-4.6746,-4.6253,-4.4045,-4.6798,-4.7889,-4.7889,-4.7889,-4.7889,-4.7889,-4.7889,-4.7889,-4.7889,-4.7889,-4.7889,-4.7889,-4.7889,-4.4043,-3.9178,-3.6836,-3.2118,-2.7257,-2.4888,-2.4301,-2.4301,-2.4301,-2.4301,-2.4301,-2.4301,-2.4301,-2.4301,-2.4301,-2.4301,-2.4301,-2.4301,-2.4301,-2.4301,-2.4301,-2.4301,-2.4301,-2.4301,-2.4301,-2.4301,-2.4301,-2.4301,-2.4301,-2.4301,-2.4301,-2.2169,-1.731,-1.5496,-1.246,-0.7452,-0.4112,-0.2438,-0.2438,-0.0763,0.0,0.0,0.0,0.0,0.0,0.0,0.0,-6.5339,-6.7313,-6.8702,-6.8479,-6.8914,-6.8763,-6.5975,-6.3639,-6.1382,-5.8887,-5.6607,-5.5696,-5.7936,-5.8391,-5.9228,-6.1722,-5.76,-5.3828,-5.266,-4.9205,-4.6613,-4.5947,-4.548,-4.6079,-4.7926,-4.6391,-4.5993,-4.7525,-4.7655,-4.7733,-4.7889,-4.7889,-4.7889,-4.7889,-4.7889,-4.7889,-4.7889,-4.7889,-4.7889,-4.7889,-4.7889,-4.7889,-4.7889,-4.7889,-4.7889,-4.7889,-4.7889,-4.6928,-4.5473,-4.7188,-4.6876,-4.5525,-4.7213,-4.7889,-4.7889,-4.7889,-4.7889,-4.7889,-4.7889,-4.7889,-4.7889,-4.7889,-4.7889,-4.7889,-4.7889,-4.2425,-3.6102,-3.6102,-3.0355,-2.4301,-2.4301,-2.4301,-2.4301,-2.4301,-2.4301,-2.4301,-2.4301,-2.4301,-2.4301,-2.4301,-2.4301,-2.4301,-2.4301,-2.4301,-2.4301,-2.4301,-2.4301,-2.4301,-2.4301,-2.4301,-2.4301,-2.4301,-2.4301,-2.4301,-2.4301,-2.4301,-2.415,-2.3849,-2.0349,-1.8075,-1.7764,-1.0483,-0.654,-0.654,-0.3048,-0.1068,-0.1068,-0.0763,-0.061,-0.061,-0.0153,0.0,-6.3706,-6.5984,-6.8256,-6.6001,-6.5583,-6.4486,-5.9997,-5.8527,-5.771,-5.6184,-5.5392,-5.5164,-5.5696,-5.5809,-5.6347,-5.7856,-5.4795,-5.1951,-5.1355,-4.8026,-4.662,-4.9331,-4.7052,-4.6535,-4.9927,-4.7268,-4.5499,-4.5863,-4.5889,-4.6486,-4.7667,-4.7889,-4.7889,-4.7889,-4.7889,-4.7889,-4.7889,-4.7889,-4.7889,-4.7889,-4.7889,-4.7889,-4.7889,-4.7889,-4.7889,-4.7889,-4.7889,-4.6928,-4.5473,-4.7188,-4.6876,-4.5525,-4.7213,-4.7889,-4.7889,-4.7889,-4.7889,-4.7889,-4.7889,-4.7889,-4.7889,-4.7889,-4.7889,-4.7889,-4.7889,-4.2425,-3.6102,-3.6102,-3.0355,-2.4301,-2.4301,-2.4301,-2.4301,-2.4301,-2.4301,-2.4301,-2.4301,-2.4301,-2.4301,-2.4301,-2.4301,-2.4301,-2.4301,-2.4301,-2.4301,-2.4301,-2.4301,-2.4301,-2.4301,-2.4301,-2.4301,-2.4301,-2.4301,-2.4301,-2.4301,-2.4301,-2.2934,-1.9735,-1.8679,-1.6857,-1.3672,-1.1854,-1.0944,-1.0944,-1.0034,-0.9583,-0.9583,-0.6392,-0.4718,-0.4718,-0.1526,0.0,-6.3782,-6.6174,-6.9083,-6.7564,-6.586,-6.4247,-6.3386,-5.9486,-5.6576,-5.8328,-5.6283,-5.4672,-5.6437,-5.6759,-5.7463,-5.9303,-5.5354,-5.2166,-5.2509,-4.9918,-4.8943,-5.1479,-5.106,-5.1072,-5.2004,-4.9656,-4.7538,-4.6652,-4.6564,-4.6954,-4.7837,-4.7889,-4.7889,-4.7889,-4.7889,-4.7889,-4.7889,-4.7889,-4.7889,-4.7889,-4.7889,-4.7889,-4.7889,-4.7889,-4.7889,-4.7889,-4.7889,-4.7253,-4.6642,-4.7383,-4.7227,-4.6642,-4.7409,-4.7889,-4.7889,-4.7889,-4.7889,-4.7889,-4.7889,-4.7889,-4.7889,-4.7889,-4.7889,-4.7889,-4.7889,-4.2425,-3.6102,-3.6102,-3.0355,-2.4301,-2.4301,-2.4301,-2.4301,-2.4301,-2.4301,-2.4301,-2.4301,-2.4301,-2.4301,-2.4301,-2.4301,-2.4301,-2.4301,-2.4301,-2.4301,-2.4301,-2.4301,-2.4301,-2.4301,-2.4301,-2.4301,-2.4301,-2.4301,-2.4301,-2.4301,-2.4301,-2.3385,-2.1254,-2.1103,-2.0199,-1.8075,-1.6101,-1.5194,-1.5194,-1.3218,-1.2309,-1.2309,-1.0034,-0.8971,-0.8971,-0.6848,-0.4736,-6.4428,-6.682,-6.9857,-6.9971,-6.7128,-6.5172,-6.8613,-6.2434,-5.7247,-6.1634,-5.8472,-5.5653,-5.8215,-5.8695,-5.953,-6.2112,-5.745,-5.4002,-5.5537,-5.3465,-5.2438,-5.4054,-5.5513,-5.5811,-5.4493,-5.2531,-5.0386,-4.8045,-4.7603,-4.7305,-4.7305,-4.7305,-4.7434,-4.7889,-4.7889,-4.7889,-4.7889,-4.7889,-4.7889,-4.7889,-4.7889,-4.7889,-4.7889,-4.7889,-4.7733,-4.7331,-4.7616,-4.7564,-4.7473,-4.7759,-4.7889,-4.7889,-4.7889,-4.7889,-4.7889,-4.7889,-4.7889,-4.7889,-4.7889,-4.7889,-4.7889,-4.7889,-4.7889,-4.7863,-4.7759,-4.2211,-3.6062,-3.5925,-3.0223,-2.4221,-2.4169,-2.4156,-2.4156,-2.4156,-2.4156,-2.4156,-2.4156,-2.4156,-2.4156,-2.4156,-2.4235,-2.4287,-2.4235,-2.4274,-2.4301,-2.4301,-2.4301,-2.4301,-2.4301,-2.4261,-2.4235,-2.4235,-2.4235,-2.4248,-2.4301,-2.4301,-2.4301,-2.4301,-2.4301,-2.4301,-2.4301,-2.1103,-1.9283,-1.9283,-1.6101,-1.4285,-1.4285,-1.3672,-1.3218,-1.3218,-1.2612,-1.0337,-6.4504,-6.6857,-6.9135,-6.9857,-6.6557,-6.3938,-6.6248,-6.2626,-5.9659,-6.2157,-6.191,-6.0851,-5.9001,-5.8695,-5.953,-6.2112,-5.9049,-5.7399,-6.0386,-5.7904,-5.6846,-6.0204,-5.8071,-5.6871,-5.8037,-5.513,-5.1659,-4.815,-4.6512,-4.5681,-4.5681,-4.5681,-4.6356,-4.7837,-4.7889,-4.7889,-4.7889,-4.7889,-4.7889,-4.7889,-4.7889,-4.7889,-4.7889,-4.7889,-4.7084,-4.5759,-4.7239,-4.7058,-4.5785,-4.7291,-4.7889,-4.7889,-4.7889,-4.7889,-4.7889,-4.7889,-4.7889,-4.7889,-4.7889,-4.7889,-4.7889,-4.7889,-4.7889,-4.7811,-4.7317,-4.1935,-3.5944,-3.5178,-2.9645,-2.3892,-2.3628,-2.3562,-2.3562,-2.3562,-2.3562,-2.3562,-2.3562,-2.3562,-2.3562,-2.3562,-2.3958,-2.4221,-2.3984,-2.4142,-2.4301,-2.4301,-2.4301,-2.4301,-2.4301,-2.409,-2.3945,-2.3945,-2.3945,-2.4037,-2.4274,-2.4301,-2.4301,-2.4301,-2.4301,-2.4301,-2.4301,-2.3849,-2.3536,-2.3536,-2.2934,-2.2783,-2.2621,-1.9132,-1.7462,-1.7462,-1.3823,-1.2005,-6.0973,-6.3972,-6.7427,-6.7807,-6.5135,-6.3299,-6.6286,-6.2163,-5.8767,-6.2508,-6.0876,-5.8618,-5.8135,-5.7252,-5.7784,-6.1277,-5.7881,-5.6707,-6.2151,-5.9323,-5.8361,-6.2943,-6.2572,-6.1918,-6.2035,-5.8673,-5.4612,-4.9868,-4.7732,-4.6772,-4.6772,-4.6772,-4.6968,-4.7863,-4.7889,-4.7889,-4.7889,-4.7889,-4.7889,-4.7889,-4.7889,-4.7889,-4.7889,-4.7889,-4.7473,-4.6824,-4.7409,-4.7331,-4.6824,-4.7577,-4.7889,-4.7889,-4.7889,-4.7889,-4.7889,-4.7889,-4.7889,-4.7889,-4.7889,-4.7473,-4.6954,-4.6954,-4.6954,-4.6902,-4.6642,-4.141,-3.5276,-3.4903,-2.9397,-2.3615,-2.3628,-2.3589,-2.3589,-2.3589,-2.3589,-2.3589,-2.3589,-2.3589,-2.3589,-2.3589,-2.3654,-2.3786,-2.3668,-2.3747,-2.3826,-2.3826,-2.3958,-2.401,-2.3839,-2.372,-2.3641,-2.3641,-2.3786,-2.3945,-2.4063,-2.4208,-2.4301,-2.4301,-2.4301,-2.4301,-2.4301,-2.4301,-2.4301,-2.4301,-2.4301,-2.4301,-2.4301,-2.247,-2.1717,-2.1567,-1.9886,-1.7764,-5.8353,-6.1466,-6.5187,-6.6022,-6.4458,-6.3547,-6.6676,-6.3025,-5.9973,-6.3889,-6.1539,-5.8856,-5.908,-5.8049,-5.8239,-6.139,-5.8551,-5.799,-6.3873,-6.1735,-6.0891,-6.4477,-6.5529,-6.4764,-6.1796,-5.931,-5.6332,-5.2268,-4.9645,-4.7903,-4.7239,-4.7239,-4.7447,-4.7719,-4.7889,-4.7889,-4.7889,-4.7889,-4.7889,-4.7889,-4.7889,-4.7889,-4.7889,-4.7889,-4.7655,-4.7265,-4.7564,-4.7486,-4.7265,-4.7707,-4.7889,-4.7889,-4.7889,-4.7889,-4.7719,-4.7733,-4.7681,-4.7655,-4.7499,-4.6902,-4.6201,-4.6201,-4.6201,-4.6036,-4.5027,-3.9949,-3.4604,-3.3403,-2.8355,-2.3312,-2.3246,-2.3233,-2.3233,-2.3233,-2.3233,-2.3233,-2.3233,-2.3233,-2.3246,-2.3325,-2.3272,-2.3272,-2.3562,-2.3589,-2.3589,-2.3589,-2.3628,-2.3641,-2.3272,-2.3285,-2.3338,-2.3338,-2.3536,-2.3694,-2.3773,-2.3971,-2.4116,-2.4195,-2.4195,-2.4235,-2.4301,-2.4301,-2.4301,-2.4301,-2.4301,-2.4301,-2.4301,-2.4301,-2.4301,-2.4301,-2.4301,-2.2621,-5.8885,-6.0707,-6.2264,-6.5453,-6.5519,-6.5243,-6.7085,-6.6567,-6.6063,-6.7123,-6.7072,-6.6113,-6.3896,-6.3365,-6.3365,-6.3592,-6.3434,-6.4108,-6.6895,-6.7072,-6.6378,-6.5149,-6.4997,-6.1941,-5.4101,-5.4521,-5.5253,-5.5002,-5.1545,-4.8243,-4.5584,-4.5473,-4.6227,-4.7693,-4.7889,-4.7889,-4.7889,-4.7889,-4.7889,-4.7889,-4.7889,-4.7889,-4.7889,-4.7889,-4.7006,-4.5551,-4.7188,-4.698,-4.5603,-4.7213,-4.7889,-4.7889,-4.7889,-4.7889,-4.7837,-4.7291,-4.7084,-4.7006,-4.6486,-4.6253,-4.6201,-4.6201,-4.6201,-4.5518,-4.1452,-3.7708,-3.3922,-2.9535,-2.5723,-2.2956,-2.2705,-2.2626,-2.2626,-2.2626,-2.2626,-2.2626,-2.2626,-2.2626,-2.2705,-2.2969,-2.2811,-2.2797,-2.3351,-2.3589,-2.3589,-2.3589,-2.3602,-2.3272,-2.2705,-2.2863,-2.3022,-2.3022,-2.3035,-2.3153,-2.3444,-2.3628,-2.3615,-2.3892,-2.3905,-2.4024,-2.4287,-2.4301,-2.4301,-2.4301,-2.4301,-2.4301,-2.4301,-2.4301,-2.4301,-2.4301,-2.4301,-2.415,-5.5088,-5.7366,-5.991,-6.1087,-6.2415,-6.3706,-6.4807,-6.4845,-6.4883,-6.5681,-6.4997,-6.401,-6.3137,-6.2112,-6.1732,-6.2795,-6.2074,-6.2415,-6.5415,-6.401,-6.3441,-6.5529,-6.3896,-6.2404,-6.2265,-5.913,-5.5954,-5.2879,-5.3493,-5.3547,-5.2485,-5.2351,-5.1626,-5.0147,-5.0036,-4.9092,-4.6798,-4.6798,-4.6798,-4.6798,-4.6798,-4.6798,-4.6798,-4.6798,-4.6486,-4.5941,-4.6538,-4.646,-4.5941,-4.6564,-4.6798,-4.6798,-4.6798,-4.6798,-4.6772,-4.659,-4.6512,-4.6356,-4.5396,-4.5058,-4.5058,-4.5058,-4.5058,-4.4897,-4.3293,-4.034,-3.6674,-3.2647,-2.8966,-2.5604,-2.3159,-2.2586,-2.2586,-2.2586,-2.2586,-2.2586,-2.2586,-2.2586,-2.2613,-2.2718,-2.2652,-2.2652,-2.2863,-2.289,-2.289,-2.289,-2.289,-2.2824,-2.2613,-2.2666,-2.2731,-2.2731,-2.289,-2.3048,-2.3153,-2.3338,-2.3496,-2.3602,-2.3786,-2.3931,-2.4037,-2.4208,-2.4301,-2.4301,-2.4301,-2.4301,-2.4301,-2.4301,-2.4301,-2.4301,-2.4301,-2.4301,-5.3569,-5.4936,-5.6948,-5.8353,-5.9986,-6.1618,-6.3023,-6.3327,-6.3479,-6.4048,-6.3516,-6.2947,-6.2947,-6.2264,-6.2074,-6.3175,-6.2415,-6.2453,-6.4655,-6.3061,-6.2529,-6.4731,-6.3023,-6.1948,-6.2564,-6.0858,-5.8323,-5.4709,-5.6578,-5.7367,-5.64,-5.6432,-5.5365,-5.3083,-5.1897,-5.0188,-4.7942,-4.6866,-4.6201,-4.6201,-4.6201,-4.6201,-4.6201,-4.6201,-4.6201,-4.6201,-4.6201,-4.6201,-4.6201,-4.6201,-4.6201,-4.6201,-4.6201,-4.6201,-4.6175,-4.5993,-4.5785,-4.5499,-4.4854,-4.4568,-4.4568,-4.4568,-4.4568,-4.4302,-4.3075,-4.1041,-3.8301,-3.4482,-3.1749,-2.9019,-2.5331,-2.4372,-2.4094,-2.2866,-2.2586,-2.2586,-2.2586,-2.2586,-2.2586,-2.2586,-2.2586,-2.2586,-2.2586,-2.2586,-2.2586,-2.2586,-2.2586,-2.2586,-2.2586,-2.2586,-2.2586,-2.2586,-2.2745,-2.2863,-2.2863,-2.3048,-2.3193,-2.3285,-2.3483,-2.3681,-2.3879,-2.4063,-2.4208,-2.4301,-2.4301,-2.4301,-2.4301,-2.4301,-2.4301,-2.4301,-2.4301,-2.4301,-5.4746,-5.3835,-5.3645,-5.767,-5.8695,-5.9378,-6.1922,-6.2491,-6.2491,-6.2647,-6.3175,-6.3706,-6.3706,-6.4314,-6.4845,-6.4921,-6.4883,-6.4883,-6.4959,-6.4959,-6.439,-6.2795,-6.2567,-6.012,-5.3886,-5.8909,-6.2034,-6.0726,-6.0681,-5.9611,-5.6735,-5.6634,-5.6634,-5.6501,-5.3292,-5.1432,-5.1297,-4.8025,-4.6287,-4.6149,-4.6149,-4.6149,-4.6149,-4.6149,-4.6149,-4.6149,-4.6149,-4.6149,-4.6149,-4.6149,-4.6149,-4.6149,-4.6149,-4.6149,-4.6097,-4.5525,-4.4954,-4.4568,-4.4568,-4.4568,-4.4568,-4.4568,-4.4568,-4.3902,-4.0346,-3.9268,-3.8436,-3.4618,-3.3683,-3.2707,-2.9157,-2.8192,-2.7225,-2.355,-2.2726,-2.2726,-2.2586,-2.2586,-2.2586,-2.2586,-2.2586,-2.2586,-2.2586,-2.2586,-2.2586,-2.2586,-2.2586,-2.2586,-2.2586,-2.2586,-2.2586,-2.2586,-2.2586,-2.2586,-2.2586,-2.2573,-2.2692,-2.2956,-2.2969,-2.3233,-2.3813,-2.3852,-2.3971,-2.4248,-2.4248,-2.4248,-2.4248,-2.4248,-2.4248,-2.4261,-2.4261,-2.4261,-5.3873,-5.5088,-5.6379,-5.7518,-5.8733,-6.0024,-6.1314,-6.1618,-6.177,-6.2415,-6.2719,-6.2871,-6.2871,-6.2074,-6.1998,-6.3782,-6.3061,-6.2909,-6.4693,-6.4959,-6.4807,-6.4352,-6.3251,-6.1461,-5.8478,-6.134,-6.2816,-6.1181,-6.2776,-6.3354,-6.2661,-6.2535,-6.1492,-5.9014,-5.7992,-5.5162,-5.0124,-4.9095,-4.7394,-4.5063,-4.5063,-4.5063,-4.5063,-4.5063,-4.5063,-4.5063,-4.5063,-4.5063,-4.5063,-4.5063,-4.5063,-4.5063,-4.5063,-4.5063,-4.5037,-4.4746,-4.4591,-4.4568,-4.4568,-4.4568,-4.4568,-4.4568,-4.4568,-4.4302,-4.3342,-4.3075,-4.2248,-3.8571,-3.749,-3.6677,-3.2844,-3.1886,-3.1064,-2.7379,-2.6549,-2.5733,-2.3132,-2.2586,-2.2586,-2.2586,-2.2586,-2.2586,-2.2586,-2.2586,-2.2586,-2.2586,-2.2586,-2.2586,-2.2586,-2.2586,-2.2586,-2.2586,-2.2586,-2.2586,-2.2586,-2.2389,-2.2296,-2.2375,-2.2375,-2.2455,-2.2613,-2.2824,-2.2982,-2.3061,-2.3061,-2.3061,-2.3061,-2.3061,-2.3167,-2.3351,-2.3351,-2.347,-5.281,-5.3,-5.3569,-5.4633,-5.6189,-5.7632,-5.8467,-5.972,-6.0707,-6.0479,-6.1277,-6.1998,-6.1998,-6.1504,-6.1542,-6.3023,-6.2415,-6.2302,-6.3744,-6.3934,-6.3934,-6.3934,-6.3099,-6.215,-6.1163,-6.2378,-6.2833,-6.1846,-6.3137,-6.3934,-6.3934,-6.3934,-6.3049,-6.1027,-5.9926,-5.6698,-5.123,-5.0107,-4.7926,-4.4568,-4.4568,-4.4568,-4.4568,-4.4568,-4.4568,-4.4568,-4.4568,-4.4568,-4.4568,-4.4568,-4.4568,-4.4568,-4.4568,-4.4568,-4.4568,-4.4568,-4.4568,-4.4568,-4.4568,-4.4568,-4.4568,-4.4568,-4.4568,-4.4568,-4.4568,-4.4568,-4.4035,-4.198,-4.131,-4.048,-3.6813,-3.5863,-3.489,-3.1201,-2.9157,-2.7363,-2.5331,-2.3676,-2.2992,-2.4497,-2.355,-2.2992,-2.4636,-2.355,-2.355,-2.6564,-2.7118,-2.7055,-2.6775,-2.6743,-2.6696,-2.6417,-2.6402,-2.6402,-2.6402,-2.501,-2.4755,-2.6088,-2.489,-2.4152,-2.4297,-2.4485,-2.3828,-2.2586,-2.2586,-2.2586,-2.2586,-2.2586,-2.2666,-2.2824,-2.2824,-2.2784,-5.1967,-4.9843,-4.8718,-5.0932,-5.2544,-5.3937,0.0,-5.71,-5.8923,-5.7474,-5.8923,-6.0555,-6.0555,-6.1163,-6.177,-6.2074,-6.2229,-6.2188,-6.2609,-6.2647,-6.2453,-6.2381,-6.2264,-6.2264,-6.2264,-6.234,-6.2378,-6.2378,-6.2491,-6.2647,-6.2647,-6.2647,-6.2571,-6.2264,-6.0265,-5.7376,-5.3583,-5.1206,-4.8225,-4.4889,-4.457,-4.4357,-4.449,-4.4409,-4.4568,-4.4568,-4.4568,-4.4568,-4.4568,-4.4568,-4.4568,-4.4568,-4.4568,-4.4568,-4.4568,-4.4568,-4.4542,-4.4357,-4.4357,-4.4305,-4.4386,-4.4386,-4.4386,-4.4253,-4.4331,-4.4253,-4.4307,-4.4227,-4.4149,-4.341,-4.029,-3.9487,-3.857,-3.487,-3.1612,-2.914,-2.8744,-2.601,-2.4775,-2.7916,-2.601,-2.4775,-2.8054,-2.5871,-2.5995,-3.232,-3.3254,-3.3097,-3.2706,-3.2513,-3.2377,-3.1987,-3.1817,-3.1817,-3.1817,-2.9035,-2.8621,-3.1628,-2.8964,-2.7384,-2.7583,-2.76,-2.6156,-2.2929,-2.2929,-2.2666,-2.2389,-2.2389,-2.2402,-2.2441,-2.2441,-2.2099,0.0,0.0,0.0,0.0,0.0,0.0,0.0,-5.4025,-5.5002,-5.466,-5.543,-5.6227,-5.6227,-5.6341,-5.71,-5.9112,-5.9454,-6.0176,-6.2343,-6.2647,-6.2036,-6.0707,-6.0517,-6.0517,-6.0517,-6.1125,-6.1504,-6.1504,-6.215,-6.2647,-6.2647,-6.2647,-6.1922,-6.0555,-6.1374,-5.9522,-5.463,-5.2893,-5.033,-4.6821,-4.4671,-4.3734,-4.3759,-4.4227,-4.4568,-4.4568,-4.4568,-4.4568,-4.4568,-4.4568,-4.4568,-4.4568,-4.4568,-4.4568,-4.4568,-4.4568,-4.4149,-4.3734,-4.3734,-4.3448,-4.3058,-4.3058,-4.3058,-4.3162,-4.3604,-4.311,-4.2614,-4.2928,-4.2409,-4.179,-4.2028,-4.1999,-4.1315,-3.8659,-3.749,-3.6113,-3.2981,-3.1768,-3.1494,-3.2297,-3.1749,-3.1494,-3.2297,-3.1749,-3.1526,-3.2053,-3.2201,-3.2182,-3.2084,-3.2084,-3.2045,-3.1836,-3.1817,-3.1817,-3.1817,-3.1005,-3.0685,-3.1332,-3.0618,-3.0082,-3.0158,-3.0158,-2.8676,-2.5291,-2.5161,-2.3876,-2.1176,-2.1176,-2.1294,-2.1398,-2.1398,-2.1097,0.0,0.0,0.0,0.0,0.0,0.0,0.0,0.0,0.0,0.0,0.0,-5.4405,-5.4405,0.0,-5.6645,-5.7898,-5.8809,-5.9834,-6.1125,-6.1277,-6.0973,-6.0138,-6.0062,-6.0062,-6.0062,-6.0403,-6.0669,-6.0669,-6.1049,-6.1277,-6.1277,-6.0479,-5.9606,-5.8771,-5.9948,-5.854,-5.4236,-5.3243,-5.0929,-4.7461,-4.4522,-4.3162,-4.3162,-4.3448,-4.3578,-4.3578,-4.3578,-4.3578,-4.3578,-4.3578,-4.3759,-4.3915,-4.3058,-4.2747,-4.2695,-4.2409,-4.2305,-4.2253,-4.1994,-4.189,-4.189,-4.189,-4.189,-4.1942,-4.2227,-4.1916,-4.1526,-4.1812,-4.1682,-4.1604,-4.2175,-4.2539,-4.2491,-4.1178,-3.9566,-3.7693,-3.5835,-3.3948,-3.3146,-3.5036,-3.3948,-3.328,-3.5036,-3.6699,-3.7635,-3.7385,-3.7339,-3.7248,-3.6998,-3.6975,-3.6975,-3.6975,-3.6167,-3.5905,-3.6907,-3.594,-3.4832,-3.3657,-3.3467,-3.3359,-3.3001,-3.298,-3.1265,-2.7582,-2.7457,-2.5982,-2.2761,-2.2761,-2.1981,-2.0635,-2.2264,-2.1882,0.0,0.0,0.0,0.0,0.0,0.0,0.0,0.0,0.0,0.0,0.0,0.0,0.0,0.0,0.0,-5.679,-5.8201,-5.9492,-5.9986,-5.9606,-5.9302,-5.9302,-5.9568,-5.9796,-5.9796,-5.9948,-6.0062,-6.0062,-6.0062,-6.0062,-6.0062,-5.8733,-5.7822,-5.7589,-5.8429,-5.7545,-5.4453,-5.3548,-5.1753,-4.8921,-4.522,0.0,-4.3398,-4.2895,-4.2461,-4.2253,-4.2357,-4.2357,-4.2253,-4.2357,-4.2669,-4.2928,-4.1448,-4.0929,-4.0981,-4.0513,-4.0565,-4.0799,-4.0357,-4.0409,-4.0695,-4.0695,-4.0695,-4.0721,-4.0825,-4.0721,0.0,-4.0669,-4.0877,-4.126,-4.1468,-4.1734,-4.2123,-4.2357,-4.0192,-3.799,-3.799,-3.5689,-3.4335,-3.7429,-3.5538,-3.4506,-3.7696,-3.9902,-4.1468,-4.1708,-4.176,-4.1578,-4.126,-4.139,-4.152,-4.152,-4.0357,-4.0176,-4.1572,-4.0202,-3.8491,-3.675,-3.6458,-3.62,-3.5686,-3.5663,-3.3686,-2.952,-2.952,-2.8051,-2.5207,-2.5207,-2.3728,-2.0936,-2.3302,-2.3278,0.0,0.0,0.0,0.0,0.0,0.0,0.0,0.0,0.0,0.0,0.0,0.0,0.0,0.0,0.0,0.0,-5.5582,-5.7442,-5.972,-5.8087,-5.6645,-5.6645,-5.7936,-5.8847,-5.8847,-5.9568,-6.0062,-6.0062,-6.0062,-6.0062,-6.0062,-5.9872,0.0,0.0,0.0,-5.9039,-5.7049,-5.561,-5.4686,-5.4335,-4.8869,-4.5965,-4.5449,-4.3107,-4.1448,-4.0513,-4.1007,-4.0955,-4.0513,-4.1033,-4.1266,-4.124,-4.0565,-4.0591,-4.1033,-4.0955,-4.0669,-4.0279,-4.0202,0.0,0.0,-3.9408,-3.9408,-3.9604,-4.0124,-3.9578,-3.8877,-3.9371,-3.8851,-3.8358,-3.9371,-3.9656,-3.9968,-4.0981,-4.0844,-4.0596,-4.0596,-3.9942,-3.9494,-4.0494,-3.9942,-3.9794,-4.1185,-4.0012,-3.8721,-3.828,-3.8228,-3.8202,-3.8238,-3.9007,-3.963,-3.963,-4.0357,0.0,-4.0409,-3.9734,-3.9134,-3.8908,-3.8447,-3.7936,-3.7487,-3.7461,-3.5348,-3.0748,-3.0726,-2.9573,-2.7255,-2.7255,-2.6211,-2.4157,-2.3695,-2.4132,0.0,0.0,0.0,0.0,0.0,0.0,0.0,0.0,0.0,0.0,0.0,0.0,0.0,0.0,0.0,0.0,-5.338,-5.5164,-5.6265,-5.5468,-5.4974,-5.543,-5.6113,-5.6531,-5.6531,-5.7328,-5.8011,-5.8505,-5.8999,-5.9264,-5.9264,-5.8353,-5.7252,-5.6075,-5.6721,-5.6759,-5.6037,-5.4521,-5.3663,-5.3698,-4.9495,-4.7396,-4.7003,-4.4298,-4.273,-4.2141,-4.0633,-3.9916,-3.9708,-3.9942,-4.0228,-4.0435,0.0,0.0,0.0,0.0,-3.8929,-3.8669,-3.8332,-3.828,-3.8358,-3.8358,-3.8358,-3.841,-3.8643,-3.8384,-3.8046,-3.828,-3.8254,-3.8254,-3.8721,-3.9085,-3.933,-3.9942,-4.0046,-4.0046,-4.0046,-3.9864,-3.976,-3.9994,-3.9838,0.0,-3.9007,-3.8124,-3.7527,-3.7743,-3.7916,-3.815,-3.815,-3.8825,-3.9448,-3.9786,-3.9371,-3.9371,-4.0124,-3.9059,0.0,0.0,0.0,-3.8877,-3.8643,-3.8306,0.0,0.0,0.0,-3.193,-2.925,-2.8234,0.0,0.0,-2.6444,-2.5165,0.0,0.0,0.0,0.0,0.0,0.0,0.0,0.0,0.0,0.0,0.0,0.0,0.0,0.0,0.0,0.0,-5.1216,-5.2498,-5.2625,-5.2673,-5.3076,-5.3873,-5.4367,-5.4746,-5.4974,-5.5544,-5.6151,-5.6759,-5.7328,-5.767,-5.767,-5.6531,-5.5696,-5.5354,-5.5316,-5.543,-5.5658,-5.4637,-5.3974,-5.3974,-5.079,-4.923,-4.9034,-4.6016,-4.4469,-4.4028,-4.1263,-3.9879,-3.9746,-3.9148,-3.9111,-3.9489,-3.901,-3.8842,-3.8842,-3.7969,-3.7553,-3.7319,-3.6748,-3.6825,-3.7189,-3.7189,-3.7189,-3.7189,-3.7189,-3.7189,-3.7189,-3.7189,-3.7475,-3.7812,-3.7968,-3.8332,-3.8669,-3.8825,-3.8747,-3.8502,-3.8502,-3.8269,-3.8087,-3.8358,-3.841,-3.7942,-3.6566,-3.6436,-3.6644,-3.6903,-3.7423,-3.7786,-3.7786,-3.8436,-3.9033,-3.9448,-3.8669,-3.854,-3.963,-3.8551,-3.7994,-3.8825,-3.8721,-3.8502,-3.8502,-3.7942,-3.7267,-3.6696,-3.5163,-3.3424,0.0,0.0,0.0,0.0,0.0,0.0,0.0,0.0,0.0,0.0,0.0,0.0,0.0,0.0,0.0,0.0,0.0,0.0,0.0,0.0,0.0,0.0,0.0,0.0,-4.9498,-4.9837,-5.0456,-5.133,-5.281,-5.4139,-5.4936,-5.5012,-5.505,-5.5088,-5.5088,-5.5126,-5.5126,-5.505,-5.5392,-5.6151,-5.6189,-5.6569,-5.7404,-5.7442,-5.7371,-5.7371,-5.4084,-5.2226,-5.1638,-4.8536,-4.644,-4.5301,-4.2932,-4.1559,-4.082,-3.8654,-3.7821,-3.8047,-4.0797,-4.1849,-4.1517,-3.8729,-3.7293,-3.6722,-3.6176,-3.5968,-3.5994,-3.5994,-3.5994,-3.5994,-3.5994,-3.5994,-3.5994,-3.5994,-3.5994,-3.615,-3.6696,-3.6851,-3.7007,-3.7579,-3.7267,-3.6851,-3.6851,-3.5887,-3.5265,-3.5943,-3.6046,-3.5865,-3.5136,-3.5605,-3.5787,-3.5136,-3.5657,0.0,-3.602,-3.7007,-3.7821,-3.7848,-3.8643,-3.9085,-3.8591,-3.7994,-3.7769,-3.7708,-3.7163,-3.6851,-3.6851,-3.5679,-3.4904,-3.4306,-3.3138,-3.3271,-3.4849,0.0,0.0,0.0,0.0,0.0,0.0,0.0,0.0,0.0,0.0,0.0,0.0,0.0,0.0,0.0,0.0,0.0,0.0,0.0,0.0,0.0,0.0,0.0,0.0,-5.0041,-5.0475,-5.0456,-5.1707,-5.2342,-5.1731,-5.2993,-5.3518,-5.2606,-5.3569,-5.4177,-5.4177,-5.4177,-5.4063,-5.3759,-5.3759,-5.3911,-5.4177,-5.4177,-5.4177,-5.4177,-5.3672,-5.3366,-5.3107,-5.0697,-4.9312,-4.8869,-4.5993,-4.466,-4.4443,-4.3739,-4.2772,-4.1779,-4.2707,-4.3132,-4.2813,-4.0094,-3.9013,-3.8468,-3.6641,-3.5943,-3.5943,-3.5943,-3.5943,-3.5943,-3.5943,-3.5943,-3.5943,-3.5943,-3.5943,-3.5994,-3.6176,-3.6228,-3.628,-3.6488,-3.6358,-3.6228,-3.6228,-3.5917,-3.5709,-3.5917,-3.5008,-3.4764,-3.6042,-3.5734,-3.6293,-3.9269,-3.9541,-4.0066,-4.1993,-4.2959,-4.3391,-4.3391,-4.3671,-4.3851,-4.3641,-4.3012,-4.2652,-4.2652,-4.1809,-4.1345,-4.1345,-3.9351,-3.8092,-3.7973,-3.587,-3.4125,-3.28,0.0,0.0,0.0,0.0,0.0,0.0,0.0,0.0,0.0,0.0,0.0,0.0,0.0,0.0,0.0,0.0,0.0,0.0,0.0,0.0,0.0,0.0,0.0,0.0,0.0,0.0,-4.9504,-5.1037,0.0,-5.1201,-5.2957,-5.3564,-5.233,-5.3218,-5.3589,-5.3168,-5.311,-5.2856,-5.2089,-5.2089,-5.2203,-5.2506,-5.2506,-5.2506,-5.2506,-5.3076,-5.3342,-5.3342,-5.1957,-5.1314,-5.121,-4.8215,-4.6949,-4.7055,-4.8005,-4.788,-4.6789,-4.5365,-4.4858,-4.4519,-4.1498,-4.0481,-4.0304,-3.8571,-3.8077,-3.8182,-3.8182,-3.7937,-3.7609,-3.7385,-3.7329,-3.7124,-3.6224,-3.6179,-3.6186,-3.5452,-3.5475,-3.5683,-3.5891,-3.5787,-3.5631,-3.5631,-3.5293,-3.527,-3.5864,-3.4911,-3.4745,-3.7006,-3.6933,-3.7492,-4.0208,-4.0967,-4.184,-4.371,-4.4779,-4.5354,-4.5354,-4.5354,-4.5354,-4.5354,-4.4939,-4.4579,-4.4579,-4.406,-4.371,-4.3456,-4.0974,-3.9918,-4.0717,-3.6725,-3.4293,0.0,0.0,0.0,0.0,0.0,0.0,0.0,0.0,0.0,0.0,0.0,0.0,0.0,0.0,0.0,0.0,0.0,0.0,0.0,0.0,0.0,0.0,0.0,0.0,0.0,0.0,0.0,-4.8657,-5.0934,0.0,0.0,0.0,0.0,-5.367,-5.3713,-5.3203,-5.1969,-5.1961,-5.1811,-5.1315,-5.1333,-5.1617,-5.2317,-5.2355,-5.2393,-5.2393,-5.2431,-5.2431,-5.2468,-5.2506,-5.2506,-5.2308,-4.9597,-4.8451,-4.8653,-5.1226,-5.2317,-5.1944,-4.8357,-4.6918,-4.642,-4.2822,-4.1679,-4.1843,-4.1647,-4.1713,-4.204,-4.2072,-4.1395,-4.0595,-3.9894,-3.9578,0.0,0.0,-3.6516,-3.6536,-3.4905,-3.4669,-3.5165,-3.5844,-3.5345,-3.4851,-3.4851,-3.4047,-3.3878,-3.5805,-3.5741,-3.6018,-3.8009,0.0,-3.8951,-3.835,-4.015,-4.1708,-4.1806,-4.322,-4.422,-4.422,-4.422,-4.422,-4.422,-4.4188,-4.4156,-4.4156,-4.402,-4.3835,-4.3363,-4.0795,-4.036,-4.2202,-3.6096,0.0,0.0,0.0,0.0,0.0,0.0,0.0,0.0,0.0,0.0,0.0,0.0,0.0,0.0,0.0,0.0,0.0,0.0,0.0,0.0,0.0,0.0,0.0,0.0,0.0,0.0,-5.2006,-5.1715,-5.1381,-5.2795,-5.3146,0.0,0.0,0.0,0.0,0.0,0.0,-5.2226,-5.2991,-5.2544,-5.0904,-5.1452,-5.1103,-4.9791,-5.0342,-5.055,-5.0588,-5.1292,-5.1595,-5.1633,-5.2241,-5.2506,-5.2407,-5.1673,-5.1374,-5.1325,-5.017,-4.9697,-4.9659,-4.8682,-4.7917,-4.6954,-4.4015,-4.2672,-4.192,-3.9913,-3.9262,-3.9451,-4.0054,-3.9673,-3.9072,-3.9514,0.0,0.0,0.0,0.0,-3.7156,-3.7238,-3.6052,-3.505,-3.5734,-3.4506,-3.3138,-3.3138,-3.2566,-3.3469,-3.7885,-3.8235,-3.8152,-3.9293,-3.8738,0.0,-4.265,-4.3899,-4.5359,-4.7453,-4.9218,-5.0236,-5.0236,-5.0236,-5.0236,-5.0236,-4.9691,-4.9363,-4.9363,-4.8684,-4.8284,-4.8163,-4.567,-4.3953,-4.3233,0.0,0.0,0.0,0.0,0.0,0.0,0.0,0.0,0.0,0.0,0.0,0.0,0.0,0.0,0.0,0.0,0.0,0.0,0.0,0.0,0.0,0.0,0.0,0.0,0.0,0.0,0.0,-5.111,-5.1095,-5.0991,-5.2633,-5.3173,0.0,0.0,0.0,0.0,0.0,0.0,0.0,0.0,0.0,-5.0793,-5.1624,-5.1561,-5.0377,-5.0578,-5.0786,-5.0825,-5.0779,-5.0722,-5.076,-5.1216,-5.1346,-5.1308,-5.1026,-5.0989,-5.0982,-4.9537,-4.9534,-5.0121,0.0,0.0,0.0,0.0,-4.3029,-4.2783,-4.1234,-4.0915,-4.1224,-4.1759,0.0,0.0,0.0,0.0,0.0,0.0,0.0,-3.8671,-3.811,-3.7401,-3.7021,-3.7476,-3.6316,-3.5214,-3.5948,-3.4425,-3.4179,-3.8438,-3.8804,-3.881,-4.0186,-3.9837,0.0,0.0,0.0,-4.5908,-4.7528,-4.983,-5.1346,-5.1346,-5.1346,-5.1346,-5.1346,-5.0988,-5.0722,-5.0722,-5.0209,-4.9603,-4.8845,-4.738,-4.5667,0.0,0.0,0.0,0.0,0.0,0.0,0.0,0.0,0.0,0.0,0.0,0.0,0.0,0.0,0.0,0.0,0.0,0.0,0.0,0.0,0.0,0.0,0.0,0.0,0.0,0.0,0.0,0.0,0.0,-4.84,-4.9958,0.0,0.0,0.0,0.0,0.0,0.0,0.0,0.0,0.0,0.0,0.0,0.0,0.0,-5.2278,-5.2162,-5.1829,-5.1779,-5.1691,-5.0592,-5.0061,-5.0061,-5.0061,-4.9875,-4.969,-4.9367,0.0,-4.9739,-4.9532,0.0,0.0,0.0,0.0,0.0,0.0,0.0,0.0,0.0,0.0,0.0,0.0,0.0,0.0,0.0,0.0,0.0,0.0,0.0,0.0,0.0,0.0,-3.9402,-3.9499,-3.8684,-3.8497,-4.074,-3.8246,-3.6382,-3.8906,-3.9006,-3.9225,0.0,0.0,0.0,0.0,0.0,0.0,-4.4904,-4.7822,-4.9944,-4.9944,-4.9944,-4.9944,-4.9944,-4.9944,-4.9944,-4.9944,-4.9717,-4.8921,-4.7533,-4.7304,0.0,0.0,0.0,0.0,0.0,0.0,0.0,0.0,0.0,0.0,0.0,0.0,0.0,0.0,0.0,0.0,0.0,0.0,0.0,0.0,0.0,0.0,0.0,0.0,0.0,0.0,0.0,0.0,0.0,0.0,0.0,0.0,0.0,0.0,0.0,0.0,0.0,0.0,0.0,0.0,0.0,0.0,0.0,0.0,0.0,0.0,0.0,0.0,0.0,0.0,-5.0707,-5.0625,-5.0625,-5.0625,-4.9708,-4.8312,-5.0835,-5.1928,-5.1711,-5.1025,0.0,0.0,0.0,0.0,0.0,0.0,0.0,0.0,0.0,0.0,0.0,0.0,0.0,0.0,0.0,0.0,0.0,0.0,0.0,0.0,0.0,0.0,-3.8224,-3.884,-3.7441,-3.7266,-4.2112,0.0,0.0,0.0,0.0,0.0,0.0,0.0,0.0,0.0,0.0,0.0,-4.4904,-4.7822,-4.9944,-4.9944,-4.9944,-4.9944,-4.9944,-4.9944,-4.9944,-4.9944,-4.8618,-4.7761,0.0,0.0,0.0,0.0,0.0,0.0,0.0,0.0,0.0,0.0,0.0,0.0,0.0,0.0,0.0,0.0,0.0,0.0,0.0,0.0,0.0,0.0,0.0,0.0,0.0,0.0,0.0,0.0,0.0,0.0,0.0,0.0,0.0,0.0,0.0,0.0,0.0,0.0,0.0,0.0,0.0,0.0,0.0,0.0,0.0,0.0,0.0,0.0,0.0,0.0,0.0,0.0,0.0,0.0,0.0,0.0,0.0,0.0,-5.1098,-5.1179,0.0,0.0,0.0,0.0,0.0,0.0,0.0,0.0,0.0,0.0,0.0,0.0,0.0,0.0,0.0,0.0,0.0,0.0,0.0,0.0,0.0,0.0,0.0,0.0,0.0,0.0,0.0,0.0,0.0,0.0,0.0,0.0,0.0,0.0,0.0,0.0,0.0,0.0,0.0,0.0,-4.4989,-4.7951,-4.9944,-4.9944,-4.9944,-4.9944,-4.9944,-4.9944,-4.9565,-4.8656,-4.83,0.0,0.0,0.0,0.0,0.0,0.0,0.0,0.0,0.0,0.0,0.0,0.0,0.0,0.0,0.0,0.0,0.0,0.0,0.0,0.0,0.0,0.0,0.0,0.0,0.0,0.0,0.0,0.0,0.0,0.0,0.0,0.0,0.0,0.0,0.0,0.0,0.0,0.0,0.0,0.0,0.0,0.0,0.0,0.0,0.0,0.0,0.0,0.0,0.0,0.0,0.0,0.0,0.0,0.0,0.0,0.0,0.0,0.0,0.0,-5.1769,-5.0791,0.0,0.0,0.0,0.0,0.0,0.0,0.0,0.0,0.0,0.0,0.0,0.0,0.0,0.0,0.0,0.0,0.0,0.0,0.0,0.0,0.0,0.0,0.0,0.0,0.0,0.0,0.0,0.0,0.0,0.0,0.0,0.0,0.0,0.0,0.0,0.0,0.0,0.0,0.0,0.0,-4.6471,-4.9404,-5.1465,-5.1465,-5.1465,-5.1278,-5.0755,-5.0755,-4.9853,-4.784,-4.8025,0.0,0.0,0.0,0.0,0.0,0.0,0.0,0.0,0.0,0.0,0.0,0.0,0.0,0.0,0.0,0.0,0.0,0.0,0.0,0.0,0.0,0.0,0.0,0.0,0.0,0.0,0.0,0.0,0.0,0.0,0.0,0.0,0.0,0.0,0.0,0.0,0.0,0.0,0.0,0.0,0.0,0.0,0.0,0.0,0.0,0.0,0.0,0.0,0.0,0.0,0.0,0.0,0.0,0.0,0.0,0.0,0.0,0.0,0.0,0.0,0.0,0.0,0.0,0.0,0.0,0.0,0.0,0.0,0.0,0.0,0.0,0.0,0.0,0.0,0.0,0.0,0.0,0.0,0.0,0.0,0.0,0.0,0.0,0.0,0.0,0.0,0.0,0.0,0.0,0.0,0.0,0.0,0.0,0.0,0.0,0.0,0.0,0.0,0.0,0.0,0.0,-5.0916,-5.419,-5.6469,-5.6469,-5.6469,-5.566,-5.3517,-5.3281,-5.1966,-4.8866,0.0,0.0,0.0,0.0,0.0,0.0,0.0,0.0,0.0,0.0,0.0,0.0,0.0,0.0,0.0,0.0,0.0,0.0,0.0,0.0,0.0,0.0,0.0,0.0,0.0,0.0,0.0,0.0,0.0,0.0,0.0,0.0,0.0,0.0,0.0,0.0,0.0,0.0,0.0,0.0,0.0,0.0,0.0,0.0,0.0,0.0,0.0,0.0,0.0,0.0,0.0,0.0,0.0,0.0,0.0,0.0,0.0,0.0,0.0,0.0,0.0,0.0,0.0,0.0,0.0,0.0,0.0,0.0,0.0,0.0,0.0,0.0,0.0,0.0,0.0,0.0,0.0,0.0,0.0,0.0,0.0,0.0,0.0,0.0,0.0,0.0,0.0,0.0,0.0,0.0,0.0,0.0,0.0,0.0,0.0,0.0,0.0,0.0,0.0,0.0,0.0,0.0,-5.0486,-5.4356,-5.7141,-5.7141,-5.7141,-5.6827,-5.584,-5.5151,-5.3284,-4.9574,0.0,0.0,0.0,0.0,0.0,0.0,0.0,0.0,0.0,0.0,0.0,0.0,0.0,0.0,0.0,0.0,0.0,0.0,0.0,0.0,0.0,0.0,0.0,0.0,0.0,0.0,0.0,0.0,0.0,0.0,0.0,0.0,0.0,0.0,0.0,0.0,0.0,0.0,0.0,0.0,0.0,0.0,0.0,0.0,0.0,0.0,0.0,0.0,0.0,0.0,0.0,0.0,0.0,0.0,0.0,0.0,0.0,0.0,0.0,0.0,0.0,0.0,0.0,0.0,0.0,0.0,0.0,0.0,0.0,0.0,0.0,0.0,0.0,0.0,0.0,0.0,0.0,0.0,0.0,0.0,0.0,0.0,0.0,0.0,0.0,0.0,0.0,0.0,0.0,0.0,0.0,0.0,0.0,0.0,0.0,0.0,0.0,0.0,0.0,0.0,0.0,0.0,-5.1621,-5.6103,-5.9302,-5.9302,-5.8944,-5.8503,-5.7805,-5.6745,-5.4274,-4.9926,0.0,0.0,0.0,0.0,0.0,0.0,0.0,0.0,0.0,0.0,0.0,0.0,0.0,0.0,0.0,0.0,0.0,0.0,0.0,0.0,0.0,0.0,0.0,0.0,0.0,0.0,0.0,0.0,0.0,0.0,0.0,0.0,0.0,0.0,0.0,0.0,0.0,0.0,0.0,0.0,0.0,0.0,0.0,0.0,0.0,0.0,0.0,0.0,0.0,0.0,0.0,0.0,0.0,0.0,0.0,0.0,0.0,0.0,0.0,0.0,0.0,0.0,0.0,0.0,0.0,0.0,0.0,0.0,0.0,0.0,0.0,0.0,0.0,0.0,0.0,0.0,0.0,0.0,0.0,0.0,0.0,0.0,0.0,0.0,0.0,0.0,0.0,0.0,0.0,0.0,0.0,0.0,0.0,0.0,0.0,0.0,0.0,0.0,0.0,0.0,0.0,0.0,-5.608,-6.0881,-6.428,-6.428,-6.3221,-6.159,-5.9251,-5.8077,-5.5199,0.0,0.0,0.0,0.0,0.0,0.0,0.0,0.0,0.0,0.0,0.0,0.0,0.0,0.0,0.0,0.0,0.0,0.0,0.0,0.0,0.0,0.0,0.0,0.0,0.0,0.0,0.0,0.0,0.0,0.0,0.0,0.0,0.0,0.0,0.0,0.0,0.0,0.0,0.0,0.0,0.0,0.0,0.0,0.0,0.0,0.0,0.0,0.0,0.0,0.0,0.0,0.0,0.0,0.0,0.0,0.0,0.0,0.0,0.0,0.0,0.0,0.0,0.0,0.0,0.0,0.0,0.0,0.0,0.0,0.0,0.0,0.0,0.0,0.0,0.0,0.0,0.0,0.0,0.0,0.0,0.0,0.0,0.0,0.0,0.0,0.0,0.0,0.0,0.0,0.0,0.0,0.0,0.0,0.0,0.0,0.0,0.0,0.0,0.0,0.0,0.0,0.0,0.0,-5.403,-5.8716,-6.2035,-6.2035,-6.1742,-6.1257,-6.0533,-5.9493,-5.6874,-5.2204,0.0,0.0,0.0,0.0,0.0,0.0,0.0,0.0,0.0,0.0,0.0,0.0,0.0,0.0,0.0,0.0,0.0,0.0,0.0,0.0,0.0,0.0,0.0,0.0,0.0,0.0,0.0,0.0,0.0,0.0,0.0,0.0,0.0,0.0,0.0,0.0,0.0,0.0,0.0,0.0,0.0,0.0,0.0,0.0,0.0,0.0,0.0,0.0,0.0,0.0,0.0,0.0,0.0,0.0,0.0,0.0,0.0,0.0,0.0,0.0,0.0,0.0,0.0,0.0,0.0,0.0,0.0,0.0,0.0,0.0,0.0,0.0,0.0,0.0,0.0,0.0,0.0,0.0,0.0,0.0,0.0,0.0,0.0,0.0,0.0,0.0,0.0,0.0,0.0,0.0,0.0,0.0,0.0,0.0,0.0,0.0,0.0,0.0,0.0,0.0,0.0,0.0,0.0,-5.7007,-6.0131,-6.0961,-6.0668,-6.0473,-6.0473,-5.9497,-5.7056,-5.2781,0.0,0.0,0.0,0.0,0.0,0.0,0.0,0.0,0.0,0.0,0.0,0.0,0.0,0.0,0.0,0.0,0.0,0.0,0.0,0.0,0.0,0.0,0.0,0.0,0.0,0.0,0.0,0.0,0.0,0.0,0.0,0.0,0.0,0.0,0.0,0.0,0.0,0.0,0.0,0.0,0.0,0.0,0.0,0.0,0.0,0.0,0.0,0.0,0.0,0.0,0.0,0.0,0.0,0.0,0.0,0.0,0.0,0.0,0.0,0.0,0.0,0.0,0.0,0.0,0.0,0.0,0.0,0.0,0.0,0.0,0.0,0.0,0.0,0.0,0.0,0.0,0.0,0.0,0.0,0.0,0.0,0.0,0.0,0.0,0.0,0.0,0.0,0.0,0.0,0.0,0.0,0.0,0.0,0.0,0.0,0.0,0.0,0.0,0.0,0.0,0.0,0.0,0.0,-5.5836,-5.8743,-6.0806,-6.0169,-5.9504,-5.9504,-5.8699,-5.6249,-5.1754,-5.151,0.0,0.0,0.0,0.0,0.0,0.0,0.0,0.0,0.0,0.0,0.0,0.0,0.0,0.0,0.0,0.0,0.0,0.0,0.0,0.0,0.0,0.0,0.0,0.0,0.0,0.0,0.0,0.0,0.0,0.0,0.0,0.0,0.0,0.0,0.0,0.0,0.0,0.0,0.0,0.0,0.0,0.0,0.0,0.0,0.0,0.0,0.0,0.0,0.0,0.0,0.0,0.0,0.0,0.0,0.0,0.0,0.0,0.0,0.0,0.0,0.0,0.0,0.0,0.0,0.0,0.0,0.0,0.0,0.0,0.0,0.0,0.0,0.0,0.0,0.0,0.0,0.0,0.0,0.0,0.0,0.0,0.0,0.0,0.0,0.0,0.0,0.0,0.0,0.0,0.0,0.0,0.0,0.0,0.0,0.0,0.0,0.0,0.0,0.0,0.0,0.0,0.0,-5.5397,-5.8634,-6.0545,-6.054,-6.0388,-6.0388,-6.0134,-5.7588,-5.1889,-5.151,0.0,0.0,0.0,0.0,0.0,0.0,0.0,0.0,0.0,0.0,0.0,0.0,0.0,0.0,0.0,0.0,0.0,0.0,0.0,0.0,0.0,0.0,0.0,0.0,0.0,0.0,0.0,0.0,0.0,0.0,0.0,0.0,0.0,0.0,0.0,0.0,0.0,0.0,0.0,0.0,0.0,0.0,0.0,0.0,0.0,0.0,0.0,0.0,0.0,0.0,0.0,0.0,0.0,0.0,0.0,0.0,0.0,0.0,0.0,0.0,0.0,0.0,0.0,0.0,0.0,0.0,0.0,0.0,0.0,0.0,0.0,0.0,0.0,0.0,0.0,0.0,0.0,0.0,0.0,0.0,0.0,0.0,0.0,0.0,0.0,0.0,0.0,0.0,0.0,0.0,0.0,0.0,0.0,0.0,0.0,0.0,0.0,0.0,0.0,0.0,0.0,0.0,-5.2698,-5.6432,-6.0234,-6.1372,-6.1586,-6.0728,-6.0656,-5.8265,-5.2837,-5.1368,0.0,0.0,0.0,0.0,0.0,0.0,0.0,0.0,0.0,0.0,0.0,0.0,0.0,0.0,0.0,0.0,0.0,0.0,0.0,0.0,0.0,0.0,0.0,0.0,0.0,0.0,0.0,0.0,0.0,0.0,0.0,0.0,0.0,0.0,0.0,0.0,0.0,0.0,0.0,0.0,0.0,0.0,0.0,0.0,0.0,0.0,0.0,0.0,0.0,0.0,0.0,0.0,0.0,0.0,0.0,0.0,0.0,0.0,0.0,0.0,0.0,0.0,0.0,0.0,0.0,0.0,0.0,0.0,0.0,0.0,0.0,0.0,0.0,0.0,0.0,0.0,0.0,0.0,0.0,0.0,0.0,0.0,0.0,0.0,0.0,0.0,0.0,0.0,0.0,0.0,0.0,0.0,0.0,0.0,0.0,0.0,0.0,0.0,0.0,0.0,0.0,0.0,0.0,-5.3399,-5.9821,-6.2449,-6.3009,-6.123,-6.1086,-5.8722,-5.3385,0.0,0.0,0.0,0.0,0.0,0.0,0.0,0.0,0.0,0.0,0.0,0.0,0.0,0.0,0.0,0.0,0.0,0.0,0.0,0.0,0.0,0.0,0.0,0.0,0.0,0.0,0.0,0.0,0.0,0.0,0.0,0.0,0.0,0.0,0.0,0.0,0.0,0.0,0.0,0.0,0.0,0.0,0.0,0.0,0.0,0.0,0.0,0.0,0.0,0.0,0.0,0.0,0.0,0.0,0.0,0.0,0.0,0.0,0.0,0.0,0.0,0.0,0.0,0.0,0.0,0.0,0.0,0.0,0.0,0.0,0.0,0.0,0.0,0.0,0.0,0.0,0.0,0.0,0.0,0.0,0.0,0.0,0.0,0.0,0.0,0.0,0.0,0.0,0.0,0.0,0.0,0.0,0.0,0.0,0.0,0.0,0.0,0.0,0.0,0.0,0.0,0.0,0.0,0.0,-5.1553,-5.8865,-6.325,-6.4913,-6.3079,-6.294,-5.9324,-5.0907,0.0,0.0,0.0,0.0,0.0,0.0,0.0,0.0,0.0,0.0,0.0,0.0,0.0,0.0]}],[{"header":{"parameterUnit":"kt","parameterCategory":2,"dx":1,"dy":1,"la1":29.285339999999998,"la2":30.599998999999997,"lo1":-89.70041500000002,"lo2":-87.6738589999976,"nx":112,"ny":82,"refTime":"2022-10-18T12:00:00:Z","depth":0,"parameterNumber":2,"parameterNumberName":"V-component_of_WINDS"},"data":[10.1439,10.2747,10.2696,9.8429,9.5486,9.2089,8.6431,8.0278,7.5547,7.4518,7.4294,7.4056,7.3239,7.2617,7.1829,0.0,0.0,0.0,0.0,7.1957,0.0,0.0,0.0,0.0,0.0,0.0,0.0,0.0,0.0,0.0,0.0,11.5804,12.2583,12.3653,12.879,13.1573,13.1573,13.1573,13.1573,13.1573,13.1573,13.2715,13.4784,13.5783,13.7424,13.9493,14.0492,14.092,14.092,14.092,14.092,14.092,14.092,14.092,14.092,14.092,14.1436,14.2386,14.3895,14.586,14.7761,14.7761,14.7761,14.7761,14.7761,14.7761,14.7611,14.7013,14.7237,14.7611,14.7013,14.7312,14.7761,14.7761,14.7761,14.7761,14.7761,14.7761,14.7761,14.7761,14.7761,14.7761,14.7761,14.7761,14.7761,14.7761,14.7761,14.7761,14.7761,14.7761,14.7761,14.7761,14.7761,14.7761,14.7761,14.7761,14.7761,14.7761,14.8434,14.8864,14.8864,14.9667,15.004,15.004,15.004,15.004,15.004,15.004,15.004,15.004,15.004,15.004,9.4103,9.5327,9.5278,9.1066,8.806,8.499,8.053,7.4535,6.9837,6.9369,6.9188,6.9209,6.9156,6.92,6.9331,0.0,0.0,0.0,0.0,7.3979,7.665,0.0,0.0,0.0,0.0,0.0,0.0,0.0,10.7599,0.0,11.1238,12.0228,12.5794,12.6935,12.9932,13.1573,13.1573,13.1573,13.1573,13.1573,13.1573,13.2429,13.3999,13.4998,13.6639,13.8653,13.9707,14.0492,14.092,14.092,14.092,14.092,14.092,14.092,14.092,14.092,14.1181,14.179,14.3762,14.586,14.7761,14.7761,14.7761,14.7761,14.7761,14.7761,14.7761,14.7761,14.7761,14.7761,14.7761,14.7761,14.7761,14.7761,14.7761,14.7761,14.7761,14.7761,14.7761,14.7761,14.7761,14.7761,14.7761,14.7761,14.7761,14.7761,14.7761,14.7761,14.7761,14.7761,14.7761,14.7761,14.7761,14.7761,14.7761,14.7761,14.7761,14.7761,14.8434,14.8864,14.8864,14.9667,15.004,15.004,15.004,15.004,15.004,15.004,15.004,15.004,15.004,15.004,8.6669,8.5462,8.4226,7.8698,7.7263,7.6293,7.2556,7.159,7.1019,6.9529,6.92,6.92,6.9266,6.9309,6.9699,7.0719,7.2216,0.0,0.0,7.6166,7.9179,8.4525,9.2009,0.0,0.0,10.61,11.0524,0.0,11.9301,12.3796,12.2226,12.8148,13.1573,13.1573,13.1573,13.1573,13.1573,13.1573,13.1573,13.1573,13.1573,13.2358,13.3856,13.3928,13.5569,13.8439,13.8511,13.9493,14.0849,14.092,14.092,14.092,14.092,14.092,14.092,14.092,14.1632,14.2856,14.4027,14.586,14.7657,14.7686,14.7761,14.7761,14.7761,14.7761,14.7761,14.7761,14.7761,14.7761,14.7761,14.7761,14.7761,14.7761,14.7761,14.7761,14.7761,14.7761,14.7761,14.7761,14.7761,14.7761,14.7761,14.7761,14.7761,14.7761,14.7761,14.7761,14.7761,14.7761,14.7761,14.7761,14.7761,14.7761,14.7761,14.7761,14.7761,14.7761,14.8434,14.8864,14.8864,14.9667,15.004,15.004,15.004,15.004,15.004,15.004,15.004,15.004,15.004,15.004,7.894,8.0466,8.1238,7.9662,7.9313,7.8698,7.6643,7.286,6.977,6.9266,6.92,0.0,0.0,0.0,7.2491,7.3792,0.0,7.6227,7.723,7.9611,8.5533,9.6884,10.1177,10.5601,11.1737,11.1166,11.2308,11.6875,12.0656,12.2583,12.2035,12.8148,13.1573,13.1573,13.1573,13.1573,13.1573,13.1573,13.1573,13.1573,13.1573,13.1787,13.2287,13.3428,13.4427,13.5355,13.7583,13.8851,13.9351,14.0492,14.092,14.092,14.092,14.092,14.092,14.092,14.1632,14.2856,14.4027,14.534,14.6623,14.7438,14.7761,14.7761,14.7761,14.7761,14.7761,14.7761,14.7761,14.7761,14.7761,14.7761,14.7761,14.7761,14.7761,14.7761,14.7761,14.7761,14.7761,14.7761,14.7761,14.7761,14.7761,14.7761,14.7761,14.7761,14.7761,14.7761,14.7761,14.7761,14.7761,14.7761,14.7761,14.7761,14.7761,14.7761,14.7761,14.7761,14.8434,14.8864,14.8864,14.9667,15.004,15.004,15.004,15.004,15.004,15.004,15.004,15.004,15.004,15.004,7.3258,7.4589,7.5495,7.5548,7.5509,7.5293,7.4439,7.1677,6.9506,7.0619,0.0,0.0,0.0,0.0,0.0,0.0,7.8193,8.0552,8.347,8.6621,9.1877,10.0455,10.5173,10.9454,11.4021,11.5662,11.8444,12.3368,12.5794,12.6793,12.6079,12.9575,13.1573,13.1573,13.1573,13.1573,13.1573,13.1573,13.1573,13.1573,13.1573,13.1573,13.1645,13.2501,13.3642,13.4998,13.6853,13.8352,13.9636,14.0564,14.092,14.092,14.092,14.092,14.092,14.092,14.1632,14.2856,14.4027,14.5146,14.6213,14.7349,14.7761,14.7761,14.7761,14.7761,14.7761,14.7761,14.7761,14.7761,14.7761,14.7761,14.7761,14.7761,14.7761,14.7761,14.7761,14.7761,14.7761,14.7761,14.7761,14.7761,14.7761,14.7761,14.7761,14.7761,14.7761,14.7761,14.7761,14.7761,14.7761,14.7761,14.7761,14.7761,14.7761,14.7761,14.7761,14.7761,14.8135,14.8548,14.885,14.9667,15.004,15.004,15.004,15.004,15.004,15.004,15.004,15.004,15.004,15.004,6.9568,6.9195,6.924,6.9198,6.9287,6.9417,6.9615,0.0,7.1345,7.3782,0.0,7.5782,7.7872,0.0,0.0,8.0006,8.265,8.6332,9.1398,9.5968,9.9536,10.1677,10.8098,11.2308,11.2308,12.0085,12.6364,12.929,13.2073,13.3072,13.1645,13.1573,13.1573,13.1573,13.1573,13.1573,13.1573,13.1573,13.1573,13.1573,13.1573,13.1573,13.1573,13.1573,13.3072,13.5712,13.5926,13.7638,14.0421,14.0635,14.0778,14.092,14.092,14.092,14.092,14.092,14.1632,14.2856,14.4027,14.5146,14.6213,14.7349,14.7761,14.7761,14.7761,14.7761,14.7761,14.7761,14.7761,14.7761,14.7761,14.7761,14.7761,14.7761,14.7761,14.7761,14.7761,14.7761,14.7761,14.7761,14.7761,14.7761,14.7761,14.7761,14.7761,14.7761,14.7761,14.7761,14.7761,14.7761,14.7761,14.7761,14.7761,14.7761,14.7761,14.7761,14.7761,14.7761,14.7761,14.8092,14.8835,14.9558,14.9961,15.004,15.004,15.004,15.004,15.004,15.004,15.004,15.004,15.004,6.9304,6.9199,6.9219,6.9222,6.9822,7.0798,0.0,0.0,0.0,8.1452,8.4902,8.7266,8.6411,8.6985,8.8501,9.115,9.2817,9.4248,9.5326,10.5815,11.5376,12.087,12.2868,12.3796,12.3796,12.6579,12.9147,13.1002,13.1716,13.1859,13.1625,13.1573,13.1573,13.1573,13.1573,13.1573,13.1573,13.1573,13.1573,13.1573,13.1573,13.1573,13.1573,13.1573,13.1982,13.2572,13.3856,13.5426,13.7281,13.8566,13.9779,14.092,14.092,14.092,14.092,14.092,14.1632,14.2856,14.4027,14.5146,14.6213,14.7349,14.7761,14.7761,14.7761,14.7761,14.7761,14.7761,14.7761,14.7761,14.7761,14.7761,14.7761,14.7761,14.7761,14.7761,14.7761,14.7761,14.7761,14.7761,14.7761,14.7761,14.7761,14.7761,14.7761,14.7761,14.7761,14.7761,14.7761,14.7761,14.7761,14.7761,14.7761,14.7761,14.7761,14.7761,14.7761,14.7761,14.7761,14.8092,14.8835,14.8997,14.9412,15.004,15.004,15.004,15.004,15.004,15.004,15.004,15.004,15.004,6.9199,6.9236,6.9506,7.0813,7.1494,0.0,0.0,7.7261,8.0793,8.605,8.8935,9.1689,9.5268,9.6476,9.7329,9.8847,10.0253,10.2747,10.7427,11.6232,12.244,12.3225,12.615,12.8077,12.8077,12.9504,13.0717,13.1502,13.1573,13.1573,13.1573,13.1573,13.1573,13.1573,13.1573,13.1573,13.1573,13.1573,13.1573,13.1573,13.1573,13.1573,13.1573,13.1573,13.2001,13.2786,13.3642,13.4855,13.6354,13.7995,13.9565,14.092,14.092,14.092,14.092,14.092,14.1291,14.203,14.3806,14.4787,14.5491,14.7153,14.7761,14.7761,14.7761,14.7761,14.7761,14.7761,14.7761,14.7761,14.7761,14.7761,14.7761,14.7761,14.7761,14.7761,14.7761,14.7761,14.7761,14.7761,14.7761,14.7761,14.7761,14.7761,14.7761,14.7761,14.7761,14.7761,14.7761,14.7761,14.7761,14.7761,14.7761,14.7761,14.7761,14.7761,14.7761,14.7761,14.789,14.8262,14.8911,14.911,14.9435,15.004,15.004,15.004,15.004,15.004,15.004,15.004,15.004,15.004,6.9198,6.9572,7.0443,7.259,7.3596,0.0,7.7524,7.971,8.3408,9.1181,9.4233,9.7519,10.4049,10.5244,10.5458,10.5987,10.7242,11.1238,12.03,12.4937,12.6079,12.244,12.6579,12.9718,12.9718,13.086,13.1573,13.1573,13.1573,13.1573,13.1573,13.1573,13.1573,13.1573,13.1573,13.1573,13.1573,13.1573,13.1573,13.1573,13.1573,13.1573,13.1573,13.1573,13.2287,13.35,13.35,13.4499,13.6354,13.7638,13.8922,14.0064,14.0706,14.092,14.092,14.092,14.092,14.1236,14.3581,14.4414,14.4787,14.7029,14.7761,14.7761,14.7761,14.7761,14.7761,14.7761,14.7761,14.7761,14.7761,14.7761,14.7761,14.7761,14.7761,14.7761,14.7761,14.7761,14.7761,14.7761,14.7761,14.7761,14.7761,14.7761,14.7761,14.7761,14.7761,14.7761,14.7761,14.7761,14.7761,14.7761,14.7761,14.7761,14.7761,14.7761,14.7761,14.7761,14.8116,14.8472,14.885,14.9249,14.9667,15.004,15.004,15.004,15.004,15.004,15.004,15.004,15.004,15.004,6.9222,7.0922,7.2699,7.2998,7.5454,0.0,8.1652,8.9587,9.7446,10.1158,10.861,11.3858,11.2023,11.1737,11.2594,11.5448,11.6018,11.8944,12.7078,12.8648,12.929,13.0146,13.086,13.1359,13.1359,13.1554,13.1573,13.1573,13.1573,13.1573,13.1573,13.1573,13.1573,13.1573,13.1573,13.1573,13.1573,13.1573,13.1573,13.1573,13.1573,13.1573,13.1573,13.1573,13.1645,13.1859,13.1859,13.35,13.6282,13.6425,13.6639,13.7067,13.985,14.092,14.092,14.092,14.092,14.1236,14.3581,14.4414,14.4787,14.7029,14.7761,14.7761,14.7761,14.7761,14.7761,14.7761,14.7761,14.7761,14.7761,14.7761,14.7761,14.7761,14.7761,14.7761,14.7761,14.7761,14.7761,14.7761,14.7761,14.7761,14.7761,14.7761,14.7761,14.7761,14.7761,14.7761,14.7761,14.7761,14.7761,14.7761,14.7761,14.7761,14.7761,14.7761,14.7761,14.7761,14.8116,14.8472,14.885,14.9249,14.9671,15.004,15.004,15.004,15.004,15.004,15.004,15.004,15.004,15.004,7.1031,7.2222,7.3799,7.6779,0.0,0.0,8.4604,9.1572,9.7966,10.025,10.817,11.4877,11.5376,11.7731,12.0371,12.2583,12.3724,12.5794,13.0003,13.0574,13.086,13.1502,13.1573,13.1573,13.1573,13.1573,13.1573,13.1573,12.9076,12.877,13.143,13.1573,13.1573,13.1573,13.1573,13.1573,13.1573,13.1573,13.1573,13.1573,13.1573,13.1573,13.1573,13.1573,13.1573,13.1573,13.1573,13.2287,13.3642,13.5498,13.6782,13.7852,14.0064,14.092,14.092,14.092,14.092,14.1126,14.2856,14.3851,14.4664,14.6213,14.7153,14.7761,14.7761,14.7761,14.7761,14.7761,14.7761,14.7761,14.7761,14.7761,14.7761,14.7761,14.7761,14.7761,14.7761,14.7761,14.7761,14.7761,14.7761,14.7761,14.7761,14.7761,14.7761,14.7761,14.7761,14.7761,14.7761,14.7761,14.7761,14.7761,14.7761,14.7761,14.7761,14.7761,14.7761,14.7761,14.8305,14.8756,14.894,14.9525,14.9877,15.004,15.004,15.004,15.004,15.004,15.004,15.004,15.004,15.004,7.2507,0.0,0.0,0.0,0.0,0.0,8.7552,9.3757,9.9576,10.1534,10.9454,11.6875,11.9586,12.2868,12.5865,12.7934,12.9147,13.0289,13.143,13.1573,13.1573,13.1573,13.1573,13.1573,13.1573,13.1573,13.1573,13.1573,12.8434,12.8056,13.143,13.1573,13.1573,13.1573,13.1573,13.1573,13.1573,13.1573,13.1573,13.1573,13.1573,13.1573,13.1573,13.1573,13.1573,13.1573,13.1573,13.1573,13.1787,13.4499,13.6568,13.8138,13.9707,14.0564,14.092,14.092,14.092,14.1126,14.2612,14.3717,14.4664,14.6039,14.7016,14.7761,14.7761,14.7761,14.7761,14.7761,14.7761,14.7761,14.7761,14.7761,14.7761,14.7761,14.7761,14.7761,14.7761,14.7761,14.7761,14.7761,14.7761,14.7761,14.7761,14.7761,14.7761,14.7761,14.7761,14.7761,14.7761,14.7761,14.7761,14.7761,14.7761,14.7761,14.7761,14.7761,14.7761,14.7761,14.8368,14.8745,14.894,14.9545,14.9959,15.004,15.004,15.004,15.004,15.004,15.004,15.004,15.004,15.004,0.0,0.0,0.0,8.2278,8.4887,8.7585,9.0724,9.8751,10.6386,10.9454,11.7588,12.4723,12.6364,12.6793,12.7863,13.0931,13.1554,13.1502,13.1573,13.1573,13.1573,13.1573,13.1573,13.1573,13.1573,13.1573,13.1573,13.1573,13.143,13.143,13.1573,13.1573,13.1573,13.1573,13.1573,13.1573,13.1573,13.1573,13.1573,13.1573,13.1573,13.1573,13.1573,13.1573,13.1573,13.1573,13.1573,13.1573,13.1716,13.3357,13.4927,13.6496,13.8066,13.9636,14.092,14.092,14.092,14.1236,14.3581,14.4372,14.4787,14.6997,14.7732,14.7761,14.7761,14.7761,14.7761,14.7761,14.7761,14.7761,14.7761,14.7761,14.7761,14.7761,14.7761,14.7761,14.7761,14.7761,14.7761,14.7761,14.7761,14.7761,14.7761,14.7761,14.7761,14.7761,14.7761,14.7761,14.7761,14.7761,14.7761,14.7761,14.7761,14.7761,14.7761,14.7761,14.7761,14.7761,14.8065,14.8491,14.885,14.9249,14.9671,15.004,15.004,15.004,15.004,15.004,15.004,15.004,15.004,15.004,7.99,8.1232,8.2992,9.2636,9.2464,9.1936,9.9322,10.5102,10.9169,11.0239,11.8801,12.5651,12.3961,12.7149,13.036,13.143,13.1573,13.1573,13.1573,13.1573,13.1573,13.1573,13.1573,13.1573,13.1573,13.1573,13.1573,13.1573,12.8648,12.8291,13.143,12.8648,12.8362,13.1554,13.1573,13.1573,13.1573,13.1573,13.1573,13.1573,13.1573,13.1573,13.1573,13.1573,13.1573,13.1573,13.1573,13.1573,13.1716,13.3286,13.4855,13.6425,13.7995,13.9565,14.092,14.092,14.092,14.1126,14.271,14.3762,14.4664,14.6109,14.7122,14.7761,14.7761,14.7761,14.7761,14.7761,14.7761,14.7761,14.7761,14.7761,14.7761,14.7761,14.7761,14.7761,14.7761,14.7761,14.7761,14.7761,14.7761,14.7761,14.7761,14.7761,14.7761,14.7761,14.7761,14.7761,14.7761,14.7761,14.7761,14.7761,14.7761,14.7761,14.7761,14.7761,14.7761,14.7761,14.8116,14.8472,14.885,14.9249,14.9671,15.004,15.004,15.004,15.004,15.004,15.004,15.004,15.004,15.004,8.3854,8.5792,8.8027,9.9105,9.8038,9.643,10.5387,10.8955,11.1238,11.4021,12.1655,12.7292,12.5794,12.8862,13.1573,13.1573,13.1573,13.1573,13.1573,13.1573,13.1573,13.1573,13.1573,13.1573,13.1573,13.1573,13.1573,13.1573,12.879,12.8434,13.143,12.8719,12.8434,13.1554,13.1573,13.1573,13.1573,13.1573,13.1573,13.1573,13.1573,13.1573,13.1573,13.1573,13.1573,13.1573,13.1573,13.1573,13.1716,13.3286,13.4855,13.6425,13.7995,13.9565,14.092,14.092,14.092,14.1126,14.2759,14.3806,14.4664,14.6144,14.7122,14.7761,14.7761,14.7761,14.7761,14.7761,14.7761,14.7761,14.7761,14.7761,14.7761,14.7761,14.7761,14.7761,14.7761,14.7761,14.7761,14.7761,14.7761,14.7761,14.7761,14.7761,14.7761,14.7761,14.7761,14.7761,14.7761,14.7761,14.7761,14.7761,14.7761,14.7761,14.7761,14.7761,14.7761,14.7761,14.7968,14.8347,14.885,14.9156,14.9539,15.004,15.004,15.004,15.004,15.004,15.004,15.004,15.004,15.004,8.5075,8.9536,9.4393,10.2286,10.1748,10.132,10.9311,11.1024,11.3093,12.0822,12.615,12.9861,13.1288,13.1573,13.1573,13.1573,13.1573,13.1573,13.1573,13.1573,13.1573,13.1573,13.1573,13.1573,13.1573,13.1573,13.1573,13.1573,13.1573,13.1573,13.1573,13.1573,13.1573,13.1573,13.1573,13.1573,13.1573,13.1573,13.1573,13.1573,13.1573,13.1573,13.1573,13.1573,13.1573,13.1573,13.1573,13.1645,13.1787,13.3357,13.4927,13.6496,13.8066,13.9565,14.092,14.092,14.092,14.1236,14.3581,14.4414,14.4787,14.7029,14.7761,14.7761,14.7761,14.7761,14.7761,14.7761,14.7761,14.7761,14.7761,14.7761,14.7761,14.7761,14.7761,14.7761,14.7761,14.7761,14.7761,14.7761,14.7761,14.7761,14.7761,14.7761,14.7761,14.7761,14.7761,14.7761,14.7761,14.7761,14.7761,14.7761,14.7761,14.7761,14.7761,14.7761,14.7761,14.7761,14.7761,14.8092,14.8835,14.8864,14.924,15.004,15.004,15.004,15.004,15.004,15.004,15.004,15.004,15.004,9.2282,9.5028,9.7565,11.2012,11.0596,10.8384,11.8658,11.9087,11.9301,12.6079,12.9361,13.1145,13.1502,13.1573,13.1573,13.1573,13.1573,13.1573,13.1573,13.1573,13.1573,13.1573,13.1573,13.1573,13.1573,13.1573,13.1573,13.1573,13.1573,13.1573,13.1573,13.1573,13.1573,13.1573,13.1573,13.1573,13.1573,13.1573,13.1573,13.1573,13.1573,13.1573,13.1573,13.1573,13.1573,13.1573,13.1573,13.2215,13.3357,13.3785,13.5569,13.8066,13.8439,13.9565,14.092,14.092,14.092,14.1236,14.3581,14.4414,14.4787,14.7029,14.7761,14.7761,14.7761,14.7761,14.7761,14.7761,14.7761,14.7761,14.7761,14.7761,14.7761,14.7761,14.7761,14.7761,14.7761,14.7761,14.7761,14.7761,14.7761,14.7761,14.7761,14.7761,14.7761,14.7761,14.7761,14.7761,14.7761,14.7761,14.7761,14.7761,14.7761,14.7761,14.7761,14.7761,14.7761,14.7761,14.7761,14.8092,14.8835,14.8864,14.924,15.004,15.004,15.004,15.004,15.004,15.004,15.004,15.004,15.004,9.1532,9.6393,10.1441,11.3599,11.2879,11.2023,12.3082,12.3082,12.2583,12.8933,13.1002,13.1573,13.1573,13.1573,13.1573,13.1573,13.1573,13.1573,13.1573,13.1573,13.1573,13.1573,13.1573,13.1573,13.1573,13.1573,13.1573,13.1573,13.1573,13.1573,13.1573,13.1573,13.1573,13.1573,13.1573,13.1573,13.1573,13.1573,13.1573,13.1573,13.1573,13.1573,13.1573,13.1573,13.1573,13.1645,13.2287,13.3143,13.407,13.5426,13.7067,13.8653,13.9351,14.0135,14.092,14.092,14.092,14.1181,14.3048,14.3984,14.4706,14.6424,14.7349,14.7761,14.7761,14.7761,14.7761,14.7761,14.7761,14.7761,14.7761,14.7761,14.7761,14.7761,14.7761,14.7761,14.7761,14.7761,14.7761,14.7761,14.7761,14.7761,14.7761,14.7761,14.7761,14.7761,14.7761,14.7761,14.7761,14.7761,14.7761,14.7761,14.7761,14.7761,14.7761,14.7761,14.7761,14.7761,14.7913,14.8218,14.8911,14.9022,14.9428,15.004,15.004,15.004,15.004,15.004,15.004,15.004,15.004,15.004,8.7167,9.5648,10.4959,11.1452,11.2665,11.4734,12.3867,12.4438,12.4652,13.036,13.1573,13.1573,13.1573,13.1573,13.1573,13.1573,13.1573,13.1573,13.1573,13.1573,13.1573,13.1573,13.1573,13.1573,13.1573,13.1573,13.1573,13.1573,13.1573,13.1573,13.1573,13.1573,13.1573,13.1573,13.1573,13.1573,13.1573,13.1573,13.1573,13.1573,13.1573,13.1573,13.1573,13.1573,13.1573,13.1645,13.3286,13.407,13.4499,13.7369,13.8653,13.901,14.0421,14.092,14.092,14.092,14.092,14.1143,14.2285,14.3352,14.4414,14.564,14.6656,14.7542,14.7732,14.7761,14.7761,14.7761,14.7761,14.7761,14.7761,14.7761,14.7761,14.7761,14.7761,14.7761,14.7761,14.7761,14.7761,14.7761,14.7761,14.7761,14.7761,14.7761,14.7761,14.7761,14.7761,14.7761,14.7761,14.7761,14.7686,14.7387,14.7611,14.7611,14.7387,14.7611,14.7761,14.7761,14.8043,14.8414,14.885,14.922,14.9651,15.004,15.004,15.004,15.004,15.004,15.004,15.004,15.004,15.004,8.7368,9.5648,10.5202,11.2763,11.8444,12.1941,12.1156,12.4652,12.8719,13.1074,13.1573,13.1573,13.1573,13.1573,13.1573,13.1573,13.1573,13.1573,13.1573,13.1573,13.1573,13.1573,13.1573,13.1573,13.1573,13.1573,13.1573,13.1573,13.1573,13.1573,13.1573,13.1573,13.1573,13.1573,13.1573,13.1573,13.1573,13.1573,13.1573,13.1573,13.1573,13.1573,13.1573,13.1573,13.1573,13.1645,13.3286,13.4713,13.5997,13.7852,13.9351,14.0564,14.0849,14.092,14.092,14.092,14.092,14.1143,14.2285,14.2808,14.3305,14.5342,14.6104,14.6417,14.7408,14.7761,14.7761,14.7761,14.7761,14.7761,14.7761,14.7761,14.7761,14.7761,14.7761,14.7761,14.7761,14.7761,14.7761,14.7761,14.7761,14.7761,14.7761,14.7761,14.7761,14.7761,14.7761,14.7761,14.7761,14.7761,14.7162,14.5816,14.6863,14.7162,14.5742,14.6938,14.7761,14.7761,14.7798,14.8135,14.8835,14.8933,14.9362,15.004,15.004,15.004,15.004,15.004,15.004,15.004,15.004,15.004,9.1251,9.5801,10.0065,10.5261,11.0738,11.6304,12.2155,12.5223,12.772,13.0931,12.9647,12.8648,13.1145,13.1573,13.1573,13.1573,13.1573,13.1573,13.1573,13.1573,13.1573,13.1573,13.1573,13.1573,13.1573,13.1573,13.1573,13.1573,13.1573,13.1573,13.1573,13.1573,13.1573,13.1573,13.1573,13.1573,13.1573,13.1573,13.1573,13.1573,13.1573,13.1573,13.1573,13.1573,13.2001,13.2929,13.4499,13.6068,13.7638,13.9208,14.0278,14.092,14.092,14.092,14.092,14.092,14.092,14.1032,14.1597,14.2183,14.2905,14.391,14.4673,14.5416,14.6491,14.6827,14.6923,14.7571,14.7761,14.7761,14.7761,14.7761,14.7761,14.7761,14.7761,14.7761,14.7761,14.7761,14.7761,14.7761,14.7761,14.7761,14.7761,14.7761,14.7761,14.7761,14.7761,14.7761,14.7761,14.7761,14.7387,14.6639,14.7237,14.7387,14.6564,14.7237,14.7761,14.7761,14.814,14.8491,14.885,14.911,14.9511,15.004,15.004,15.004,15.004,15.004,15.004,15.004,15.004,15.004,9.3723,9.5213,9.5761,10.0578,10.3246,10.8098,12.0942,12.3225,12.4224,13.036,12.8648,12.7221,13.0912,13.1573,13.1573,13.1573,13.1573,13.1573,13.1573,13.1573,13.1573,13.1573,13.1573,13.1573,13.1573,13.1573,13.1573,13.1573,13.1573,13.1573,13.1573,13.1573,13.1573,13.1573,13.1573,13.1573,13.1573,13.1573,13.1573,13.1573,13.1573,13.1573,13.1573,13.1573,13.2215,13.3571,13.5426,13.6996,13.828,14.0135,14.092,14.092,14.092,14.092,14.092,14.092,14.092,14.092,14.092,14.1544,14.2386,14.2612,14.3305,14.4329,14.564,14.6,14.6248,14.7408,14.7761,14.7761,14.7761,14.7761,14.7761,14.7761,14.7761,14.7761,14.7761,14.7761,14.7761,14.7761,14.7761,14.7761,14.7761,14.7761,14.7761,14.7761,14.7387,14.7162,14.7162,14.6863,14.6714,14.6714,14.6714,14.6564,14.619,14.6489,14.6845,14.7308,14.7867,14.8443,14.8972,14.9396,14.9769,15.004,15.004,15.004,15.004,15.004,15.004,15.004,15.004,15.004,8.9852,9.2865,9.7354,10.8665,10.6457,10.3675,11.2094,11.5019,11.8944,12.9433,13.1216,13.1074,13.1502,13.1573,13.1573,13.1573,13.1573,13.1573,13.1573,13.1573,13.1573,13.1573,13.1573,13.1573,13.1573,13.1573,13.1573,13.1573,13.1573,13.1573,13.1573,13.1573,13.1573,13.1573,13.1573,13.1573,13.1573,13.1573,13.1573,13.1573,13.1573,13.1573,13.1573,13.1573,13.1645,13.193,13.4927,13.6354,13.6711,13.9707,14.092,14.092,14.092,14.092,14.092,14.092,14.092,14.092,14.092,14.0976,14.1291,14.2336,14.2759,14.3259,14.5342,14.6,14.6248,14.7408,14.7761,14.7761,14.7761,14.7761,14.7761,14.7761,14.7761,14.7761,14.7761,14.7761,14.7761,14.7761,14.7761,14.7761,14.7761,14.7761,14.7761,14.7761,14.6415,14.5443,14.5443,14.4171,14.3349,14.3349,14.3349,14.2676,14.1105,14.2451,14.4066,14.5886,14.6013,14.7078,14.9329,14.9783,15.0039,15.004,15.004,15.004,15.004,15.004,15.004,15.004,15.004,15.004,8.8708,8.999,9.1837,10.2024,10.283,10.2105,10.6172,11.0524,11.6304,12.5508,12.7363,12.6436,12.3582,12.772,13.0646,12.7792,12.9718,13.1573,13.1573,13.1573,13.1573,13.1573,13.1573,13.1573,13.1573,13.1573,13.1573,13.1573,13.1573,13.1573,13.1573,13.1573,13.1573,13.1573,13.1573,13.1573,13.1573,13.1573,13.1573,13.1573,13.1573,13.1573,13.1573,13.1573,13.1573,13.1768,13.3928,13.4855,13.5141,13.8209,13.9565,13.9636,14.0564,14.092,14.092,14.092,14.092,14.092,14.092,14.092,14.1032,14.149,14.165,14.203,14.4341,14.5068,14.5416,14.7258,14.7761,14.7761,14.7761,14.7761,14.7761,14.7761,14.7761,14.7761,14.7761,14.7761,14.7387,14.6415,14.619,14.5891,14.4994,14.477,14.477,14.477,14.4246,14.3797,14.3797,14.3274,14.29,14.29,14.29,14.2601,14.1928,14.2526,14.3267,14.4198,14.5454,14.6789,14.8265,14.943,15.004,15.004,15.004,15.004,15.004,15.004,15.004,15.004,15.004,15.004,8.625,8.6729,8.7422,9.5882,9.8199,9.9947,10.5701,10.8594,11.2522,12.1298,12.5009,12.5223,12.0442,12.5009,12.8485,12.5151,12.7363,13.0055,13.1411,13.1573,13.1573,13.1573,13.1573,13.1573,13.1573,13.1573,13.1573,13.1573,13.1573,13.1573,13.1573,13.1573,13.1573,13.1573,13.1573,13.1573,13.1573,13.1573,13.1573,13.1573,13.1573,13.1573,13.1573,13.1573,13.1573,13.1645,13.2786,13.35,13.4142,13.6354,13.7726,13.8653,13.985,14.0564,14.092,14.092,14.092,14.092,14.092,14.092,14.092,14.092,14.092,14.1291,14.3259,14.4158,14.4828,14.6698,14.7438,14.7761,14.7761,14.7761,14.7761,14.7761,14.7761,14.7611,14.7088,14.7013,14.6489,14.4844,14.4545,14.4171,14.3022,14.29,14.29,14.29,14.2451,14.2152,14.2152,14.2152,14.2152,14.2152,14.1704,14.1405,14.1405,14.1405,14.1769,14.2685,14.4557,14.598,14.6775,14.8446,14.9585,15.004,15.004,15.004,15.004,15.004,15.004,15.004,15.004,15.004,8.133,8.3118,8.5997,9.3411,9.3771,9.6307,11.201,10.9309,10.66,11.7517,12.6008,13.0075,12.5366,12.4581,12.4652,12.4581,12.4652,12.6293,13.0931,13.1573,13.1573,13.1573,13.1573,13.1573,13.1573,13.1573,13.1573,13.1573,13.1573,13.1573,13.1573,13.1573,13.1573,13.1573,13.1573,13.1573,13.1573,13.1573,13.1573,13.1573,13.1573,13.1573,13.1573,13.1573,13.1573,13.1573,13.1625,13.2501,13.3928,13.3999,13.5783,13.8582,13.8582,13.9565,14.092,14.092,14.092,14.092,14.092,14.092,14.092,14.092,14.092,14.1126,14.2336,14.349,14.4664,14.5713,14.6859,14.7761,14.7761,14.7761,14.7761,14.7761,14.7761,14.7237,14.5592,14.5218,14.477,14.3199,14.29,14.29,14.29,14.29,14.29,14.29,14.1479,14.0358,14.0358,14.0358,14.0358,14.0358,13.8862,13.789,13.789,13.789,13.8907,14.141,14.2991,14.4247,14.5028,14.6699,14.837,15.004,15.004,15.004,15.004,15.004,15.004,15.004,15.004,15.004,8.0179,8.1669,8.5218,9.5798,9.4499,9.4175,10.7685,10.5681,10.4778,11.8521,11.7507,11.4317,11.4811,12.0228,12.4581,12.4581,12.7292,12.9861,13.1359,13.1573,13.1573,13.1573,13.1573,13.1573,13.1573,13.1573,13.1573,13.1573,13.1573,13.1573,13.1573,13.1573,13.1573,13.1573,13.1573,13.1573,13.1573,13.1573,13.1573,13.1573,13.1573,13.1573,13.1573,13.1573,13.1573,13.1573,13.1573,13.1859,13.2429,13.35,13.5141,13.721,13.9351,14.0492,14.092,14.092,14.092,14.092,14.092,14.092,14.092,14.092,14.092,14.1126,14.2336,14.2953,14.349,14.4623,14.5677,14.6558,14.6558,14.7122,14.7462,14.6265,14.6041,14.5592,14.3947,14.3648,14.3124,14.1479,14.1105,14.0806,13.961,13.9386,13.9386,13.9386,13.8937,13.8638,13.8638,13.8638,13.8638,13.8638,13.8114,13.7815,13.7815,13.7815,13.8382,13.9746,14.1313,14.257,14.3282,14.4877,14.6623,14.8294,14.837,14.8901,15.004,15.004,15.004,15.004,15.004,15.004,7.9042,8.0675,8.4295,9.3429,9.1732,9.1413,10.5272,10.2111,10.0425,11.5577,11.1973,10.7767,11.3017,11.8254,12.244,12.4295,12.7007,12.9627,13.134,13.1573,13.1573,13.1573,13.1573,13.1573,13.1573,13.1573,13.1573,13.1573,13.1573,13.1573,13.1573,13.1573,13.1573,13.1573,13.1573,13.1573,13.1573,13.1573,13.1573,13.1573,13.1573,13.1573,13.1573,13.1573,13.1573,13.1573,13.1573,13.1573,13.1716,13.3286,13.4499,13.5712,13.8851,14.0421,14.092,14.092,14.092,14.092,14.092,14.092,14.092,14.092,14.092,14.1087,14.179,14.2336,14.2856,14.3536,14.4835,14.5894,14.5529,14.5632,14.5742,14.5368,14.477,14.3872,14.2302,14.1928,14.1405,13.9685,13.9386,13.9086,13.7965,13.7815,13.7815,13.7815,13.7815,13.7815,13.7815,13.7815,13.7815,13.7815,13.7815,13.7815,13.7815,13.7815,13.8156,13.8901,14.0063,14.1214,14.2447,14.351,14.4877,14.6547,14.7231,14.8066,14.9129,14.9736,15.004,15.004,15.004,15.004,7.7973,7.9881,8.3119,8.805,8.6823,8.8585,10.4673,9.8751,9.4293,10.9612,10.8649,10.7857,11.7198,11.7588,11.8113,12.3127,12.4602,12.6507,13.0503,13.1074,13.1074,13.1074,13.1074,13.1074,13.1074,13.1411,13.1573,13.1573,13.1573,13.1573,13.1573,13.1573,13.1573,13.1573,13.1573,13.1573,13.1573,13.1573,13.143,13.1074,13.143,13.143,13.1074,13.143,13.1573,13.1573,13.1268,13.134,13.1645,13.3072,13.3785,13.4427,13.7567,13.9636,14.092,14.092,14.092,14.092,14.092,14.092,14.092,14.092,14.092,14.092,14.092,14.1632,14.2563,14.2563,14.4024,14.5455,14.4338,14.3484,14.3199,14.4545,14.3723,14.2227,14.0507,14.0133,13.9685,13.8114,13.7815,13.7815,13.7815,13.7815,13.7815,13.7815,13.7815,13.7815,13.7815,13.7815,13.7815,13.7815,13.7815,13.7815,13.7815,13.7815,13.8156,13.8901,13.9235,14.0255,14.2219,14.2295,14.313,14.4801,14.6395,14.7307,14.7534,14.9129,14.9964,15.004,15.004,15.004,7.7973,7.8433,8.1329,9.1273,8.991,8.9725,10.3554,9.671,9.1715,10.6489,10.1492,9.7761,10.8922,10.8942,10.9526,11.6458,12.4525,12.9127,12.6579,12.6222,12.6222,12.6222,12.6222,12.6222,12.6222,12.9504,13.1573,13.1573,13.1573,13.1573,13.1573,13.1573,13.1573,13.1573,13.1573,13.1573,13.1573,13.1573,12.9841,12.6293,12.9861,12.9718,12.6364,12.9932,13.1573,13.1411,12.7842,12.822,13.1502,13.0717,13.2501,13.5997,13.9136,14.0635,14.092,14.092,14.092,14.092,14.092,14.092,14.092,14.092,14.092,14.092,14.092,14.1071,14.1345,14.1345,14.2057,14.2501,14.1123,14.1813,14.2676,14.1704,14.118,14.0507,13.8787,13.8413,13.8264,13.789,13.7815,13.7815,13.7815,13.7815,13.7815,13.7815,13.7815,13.7815,13.7815,13.7815,13.7815,13.7815,13.7815,13.7815,13.7815,13.7815,13.8156,13.8901,13.9235,13.9724,14.0549,14.0549,14.1308,14.3054,14.3434,14.4953,14.7534,14.7914,14.8825,15.004,15.004,15.004,7.7973,7.8894,8.2118,9.101,8.9431,8.8182,9.7914,9.318,9.0097,10.192,9.9243,9.7301,10.5668,10.9419,11.1278,11.1291,11.7924,12.2556,12.0672,12.2262,12.3033,12.1464,12.5151,12.6935,12.4795,12.879,13.1573,13.1573,13.1573,13.1573,13.1573,13.1573,13.1573,13.1573,13.1573,13.1573,13.1573,13.1573,12.9219,12.4652,12.9413,12.9198,12.4723,12.9433,13.1573,13.1483,12.8862,12.9219,13.1573,13.143,13.3357,13.6496,13.8922,14.0278,14.092,14.092,14.092,14.092,14.092,14.092,14.092,14.092,14.092,14.092,14.092,14.092,14.0778,14.0064,13.9764,13.9761,14.0167,14.0406,14.0507,14.0358,13.9759,13.8937,13.804,13.7815,13.7815,13.7815,13.7815,13.7815,13.7815,13.7815,13.7815,13.7815,13.7815,13.7815,13.7815,13.7815,13.7815,13.7815,13.7815,13.7815,13.7815,13.7815,13.8116,13.8715,13.9044,13.9422,13.9941,13.9941,14.0397,14.1308,14.2067,14.3738,14.6395,14.7155,14.8446,15.004,15.004,15.004,7.8565,8.0488,8.3908,8.9563,8.7853,8.6209,9.1807,8.976,8.8905,9.6928,9.851,9.9734,10.3876,11.0951,11.3943,10.7093,10.9337,11.2653,11.5048,11.9032,12.0609,11.7733,12.4509,12.8148,12.4866,12.879,13.1573,13.1573,13.1573,13.1573,13.1573,13.1573,13.1573,13.1573,13.1573,13.1573,13.1573,13.1573,12.9219,12.4652,12.9413,12.9198,12.4723,12.9433,13.1573,13.1554,13.0788,13.0931,13.1645,13.2501,13.407,13.6068,13.7638,13.9065,14.0207,14.0207,14.0207,14.0278,14.0492,14.0778,14.092,14.092,14.092,14.092,14.0635,14.0564,14.0262,13.857,13.7592,13.7572,13.9832,13.9084,13.8189,13.961,13.8862,13.7815,13.7815,13.7815,13.7815,13.7815,13.7815,13.7815,13.7815,13.7815,13.7815,13.7815,13.7815,13.7815,13.7815,13.7815,13.7815,13.7815,13.7815,13.7815,13.7815,13.7815,13.7947,13.8403,13.8813,13.9282,13.986,13.9941,13.9941,13.9941,14.1384,14.3054,14.5029,14.6471,14.8142,15.004,15.004,15.004,8.1212,8.279,8.5157,8.9826,8.8642,8.7524,9.2128,8.976,8.805,9.3114,9.4041,9.5015,9.8089,9.9862,10.1665,10.4257,10.4992,10.7499,11.4086,11.686,11.797,11.747,11.873,12.087,12.4224,12.879,13.1573,13.1573,13.1573,13.1573,13.1573,13.1573,13.1573,13.1573,13.1573,13.1573,13.1573,13.1573,12.9219,12.4652,12.9413,12.9198,12.4723,12.9433,13.1573,13.1359,12.7363,12.7934,13.1359,12.9004,13.0503,13.4427,13.5997,13.6782,13.6996,13.6996,13.6996,13.7139,13.8494,13.985,14.092,14.092,14.092,14.0706,13.9351,13.8994,13.8499,13.6531,13.6464,13.7058,13.6981,13.7401,13.789,13.8114,13.804,13.7815,13.7815,13.7815,13.7815,13.7815,13.7815,13.7815,13.7815,13.7815,13.7815,13.7815,13.7815,13.7815,13.7815,13.7815,13.7815,13.7815,13.7815,13.7815,13.7815,13.7815,13.7947,13.8403,13.8813,13.9124,13.946,13.9777,13.9941,13.9941,14.0245,14.1916,14.5029,14.5256,14.7003,15.004,15.004,15.004,8.2001,8.3908,8.6078,8.8116,8.7711,8.725,8.9168,8.8116,8.7974,9.2259,9.3121,9.4035,9.6862,9.9361,10.1387,10.2657,10.4786,10.7432,11.0813,11.5628,11.8101,11.6307,12.1428,12.4937,12.4652,12.879,13.1573,13.1573,13.1573,13.1573,13.1573,13.1573,13.1573,13.1573,13.1573,13.1573,13.1573,13.1573,12.9219,12.4652,12.9413,12.772,12.0942,12.8291,13.0269,12.7792,12.822,12.9575,13.143,13.0003,13.1216,13.3999,13.4713,13.5498,13.6354,13.721,13.7567,13.7781,13.9351,13.9779,13.9565,13.8708,13.8423,13.828,13.7567,13.6782,13.5836,13.4536,13.4964,13.5809,13.6167,13.7029,13.7815,13.7815,13.7815,13.7815,13.7815,13.7815,13.7815,13.7815,13.7815,13.7815,13.7815,13.7815,13.7815,13.7815,13.7815,13.7815,13.7815,13.7815,13.7815,13.7815,13.7815,13.7815,13.7815,13.7815,13.8116,13.8715,13.8858,13.9167,13.968,13.9862,13.9941,13.9941,13.9941,14.1156,14.3662,14.4573,14.6244,14.8749,14.966,15.004,8.4368,0.0,8.9694,8.9694,8.8905,8.8182,0.0,8.7448,8.7645,9.0944,9.2456,9.3706,9.5547,9.9492,10.1925,10.0413,10.4753,10.8045,10.7458,11.3323,11.7019,11.5224,12.3841,12.8933,12.6436,12.9504,13.1573,13.1573,13.1573,13.1573,13.1573,13.1573,13.1573,13.1573,13.1573,13.1573,13.1573,13.1573,12.9789,12.6293,12.9861,12.7221,11.9372,12.772,12.9004,12.4866,12.9504,13.1573,13.1573,13.1573,13.2287,13.3357,13.3357,13.407,13.5283,13.6496,13.6996,13.721,13.878,13.8494,13.7424,13.6496,13.6282,13.6211,13.5854,13.4641,13.3438,13.3464,13.4082,13.5005,13.6286,13.725,13.7815,13.7815,13.7815,13.7815,13.7815,13.7815,13.7815,13.7815,13.7815,13.7815,13.7815,13.7815,13.7815,13.7815,13.7815,13.7815,13.7815,13.7815,13.7815,13.7815,13.7815,13.7815,13.7815,13.7815,13.8087,13.8844,13.8901,13.9273,13.9779,13.9865,13.9941,13.9941,13.9941,14.0625,14.1916,14.3966,14.5864,14.761,14.9281,15.004,0.0,9.5415,9.8638,9.8638,9.5613,9.2661,9.2661,8.9563,0.0,8.7119,9.0352,9.2785,9.1601,9.4955,9.7388,9.5941,10.278,10.7392,10.5009,10.8296,11.2026,11.5084,12.1107,12.665,13.0697,13.1411,13.1573,13.1573,13.1573,13.1573,13.1573,13.1573,13.1573,13.1573,13.1573,13.1573,13.1573,13.1573,13.143,13.1074,13.143,12.8933,12.4224,12.9341,12.9004,12.4866,12.9504,13.1573,13.1573,13.1573,13.1645,13.1787,13.1787,13.1787,13.193,13.2073,13.2073,13.2287,13.3928,13.4356,13.4499,13.5854,13.6282,13.5997,13.457,13.3,13.2138,13.4071,13.4654,13.5194,13.7221,13.7789,13.7815,13.7815,13.7815,13.7815,13.7815,13.7815,13.7815,13.7815,13.7815,13.7815,13.7815,13.7815,13.7815,13.7815,13.7815,13.7815,13.7815,13.7815,13.7815,13.7815,13.7815,13.7815,13.7815,13.7815,13.7972,13.8463,13.8829,13.9113,13.9442,13.9775,13.9941,13.9941,13.9941,14.0017,14.0169,14.3434,14.5864,14.761,14.9281,15.004,9.2464,9.621,9.9495,9.9495,9.8247,9.6407,9.3712,9.1864,9.0155,8.8379,8.93,9.0878,9.2128,9.364,9.5744,9.8769,10.1991,10.5741,11.0175,11.2032,11.5314,12.1519,12.6209,12.9647,13.143,12.8933,12.8434,13.1359,12.8862,12.8505,13.143,13.1573,13.1573,13.1573,13.1573,13.1573,13.1573,13.1573,13.1573,13.1573,13.1573,12.9198,12.4723,12.9433,12.9004,12.4866,12.9504,12.9984,0.0,13.036,12.9861,12.7506,13.0432,13.1573,13.1716,13.2643,13.3072,13.3286,13.4855,13.4784,13.407,13.4641,13.4142,13.3214,13.2643,13.2073,13.1914,13.3329,13.4693,13.5842,13.6649,13.7336,13.7815,13.7815,13.7815,13.7815,13.7815,13.7815,13.7815,13.7815,13.7815,13.7815,13.7815,13.7815,13.7815,13.7815,13.7815,13.7815,13.7815,13.7815,13.7815,13.7815,13.7815,13.7815,13.7815,13.7815,13.8116,13.8765,13.8872,13.9253,13.9689,13.9863,13.9941,13.9941,13.9941,13.9941,13.9941,14.2295,14.4877,14.761,14.9281,15.004,9.6862,10.0742,10.4359,10.4359,10.3701,10.186,9.7585,9.5481,9.3508,9.0221,8.9497,9.0286,9.2661,9.3121,9.5021,10.0742,10.1662,10.4423,11.236,11.3422,11.6321,12.4163,12.7287,12.9425,13.143,12.8648,12.8148,13.1359,12.8576,12.822,13.143,13.1573,13.1573,13.1573,13.1573,13.1573,13.1573,13.1573,13.1573,13.1573,13.1573,12.9198,12.4723,12.9433,12.9004,12.4866,12.9504,12.8933,12.4937,12.9647,12.879,12.508,12.9718,13.1573,13.1716,13.2786,13.3214,13.3357,13.4427,13.407,13.3214,13.3214,13.2429,13.1573,13.1573,13.1812,13.2223,13.2944,13.462,13.6319,13.668,13.7279,13.7815,13.7815,13.7815,13.7815,13.7815,13.7815,13.7815,13.7815,13.7815,13.7815,13.7815,13.7815,13.7815,13.7815,13.7815,13.7815,13.7815,13.7815,13.7815,13.7815,13.7815,13.7815,13.7815,13.7815,13.8064,13.8722,13.8887,13.9187,13.9773,13.9864,13.9941,13.9941,13.9941,13.9941,13.9941,14.1156,14.313,14.594,14.7155,14.8218,10.4885,11.0277,11.4748,11.4748,11.2578,10.9356,10.5016,10.061,9.6205,9.1864,9.101,9.1404,9.2917,9.3121,9.5021,10.0742,10.1662,10.3816,10.9981,11.0904,11.3811,12.1627,12.2516,12.4835,13.0898,13.1502,13.1502,13.1502,13.1502,13.1502,13.1573,13.1573,13.1573,13.1573,13.1573,13.1573,13.1573,13.1573,13.1573,13.1573,13.1573,12.9147,12.4795,12.9433,12.9076,12.4937,12.9575,12.8862,12.4866,12.9647,12.879,12.4937,12.9718,13.1573,13.1573,13.1573,13.1573,13.1573,13.1573,13.1573,13.1573,13.1573,13.1573,13.1573,13.1573,13.2322,13.3175,13.3175,13.4693,13.648,13.7551,13.7815,13.7815,13.7815,13.7815,13.7815,13.7815,13.7815,13.7815,13.7815,13.7815,13.7815,13.7815,13.7815,13.7815,13.7815,13.7815,13.7815,13.7815,13.7815,13.7815,13.7815,13.7815,13.7815,13.7815,13.7815,13.7972,13.8403,13.8737,13.9102,13.9353,13.9773,13.9941,13.9941,13.9941,13.9941,13.9941,13.9941,14.0852,14.2447,14.2523,14.4345,10.3175,10.8764,11.5234,11.7511,11.6547,11.3327,10.722,10.3867,10.0216,9.3837,9.2522,9.2917,9.4363,9.4626,9.656,10.2591,10.3575,10.6732,11.5976,11.7255,11.969,12.6298,12.7088,12.7017,12.6692,12.665,12.665,12.665,12.665,12.8077,13.143,13.1573,13.1573,13.1573,13.1573,13.1573,13.1573,13.1573,13.1573,13.1573,13.1573,13.0912,12.9627,13.0931,13.0788,12.9575,13.1002,12.7007,12.0157,12.822,12.6793,12.0371,12.8434,13.1573,13.1573,13.1573,13.1573,13.1573,13.1573,13.1573,13.1573,13.1573,13.1573,13.1573,13.1573,13.2322,13.3284,13.404,13.5231,13.648,13.7551,13.7815,13.7815,13.7815,13.7815,13.7815,13.7815,13.7815,13.7815,13.7815,13.7815,13.7815,13.7815,13.7815,13.7815,13.7815,13.7815,13.7815,13.7815,13.7815,13.7815,13.7815,13.7815,13.7815,13.7815,13.7815,13.8139,13.8737,13.8962,13.9187,13.9773,13.9864,13.9941,13.9941,13.9941,13.9941,13.9941,14.1156,14.1991,14.2523,14.3738,14.5408,10.6857,11.1592,11.6948,11.8896,11.8984,11.7014,11.1172,10.7655,10.3964,9.7848,9.5218,9.4758,9.7322,9.7848,9.9664,10.5028,10.4896,10.7191,11.5898,11.7751,12.0401,12.6578,12.7307,12.7349,12.7384,12.5651,12.5366,12.7221,12.7363,12.8576,13.143,13.1573,13.1573,13.1573,13.1573,13.1573,13.1573,13.1573,13.1573,13.1573,13.1573,13.1573,13.1573,13.1573,13.1573,13.1573,13.1573,12.7292,12.087,12.8434,12.7078,12.1013,12.8576,13.1573,13.1573,13.1573,13.1573,13.1573,13.1573,13.1573,13.1573,13.1573,13.1573,13.1573,13.1573,13.259,13.3871,13.4534,13.5738,13.7029,13.7633,13.7815,13.7815,13.7815,13.7815,13.7815,13.7815,13.7815,13.7815,13.7815,13.7815,13.7815,13.7815,13.7815,13.7815,13.7815,13.7815,13.7815,13.7815,13.7815,13.7815,13.7815,13.7815,13.7815,13.7815,13.7815,13.802,13.8484,13.8699,13.8928,13.9286,13.9577,13.9692,13.9692,13.9863,13.9941,13.9941,14.1004,14.146,14.1536,14.2523,14.389,11.317,11.659,11.9295,11.951,12.0574,12.031,11.5432,11.1345,10.7125,10.2253,9.8046,9.6468,10.0347,10.1136,10.2845,10.7718,10.6363,10.6793,11.2929,11.522,11.8335,12.3712,12.4531,12.6172,13.0347,12.7027,12.6364,13.0574,13.0931,13.1145,13.1573,13.1573,13.1573,13.1573,13.1573,13.1573,13.1573,13.1573,13.1573,13.1573,13.1573,13.1573,13.1573,13.1573,13.1573,13.1573,13.1573,12.8933,12.4937,12.9647,12.879,12.508,12.9718,13.1573,13.1573,13.1573,13.1573,13.1573,13.1573,13.1573,13.1573,13.1573,13.1573,13.1573,13.1573,13.3037,13.4733,13.4733,13.622,13.7815,13.7815,13.7815,13.7815,13.7815,13.7815,13.7815,13.7815,13.7815,13.7815,13.7815,13.7815,13.7815,13.7815,13.7815,13.7815,13.7815,13.7815,13.7815,13.7815,13.7815,13.7815,13.7815,13.7815,13.7815,13.7815,13.7815,13.7842,13.7894,13.8224,13.8463,13.8427,13.9015,13.9332,13.9332,13.968,13.9861,13.9861,13.9863,13.9864,13.9864,13.9941,14.0852,11.0343,11.4288,11.9726,12.2193,12.302,12.1281,11.3434,11.0948,10.7684,9.8551,9.5941,9.5547,9.6468,9.6665,9.9593,10.8811,11.0808,11.334,11.9172,12.1532,12.2648,12.2483,12.3783,12.4465,12.3962,12.4351,12.5009,12.6008,12.6079,12.772,13.1411,13.1573,13.1573,13.1573,13.1573,13.1573,13.1573,13.1573,13.1573,13.1573,13.1573,13.1573,13.1573,13.1573,13.1573,13.1573,13.1573,12.8933,12.4937,12.9647,12.879,12.508,12.9718,13.1573,13.1573,13.1573,13.1573,13.1573,13.1573,13.1573,13.1573,13.1573,13.1573,13.1573,13.1573,13.3037,13.4733,13.4733,13.622,13.7815,13.7815,13.7815,13.7815,13.7815,13.7815,13.7815,13.7815,13.7815,13.7815,13.7815,13.7815,13.7815,13.7815,13.7815,13.7815,13.7815,13.7815,13.7815,13.7815,13.7815,13.7815,13.7815,13.7815,13.7815,13.7815,13.7815,13.7972,13.8236,13.8383,13.854,13.8814,13.8981,13.9056,13.9056,13.9124,13.9232,13.9232,13.9415,13.9482,13.9482,13.9857,14.0852,11.0474,11.4617,12.0565,12.2204,12.3216,12.2438,11.7046,11.55,11.255,10.3358,10.0501,9.9397,9.8494,9.8309,10.0794,10.8376,11.1633,11.3158,11.325,11.9041,12.1903,11.8042,12.0289,12.292,12.5163,12.4071,12.4654,12.7741,12.7934,12.9004,13.143,13.1573,13.1573,13.1573,13.1573,13.1573,13.1573,13.1573,13.1573,13.1573,13.1573,13.1573,13.1573,13.1573,13.1573,13.1573,13.1573,13.0269,12.8148,13.0626,13.0198,12.8148,13.0697,13.1573,13.1573,13.1573,13.1573,13.1573,13.1573,13.1573,13.1573,13.1573,13.1573,13.1573,13.1573,13.3037,13.4733,13.4733,13.622,13.7815,13.7815,13.7815,13.7815,13.7815,13.7815,13.7815,13.7815,13.7815,13.7815,13.7815,13.7815,13.7815,13.7815,13.7815,13.7815,13.7815,13.7815,13.7815,13.7815,13.7815,13.7815,13.7815,13.7815,13.7815,13.7815,13.7815,13.7896,13.8087,13.8111,13.8246,13.8463,13.863,13.8732,13.8732,13.8858,13.8942,13.8942,13.9124,13.9197,13.9197,13.9394,14.0013,11.1592,11.5735,12.0995,12.1193,12.2357,12.2895,12.0658,11.9616,11.7049,10.9775,10.658,10.4393,10.2113,10.1662,10.3109,10.7581,11.0654,11.1028,10.6685,11.4983,11.9529,11.4287,11.7041,12.1761,12.7988,12.5273,12.5497,13.1112,13.0788,13.0412,13.0412,13.0412,13.0769,13.1573,13.1573,13.1573,13.1573,13.1573,13.1573,13.1573,13.1573,13.1573,13.1573,13.1573,13.1145,13.0483,13.1268,13.1126,13.0432,13.1216,13.1573,13.1573,13.1573,13.1573,13.1573,13.1573,13.1573,13.1573,13.1573,13.1573,13.1573,13.1573,13.1573,13.1502,13.1216,13.2866,13.4586,13.4073,13.5628,13.7367,13.7067,13.6993,13.6993,13.6993,13.6993,13.6993,13.6993,13.6993,13.6993,13.6993,13.7441,13.774,13.7441,13.7666,13.7815,13.7815,13.7815,13.7815,13.7815,13.7591,13.7441,13.7441,13.7441,13.7516,13.7815,13.7815,13.7815,13.7815,13.7815,13.7815,13.7815,13.8111,13.83,13.83,13.863,13.8829,13.8829,13.8814,13.8858,13.8858,13.8914,13.9102,11.1724,11.5801,11.9746,12.0995,12.1631,12.0885,11.65,11.5644,11.4298,10.9305,10.8047,10.6466,10.245,10.1662,10.3109,10.7581,10.9896,11.2047,11.4775,11.7741,11.8845,11.6582,11.8082,12.127,12.6254,12.755,12.9076,13.1397,12.7792,12.5508,12.5508,12.5508,12.7363,13.143,13.1573,13.1573,13.1573,13.1573,13.1573,13.1573,13.1573,13.1573,13.1573,13.1573,12.9361,12.5722,12.9789,12.929,12.5794,12.9932,13.1573,13.1573,13.1573,13.1573,13.1573,13.1573,13.1573,13.1573,13.1573,13.1573,13.1573,13.1573,13.1573,13.1359,13.0003,13.1997,13.4146,13.1286,13.3034,13.5497,13.4002,13.3628,13.3628,13.3628,13.3628,13.3628,13.3628,13.3628,13.3628,13.3628,13.5871,13.7367,13.6021,13.6918,13.7815,13.7815,13.7815,13.7815,13.7815,13.6619,13.5796,13.5796,13.5796,13.632,13.7666,13.7815,13.7815,13.7815,13.7815,13.7815,13.7815,13.7894,13.7871,13.7871,13.7972,13.7997,13.7947,13.8321,13.8465,13.8465,13.8799,13.8968,10.5608,11.0803,11.6787,11.7444,11.9033,11.9677,11.6566,11.7529,11.7228,11.0764,10.8981,10.6846,10.1459,9.9164,10.0084,10.6134,10.7161,10.8644,11.2702,11.3959,11.454,11.4433,11.5846,11.8943,12.4423,12.6545,12.7112,12.6193,12.7665,12.8505,12.8505,12.8505,12.9484,13.1502,13.1573,13.1573,13.1573,13.1573,13.1573,13.1573,13.1573,13.1573,13.1573,13.1573,13.0432,12.8648,13.0697,13.0483,12.8648,13.0717,13.1573,13.1573,13.1573,13.1573,13.1573,13.1573,13.1573,13.1573,13.1573,13.0432,12.9004,12.9004,12.9004,12.8862,12.8148,12.9854,13.1652,13.0259,13.1922,13.3927,13.3153,13.2929,13.2929,13.2929,13.2929,13.2929,13.2929,13.2929,13.2929,13.2929,13.4151,13.4899,13.4226,13.4675,13.5123,13.5123,13.5871,13.617,13.5198,13.4525,13.4076,13.4076,13.4899,13.5796,13.6469,13.7292,13.7815,13.7815,13.7815,13.7815,13.7815,13.7815,13.7815,13.7815,13.7815,13.7815,13.7815,13.7972,13.8092,13.8116,13.8214,13.8427,10.1071,10.6463,11.2907,11.4354,11.6286,11.765,11.6955,11.8533,11.8661,11.3211,11.1306,10.8965,10.3368,10.0545,10.0873,10.6331,10.645,10.7361,11.1473,11.2238,11.2439,11.2527,11.3499,11.5941,12.063,12.3306,12.361,12.0928,12.5628,12.8979,12.9789,12.9789,13.036,13.1554,13.1573,13.1573,13.1573,13.1573,13.1573,13.1573,13.1573,13.1573,13.1573,13.1573,13.0931,12.9861,13.1126,13.0912,12.9861,13.1074,13.1573,13.1573,13.1573,13.1573,13.1554,13.1145,13.1002,13.0931,13.0503,12.8862,12.6935,12.6935,12.6935,12.6914,12.6712,12.8165,12.971,12.9162,13.0596,13.2207,13.1833,13.1758,13.1758,13.1758,13.1758,13.1758,13.1758,13.1758,13.1833,13.2282,13.1983,13.1983,13.278,13.2929,13.2929,13.2929,13.4002,13.4076,13.1983,13.2057,13.2356,13.2356,13.3478,13.4375,13.4824,13.5946,13.6768,13.7217,13.7217,13.7441,13.7815,13.7815,13.7815,13.7815,13.7815,13.7815,13.7815,13.7815,13.7815,13.7815,13.7815,13.7947,10.1991,10.5148,10.7844,11.3367,11.3768,11.3576,11.6195,11.588,11.5294,11.6261,11.6466,11.509,11.0671,10.9751,10.9751,11.0145,11.0149,11.1601,11.5866,11.6466,11.5551,11.2841,11.2578,11.2904,11.3424,11.759,11.951,11.7617,11.9256,12.1692,12.4816,12.4937,12.7007,13.1483,13.1573,13.1573,13.1573,13.1573,13.1573,13.1573,13.1573,13.1573,13.1573,13.1573,12.9147,12.5151,12.9647,12.9076,12.5294,12.9718,13.1573,13.1573,13.1573,13.1573,13.143,12.9932,12.9361,12.9147,12.772,12.7078,12.6935,12.6935,12.6935,12.6778,12.6169,12.7813,12.9419,12.7296,12.8586,13.0188,12.8767,12.8319,12.8319,12.8319,12.8319,12.8319,12.8319,12.8319,12.8767,13.0263,12.9365,12.9291,13.2431,13.2929,13.2929,13.2929,13.3004,13.1983,12.8767,12.9665,13.0562,13.0562,13.0637,13.131,13.2955,13.3153,13.3927,13.5497,13.5572,13.6245,13.774,13.7815,13.7815,13.7815,13.7815,13.7815,13.7815,13.7815,13.7815,13.7815,13.7815,13.7842,9.5415,9.9361,10.3767,10.5805,10.8107,11.0343,11.225,11.2315,11.2381,11.3762,11.2578,11.0869,10.9356,10.7581,10.6923,10.8764,10.7515,10.8107,11.3302,11.0869,10.9882,11.3499,11.0671,11.03,11.4977,11.5426,11.4722,11.3078,11.8061,12.1696,12.2901,12.2958,12.4252,12.6899,12.7025,12.7474,12.8576,12.8576,12.8576,12.8576,12.8576,12.8576,12.8576,12.8576,12.772,12.6222,12.7863,12.7649,12.6222,12.7934,12.8576,12.8576,12.8576,12.8576,12.8505,12.8006,12.7792,12.7363,12.4723,12.3796,12.3796,12.3796,12.3796,12.3773,12.3539,12.4615,12.5822,12.5671,12.6726,12.799,12.8069,12.8094,12.8094,12.8094,12.8094,12.8094,12.8094,12.8094,12.8244,12.8842,12.8468,12.8468,12.9665,12.9814,12.9814,12.9814,12.9814,12.944,12.8244,12.8543,12.8917,12.8917,12.9814,13.0711,13.131,13.2356,13.3254,13.3852,13.4899,13.5721,13.632,13.7292,13.7815,13.7815,13.7815,13.7815,13.7815,13.7815,13.7815,13.7815,13.7815,13.7815,9.2785,9.5152,9.8638,10.1071,10.3898,10.6726,10.9159,10.9685,10.9948,11.0934,11.0014,10.9027,10.9027,10.7844,10.7515,10.9422,10.8107,10.8173,11.1987,10.9225,10.8304,11.2118,10.9159,10.8113,11.143,11.1506,11.1741,11.2795,11.7626,12.0952,12.1991,12.206,12.2548,12.3554,12.4139,12.5003,12.6125,12.661,12.6935,12.6935,12.6935,12.6935,12.6935,12.6935,12.6935,12.6935,12.6935,12.6935,12.6935,12.6935,12.6935,12.6935,12.6935,12.6935,12.6864,12.6364,12.5794,12.5009,12.2819,12.2035,12.2035,12.2035,12.2035,12.2132,12.2489,12.3105,12.3826,12.4865,12.5588,12.6324,12.7348,12.7612,12.7665,12.8045,12.8094,12.8094,12.8094,12.8094,12.8094,12.8094,12.8094,12.8094,12.8094,12.8094,12.8094,12.8094,12.8094,12.8094,12.8094,12.8094,12.8094,12.8094,12.8991,12.9665,12.9665,13.0711,13.1534,13.2057,13.3179,13.4301,13.5422,13.6469,13.7292,13.7815,13.7815,13.7815,13.7815,13.7815,13.7815,13.7815,13.7815,13.7815,9.4824,9.3245,9.2917,9.9887,10.1662,10.2846,10.7252,10.8238,10.8238,10.8236,10.9422,11.0343,11.0343,11.1395,11.2315,11.2447,11.2381,11.2381,11.2513,11.2513,11.1526,10.8764,10.837,10.6532,10.215,10.5731,11.077,11.6653,11.719,11.8588,12.1669,12.1799,12.1799,12.1861,12.3298,12.4168,12.4224,12.5931,12.6742,12.6793,12.6793,12.6793,12.6793,12.6793,12.6793,12.6793,12.6793,12.6793,12.6793,12.6793,12.6793,12.6793,12.6793,12.6793,12.665,12.508,12.351,12.2035,12.2035,12.2035,12.2035,12.2035,12.2035,12.2276,12.3255,12.3603,12.3785,12.4827,12.5161,12.5342,12.6293,12.6512,12.6723,12.7843,12.8069,12.8069,12.8094,12.8094,12.8094,12.8094,12.8094,12.8094,12.8094,12.8094,12.8094,12.8094,12.8094,12.8094,12.8094,12.8094,12.8094,12.8094,12.8094,12.8094,12.8094,12.8019,12.8692,13.0188,13.0263,13.1758,13.5048,13.5273,13.5946,13.7516,13.7516,13.7516,13.7516,13.7516,13.7516,13.7591,13.7591,13.7591,9.3311,9.5415,9.7651,9.9624,10.1728,10.3964,10.62,10.6726,10.6989,10.8107,10.8633,10.8896,10.8896,10.7515,10.7383,11.0474,10.9225,10.8962,11.2052,11.2513,11.225,11.146,10.9553,10.6992,10.3622,10.7323,10.9628,10.9246,11.2095,11.4293,11.5107,11.5175,11.565,11.6764,11.7274,11.8632,12.1011,12.1514,12.2269,12.339,12.339,12.339,12.339,12.339,12.339,12.339,12.339,12.339,12.339,12.339,12.339,12.339,12.339,12.339,12.3319,12.294,12.2511,12.2035,12.2035,12.2035,12.2035,12.2035,12.2035,12.2132,12.2395,12.2489,12.2697,12.3743,12.4074,12.4317,12.5306,12.5553,12.5759,12.6768,12.6944,12.719,12.792,12.8094,12.8094,12.8094,12.8094,12.8094,12.8094,12.8094,12.8094,12.8094,12.8094,12.8094,12.8094,12.8094,12.8094,12.8094,12.8094,12.8094,12.8094,12.6973,12.6449,12.6898,12.6898,12.7346,12.8244,12.944,13.0337,13.0786,13.0786,13.0786,13.0786,13.0786,13.1384,13.2431,13.2431,13.3104,9.147,9.1799,9.2785,9.4626,9.7322,9.9821,10.1268,10.3438,10.5148,10.4753,10.6134,10.7383,10.7383,10.6529,10.6594,10.9159,10.8107,10.791,11.0408,11.0737,11.0737,11.0737,10.929,10.7646,10.5937,10.8041,10.883,10.712,10.9356,11.0737,11.0737,11.0737,11.1156,11.2106,11.33,11.5288,11.782,11.9126,12.051,12.2035,12.2035,12.2035,12.2035,12.2035,12.2035,12.2035,12.2035,12.2035,12.2035,12.2035,12.2035,12.2035,12.2035,12.2035,12.2035,12.2035,12.2035,12.2035,12.2035,12.2035,12.2035,12.2035,12.2035,12.2035,12.2035,12.2035,12.2228,12.2789,12.3016,12.3211,12.4277,12.4555,12.4752,12.5725,12.6293,12.6693,12.7348,12.7743,12.7945,12.7511,12.7843,12.7945,12.7484,12.7843,12.7843,12.7018,12.6901,12.6604,12.5965,12.5817,12.5594,12.4954,12.488,12.488,12.488,12.4314,12.3746,12.3394,12.3719,12.4252,12.4997,12.5966,12.7019,12.8094,12.8094,12.8094,12.8094,12.8094,12.8543,12.944,12.944,12.9216,8.8886,8.5467,8.3749,8.7995,9.101,9.3187,0.0,9.8901,10.2057,9.9298,10.2057,10.4885,10.4885,10.5937,10.6989,10.7515,10.7513,10.7712,10.817,10.8236,10.8173,10.7776,10.7844,10.7844,10.7844,10.7975,10.8041,10.8041,10.8238,10.8236,10.8236,10.8236,10.8104,10.7844,11.0706,11.2912,11.4257,11.7416,11.9736,12.1269,12.163,12.1869,12.1821,12.2012,12.2035,12.2035,12.2035,12.2035,12.2035,12.2035,12.2035,12.2035,12.2035,12.2035,12.2035,12.2035,12.1963,12.1869,12.1869,12.1727,12.1536,12.1536,12.1536,12.1584,12.1798,12.1584,12.1322,12.1513,12.1298,12.1323,12.2634,12.2895,12.3266,12.4679,12.5622,12.6219,12.6387,12.7133,12.7457,12.6573,12.7133,12.7457,12.6542,12.7161,12.7059,12.4972,12.4648,12.4061,12.2593,12.2409,12.1895,12.0428,12.0316,12.0316,12.0316,12.0939,12.0959,12.013,12.0644,12.1635,12.3146,12.3221,12.4389,12.6799,12.6799,12.6923,12.6973,12.6973,12.7047,12.7272,12.7272,12.5327,0.0,0.0,0.0,0.0,0.0,0.0,0.0,9.3574,9.5027,9.4435,9.6007,9.7388,9.7388,9.7585,9.8901,10.2386,10.2978,10.4227,10.771,10.8236,10.7449,10.5148,10.4819,10.4819,10.4819,10.5871,10.6529,10.6529,10.7646,10.8236,10.8236,10.8236,10.7252,10.4885,10.7654,10.8775,10.8089,11.2149,11.5064,11.6618,11.9082,12.0157,12.0228,12.1513,12.2035,12.2035,12.2035,12.2035,12.2035,12.2035,12.2035,12.2035,12.2035,12.2035,12.2035,12.2035,12.1298,12.0157,12.0157,11.9372,11.8302,11.8302,11.8302,11.8587,11.98,11.8444,11.6686,11.7945,11.6518,11.5208,11.7866,11.8601,11.9564,12.3079,12.4074,12.4403,12.527,12.5661,12.573,12.5448,12.5588,12.573,12.5448,12.5588,12.4704,12.1745,12.1235,12.1161,12.0794,12.0794,12.0648,12.0389,12.0316,12.0316,12.0316,11.9351,11.8649,11.848,11.7333,11.6845,11.7139,11.7139,11.7745,11.8984,11.9011,11.9353,12.0093,12.0093,12.0766,12.2135,12.2135,11.9644,0.0,0.0,0.0,0.0,0.0,0.0,0.0,0.0,0.0,0.0,0.0,9.4232,9.4232,0.0,9.8112,10.0282,10.186,10.3635,10.5871,10.6134,10.5608,10.4161,10.403,10.403,10.403,10.4622,10.5082,10.5082,10.5739,10.6134,10.6134,10.4753,10.3241,10.1794,10.3832,10.5068,10.5307,11.0383,11.372,11.5292,11.7515,11.8587,11.8587,11.9372,11.9729,11.9729,11.9729,11.9729,11.9729,11.9729,12.0228,12.0656,11.8302,11.7445,11.7303,11.6518,11.6232,11.609,11.5376,11.5091,11.5091,11.5091,11.5091,11.5234,11.6018,11.5162,11.4092,11.4877,11.452,11.4306,11.5876,11.6875,11.7942,12.0013,12.0874,12.1392,12.1953,12.2413,12.2632,12.2185,12.2413,12.2596,12.2185,12.0982,11.9819,11.9022,11.8877,11.8587,11.779,11.7718,11.7718,11.7718,11.5584,11.5189,11.7501,11.4859,11.393,11.5944,11.5288,11.445,11.3684,11.3611,11.3701,11.3791,11.3821,11.4245,11.5085,11.5085,11.5777,11.7027,11.6574,11.5255,0.0,0.0,0.0,0.0,0.0,0.0,0.0,0.0,0.0,0.0,0.0,0.0,0.0,0.0,0.0,9.8115,10.0808,10.3043,10.3898,10.3241,10.2715,10.2715,10.3175,10.3569,10.3569,10.3832,10.403,10.403,10.403,10.403,10.403,10.1728,10.015,9.9495,10.1202,10.2492,10.3224,10.8883,11.2261,11.3524,11.5537,0.0,11.6072,11.6664,11.6661,11.609,11.6375,11.6375,11.609,11.6375,11.7231,11.7945,11.3878,11.2451,11.2594,11.1309,11.1452,11.2094,11.0881,11.1024,11.1809,11.1809,11.1809,11.188,11.2165,11.188,0.0,11.1737,11.2308,11.2977,11.3547,11.4663,11.5733,11.6375,11.7141,11.7793,11.7793,11.8114,11.8278,11.7813,11.808,11.8386,11.8207,11.5474,11.3547,11.4591,11.4734,11.4235,11.2977,11.3333,11.369,11.369,11.0881,11.0382,11.3833,11.0453,10.9452,11.2687,11.2623,11.1828,11.0239,11.0167,10.9755,10.8746,10.8746,10.9448,11.0839,11.0839,11.1631,11.296,10.9625,10.8932,0.0,0.0,0.0,0.0,0.0,0.0,0.0,0.0,0.0,0.0,0.0,0.0,0.0,0.0,0.0,0.0,9.627,9.9492,10.3438,10.061,9.8112,9.8112,10.0347,10.1925,10.1925,10.3175,10.403,10.403,10.403,10.403,10.403,10.3701,0.0,0.0,0.0,10.2516,10.0068,10.4588,10.7039,10.7217,11.1394,11.2705,11.1439,11.4154,11.3878,11.1309,11.2665,11.2522,11.1309,11.2736,11.3378,11.3307,11.1452,11.1523,11.2736,11.2522,11.1737,11.0667,11.0453,0.0,0.0,10.8641,10.8641,10.8812,11.0239,10.8741,10.6814,10.817,10.6743,10.5387,10.817,10.8955,10.9811,11.2594,11.337,11.3459,11.3459,11.2402,11.1916,11.3173,11.2402,11.2374,11.5103,11.0683,10.6386,10.5173,10.503,10.4959,10.4703,10.7171,10.8883,10.8883,11.0881,0.0,11.1024,10.9169,10.8255,10.874,10.7453,10.6024,10.441,10.4338,10.339,10.1363,10.129,10.3135,10.683,10.683,10.8654,11.1849,9.9653,9.6342,0.0,0.0,0.0,0.0,0.0,0.0,0.0,0.0,0.0,0.0,0.0,0.0,0.0,0.0,0.0,0.0,9.2456,9.5547,9.7454,9.6073,9.5218,9.6007,9.7191,9.7914,9.7914,9.9295,10.0479,10.1334,10.2189,10.2649,10.2649,10.1071,9.9164,9.7125,9.8243,9.8309,9.7059,10.1468,10.3637,10.3705,10.6445,10.7397,10.6823,10.8957,10.9174,10.8018,10.9404,10.9668,10.9097,10.9739,11.0524,11.1095,0.0,0.0,0.0,0.0,10.6957,10.6243,10.5316,10.5173,10.5387,10.5387,10.5387,10.553,10.6172,10.5458,10.4531,10.5173,10.5102,10.5102,10.6386,10.7385,10.8427,10.9739,11.0025,11.0025,11.0025,10.9525,10.924,10.9882,10.9454,0.0,10.7171,10.4745,10.3104,10.3348,10.4174,10.4816,10.4816,10.6671,10.8384,10.9311,10.817,10.817,11.0239,10.7313,0.0,0.0,0.0,10.6814,10.6172,10.5244,0.0,0.0,0.0,9.9004,10.1173,9.8463,0.0,0.0,9.4551,9.1911,0.0,0.0,0.0,0.0,0.0,0.0,0.0,0.0,0.0,0.0,0.0,0.0,0.0,0.0,0.0,0.0,8.8708,9.0246,8.9116,9.032,9.193,9.3311,9.4166,9.4824,9.5218,9.6205,9.7257,9.8309,9.9295,9.9887,9.9887,9.7914,9.6468,9.5876,9.581,9.6007,9.6402,9.959,10.1244,10.1244,10.2709,10.3213,10.2802,10.427,10.4445,10.3724,10.5426,10.5957,10.5602,10.6472,10.7456,10.8127,10.4337,10.2859,10.2859,10.3265,10.3175,10.2533,10.0963,10.1177,10.2176,10.2176,10.2176,10.2176,10.2176,10.2176,10.2176,10.2176,10.2961,10.3889,10.4317,10.5316,10.6243,10.6671,10.6457,10.6143,10.6143,10.55,10.5,10.5387,10.553,10.4245,10.0464,10.0107,10.0678,10.1391,10.2818,10.3817,10.3817,10.5601,10.7242,10.8384,10.6243,10.5886,10.8883,10.5559,10.4388,10.6671,10.6386,10.6143,10.6143,10.4245,10.239,10.082,9.6611,9.5377,0.0,0.0,0.0,0.0,0.0,0.0,0.0,0.0,0.0,0.0,0.0,0.0,0.0,0.0,0.0,0.0,0.0,0.0,0.0,0.0,0.0,0.0,0.0,0.0,7.9021,8.3354,8.7393,8.8905,9.147,9.3771,9.5152,9.5284,9.535,9.5415,9.5415,9.5481,9.5481,9.535,9.5941,9.7257,9.7322,9.798,9.9427,9.9492,9.9621,9.9621,10.1185,10.1132,9.9726,10.1188,10.0162,9.7426,10.0229,10.0642,9.9468,10.2362,10.3562,10.3479,10.1936,10.1344,10.1481,10.2901,10.2462,10.0892,9.9393,9.8823,9.8894,9.8894,9.8894,9.8894,9.8894,9.8894,9.8894,9.8894,9.8894,9.9322,10.082,10.1249,10.1677,10.3246,10.239,10.1249,10.1249,9.8933,9.722,9.8751,9.9037,9.8537,9.6863,9.7824,9.8323,9.6863,9.7966,0.0,9.8965,10.1677,10.3562,10.3633,10.6172,10.7385,10.6029,10.4388,10.3419,10.3603,10.2105,10.1249,10.1249,9.8362,9.5897,9.4256,9.1045,9.1724,9.6402,0.0,0.0,0.0,0.0,0.0,0.0,0.0,0.0,0.0,0.0,0.0,0.0,0.0,0.0,0.0,0.0,0.0,0.0,0.0,0.0,0.0,0.0,0.0,0.0,8.0472,8.359,8.6954,8.6482,8.6898,8.9375,8.8632,8.8849,9.0887,9.2785,9.3837,9.3837,9.3837,9.364,9.3114,9.3114,9.3377,9.3837,9.3837,9.3837,9.3837,9.5349,9.5781,9.5317,9.7648,9.81,9.7218,9.9197,9.9721,9.9236,10.0294,9.9555,9.7832,9.7348,9.716,9.7301,9.8617,9.8723,9.8285,9.8656,9.8751,9.8751,9.8751,9.8751,9.8751,9.8751,9.8751,9.8751,9.8751,9.8751,9.8894,9.9393,9.9536,9.9679,10.025,9.9893,9.9536,9.9536,9.868,9.8109,9.868,9.6183,9.3602,9.2384,9.4942,9.6111,9.2794,9.6054,9.8546,9.7741,9.9391,10.0693,10.0693,10.1648,10.2066,10.1578,10.0113,9.9276,9.9276,9.7902,9.7109,9.7109,9.6788,9.6393,9.5786,9.5621,9.3757,9.0118,0.0,0.0,0.0,0.0,0.0,0.0,0.0,0.0,0.0,0.0,0.0,0.0,0.0,0.0,0.0,0.0,0.0,0.0,0.0,0.0,0.0,0.0,0.0,0.0,0.0,0.0,8.5312,8.3694,0.0,8.5635,8.3932,8.3275,8.4771,8.6632,8.8096,8.9147,8.927,8.9509,9.0221,9.0221,9.0418,9.0944,9.0944,9.0944,9.0944,9.193,9.2391,9.2391,9.4218,9.5002,9.5058,9.6441,9.7064,9.7013,9.6546,9.5251,9.3589,9.3529,9.352,9.3598,9.4313,9.4506,9.4664,9.5465,9.5745,9.5703,9.5703,9.5392,9.4869,9.4304,9.4163,9.4244,9.4675,9.518,9.5827,9.6748,9.7467,9.8038,9.8609,9.8323,9.7895,9.7895,9.6967,9.5925,9.4974,9.1844,8.906,8.798,9.0558,9.1642,8.8485,9.2555,9.5655,9.4815,9.6579,9.7819,9.7819,9.7819,9.7819,9.7819,9.6924,9.6421,9.6421,9.5574,9.4815,9.4263,9.5369,9.5486,9.4487,9.5052,9.2643,0.0,0.0,0.0,0.0,0.0,0.0,0.0,0.0,0.0,0.0,0.0,0.0,0.0,0.0,0.0,0.0,0.0,0.0,0.0,0.0,0.0,0.0,0.0,0.0,0.0,0.0,0.0,8.3433,8.2509,0.0,0.0,0.0,0.0,7.7545,7.7608,7.8876,8.1771,8.1956,8.3931,8.8212,8.8465,8.9178,9.0615,9.0681,9.0747,9.0747,9.0812,9.0812,9.0878,9.0944,9.0944,9.1058,9.2304,9.2825,9.2719,9.1236,9.0615,9.0654,9.047,9.037,9.0371,9.0285,9.015,8.999,9.0081,8.9966,8.9898,8.9967,8.9026,8.7555,8.629,8.5851,0.0,0.0,8.8431,9.0145,9.2739,9.4609,9.6287,9.7817,9.711,9.6078,9.6078,9.3543,9.061,8.8066,8.6286,8.4853,8.3646,0.0,8.547,8.3908,8.7594,9.0471,9.0425,9.295,9.483,9.483,9.483,9.483,9.483,9.4761,9.4692,9.4692,9.4672,9.4004,9.2465,9.3543,9.2821,8.999,8.934,0.0,0.0,0.0,0.0,0.0,0.0,0.0,0.0,0.0,0.0,0.0,0.0,0.0,0.0,0.0,0.0,0.0,0.0,0.0,0.0,0.0,0.0,0.0,0.0,0.0,0.0,7.1745,7.4373,7.7628,7.575,7.4853,0.0,0.0,0.0,0.0,0.0,0.0,7.7428,7.8378,7.9953,8.226,8.3349,8.463,8.6023,8.7196,8.7777,8.7843,8.884,8.9366,8.9431,9.0484,9.0944,9.1001,9.1333,9.1501,9.118,8.7558,8.6078,8.6012,8.6046,8.5344,8.449,8.546,8.5121,8.4308,8.5109,8.5411,8.5575,8.6635,8.6058,8.4997,8.5713,0.0,0.0,0.0,0.0,8.4194,8.5899,8.7308,8.8695,9.0139,9.0779,9.1045,9.1045,8.9475,8.7762,8.6611,8.5127,8.2996,7.9678,8.2137,0.0,8.0003,8.5007,8.8782,8.7853,9.0178,9.2044,9.2044,9.2044,9.2044,9.2044,9.1045,9.0445,9.0445,8.9431,8.8698,8.8245,8.939,8.8639,8.5773,0.0,0.0,0.0,0.0,0.0,0.0,0.0,0.0,0.0,0.0,0.0,0.0,0.0,0.0,0.0,0.0,0.0,0.0,0.0,0.0,0.0,0.0,0.0,0.0,0.0,0.0,0.0,6.8445,7.0812,7.3674,7.1947,7.0885,0.0,0.0,0.0,0.0,0.0,0.0,0.0,0.0,0.0,7.7288,7.874,7.9778,8.062,8.335,8.4732,8.4797,8.6854,8.7853,8.7919,8.8708,8.9159,8.9093,8.8379,8.6995,8.5058,8.2648,8.123,8.0601,0.0,0.0,0.0,0.0,7.9455,7.9415,8.006,8.0735,8.1344,8.2179,0.0,0.0,0.0,0.0,0.0,0.0,0.0,8.1076,8.243,8.4252,8.591,8.6706,8.6869,8.7158,8.8417,8.4938,8.1508,8.1271,8.0002,7.8053,7.538,7.6936,0.0,0.0,0.0,8.368,8.2946,8.6527,8.9159,8.9159,8.9159,8.9159,8.9159,8.8314,8.7853,8.7853,8.7185,8.6132,8.4816,8.772,8.6569,0.0,0.0,0.0,0.0,0.0,0.0,0.0,0.0,0.0,0.0,0.0,0.0,0.0,0.0,0.0,0.0,0.0,0.0,0.0,0.0,0.0,0.0,0.0,0.0,0.0,0.0,0.0,0.0,0.0,6.7698,7.0038,0.0,0.0,0.0,0.0,0.0,0.0,0.0,0.0,0.0,0.0,0.0,0.0,0.0,7.5184,7.5542,7.9241,8.1082,8.1138,8.3785,8.4987,8.4987,8.4987,8.5096,8.5204,8.3809,0.0,7.77,7.7562,0.0,0.0,0.0,0.0,0.0,0.0,0.0,0.0,0.0,0.0,0.0,0.0,0.0,0.0,0.0,0.0,0.0,0.0,0.0,0.0,0.0,0.0,8.4258,8.4464,8.3671,8.3506,8.5894,8.0185,7.4593,7.4938,7.3943,7.2621,0.0,0.0,0.0,0.0,0.0,0.0,7.7973,8.3039,8.6724,8.6724,8.6724,8.6724,8.6724,8.6724,8.6724,8.6724,8.6329,8.4948,8.233,8.6897,0.0,0.0,0.0,0.0,0.0,0.0,0.0,0.0,0.0,0.0,0.0,0.0,0.0,0.0,0.0,0.0,0.0,0.0,0.0,0.0,0.0,0.0,0.0,0.0,0.0,0.0,0.0,0.0,0.0,0.0,0.0,0.0,0.0,0.0,0.0,0.0,0.0,0.0,0.0,0.0,0.0,0.0,0.0,0.0,0.0,0.0,0.0,0.0,0.0,0.0,7.5888,7.6125,7.6125,7.6125,7.6727,7.7881,7.7351,7.6805,7.6126,7.494,0.0,0.0,0.0,0.0,0.0,0.0,0.0,0.0,0.0,0.0,0.0,0.0,0.0,0.0,0.0,0.0,0.0,0.0,0.0,0.0,0.0,0.0,7.5629,7.6849,7.7624,7.8129,7.7966,0.0,0.0,0.0,0.0,0.0,0.0,0.0,0.0,0.0,0.0,0.0,7.7973,8.3039,8.6724,8.6724,8.6724,8.6724,8.6724,8.6724,8.6724,8.6724,8.4421,8.2724,0.0,0.0,0.0,0.0,0.0,0.0,0.0,0.0,0.0,0.0,0.0,0.0,0.0,0.0,0.0,0.0,0.0,0.0,0.0,0.0,0.0,0.0,0.0,0.0,0.0,0.0,0.0,0.0,0.0,0.0,0.0,0.0,0.0,0.0,0.0,0.0,0.0,0.0,0.0,0.0,0.0,0.0,0.0,0.0,0.0,0.0,0.0,0.0,0.0,0.0,0.0,0.0,0.0,0.0,0.0,0.0,0.0,0.0,7.2302,7.0281,0.0,0.0,0.0,0.0,0.0,0.0,0.0,0.0,0.0,0.0,0.0,0.0,0.0,0.0,0.0,0.0,0.0,0.0,0.0,0.0,0.0,0.0,0.0,0.0,0.0,0.0,0.0,0.0,0.0,0.0,0.0,0.0,0.0,0.0,0.0,0.0,0.0,0.0,0.0,0.0,7.7924,8.3053,8.6724,8.6724,8.6724,8.6724,8.6724,8.6724,8.6066,8.4487,8.1794,0.0,0.0,0.0,0.0,0.0,0.0,0.0,0.0,0.0,0.0,0.0,0.0,0.0,0.0,0.0,0.0,0.0,0.0,0.0,0.0,0.0,0.0,0.0,0.0,0.0,0.0,0.0,0.0,0.0,0.0,0.0,0.0,0.0,0.0,0.0,0.0,0.0,0.0,0.0,0.0,0.0,0.0,0.0,0.0,0.0,0.0,0.0,0.0,0.0,0.0,0.0,0.0,0.0,0.0,0.0,0.0,0.0,0.0,0.0,6.8234,6.5156,0.0,0.0,0.0,0.0,0.0,0.0,0.0,0.0,0.0,0.0,0.0,0.0,0.0,0.0,0.0,0.0,0.0,0.0,0.0,0.0,0.0,0.0,0.0,0.0,0.0,0.0,0.0,0.0,0.0,0.0,0.0,0.0,0.0,0.0,0.0,0.0,0.0,0.0,0.0,0.0,7.696,8.2019,8.5653,8.5653,8.5653,8.5765,8.6164,8.6164,8.4845,8.1624,7.8949,0.0,0.0,0.0,0.0,0.0,0.0,0.0,0.0,0.0,0.0,0.0,0.0,0.0,0.0,0.0,0.0,0.0,0.0,0.0,0.0,0.0,0.0,0.0,0.0,0.0,0.0,0.0,0.0,0.0,0.0,0.0,0.0,0.0,0.0,0.0,0.0,0.0,0.0,0.0,0.0,0.0,0.0,0.0,0.0,0.0,0.0,0.0,0.0,0.0,0.0,0.0,0.0,0.0,0.0,0.0,0.0,0.0,0.0,0.0,0.0,0.0,0.0,0.0,0.0,0.0,0.0,0.0,0.0,0.0,0.0,0.0,0.0,0.0,0.0,0.0,0.0,0.0,0.0,0.0,0.0,0.0,0.0,0.0,0.0,0.0,0.0,0.0,0.0,0.0,0.0,0.0,0.0,0.0,0.0,0.0,0.0,0.0,0.0,0.0,0.0,0.0,7.391,7.8663,8.2164,8.2164,8.2164,8.2714,8.4207,8.4446,8.2761,7.8967,0.0,0.0,0.0,0.0,0.0,0.0,0.0,0.0,0.0,0.0,0.0,0.0,0.0,0.0,0.0,0.0,0.0,0.0,0.0,0.0,0.0,0.0,0.0,0.0,0.0,0.0,0.0,0.0,0.0,0.0,0.0,0.0,0.0,0.0,0.0,0.0,0.0,0.0,0.0,0.0,0.0,0.0,0.0,0.0,0.0,0.0,0.0,0.0,0.0,0.0,0.0,0.0,0.0,0.0,0.0,0.0,0.0,0.0,0.0,0.0,0.0,0.0,0.0,0.0,0.0,0.0,0.0,0.0,0.0,0.0,0.0,0.0,0.0,0.0,0.0,0.0,0.0,0.0,0.0,0.0,0.0,0.0,0.0,0.0,0.0,0.0,0.0,0.0,0.0,0.0,0.0,0.0,0.0,0.0,0.0,0.0,0.0,0.0,0.0,0.0,0.0,0.0,7.2268,7.7808,8.1605,8.1605,8.1605,8.1916,8.2592,8.1958,7.937,7.4544,0.0,0.0,0.0,0.0,0.0,0.0,0.0,0.0,0.0,0.0,0.0,0.0,0.0,0.0,0.0,0.0,0.0,0.0,0.0,0.0,0.0,0.0,0.0,0.0,0.0,0.0,0.0,0.0,0.0,0.0,0.0,0.0,0.0,0.0,0.0,0.0,0.0,0.0,0.0,0.0,0.0,0.0,0.0,0.0,0.0,0.0,0.0,0.0,0.0,0.0,0.0,0.0,0.0,0.0,0.0,0.0,0.0,0.0,0.0,0.0,0.0,0.0,0.0,0.0,0.0,0.0,0.0,0.0,0.0,0.0,0.0,0.0,0.0,0.0,0.0,0.0,0.0,0.0,0.0,0.0,0.0,0.0,0.0,0.0,0.0,0.0,0.0,0.0,0.0,0.0,0.0,0.0,0.0,0.0,0.0,0.0,0.0,0.0,0.0,0.0,0.0,0.0,7.0241,7.5992,8.0143,8.0143,7.9841,7.9788,8.0296,7.9187,7.5914,7.0155,0.0,0.0,0.0,0.0,0.0,0.0,0.0,0.0,0.0,0.0,0.0,0.0,0.0,0.0,0.0,0.0,0.0,0.0,0.0,0.0,0.0,0.0,0.0,0.0,0.0,0.0,0.0,0.0,0.0,0.0,0.0,0.0,0.0,0.0,0.0,0.0,0.0,0.0,0.0,0.0,0.0,0.0,0.0,0.0,0.0,0.0,0.0,0.0,0.0,0.0,0.0,0.0,0.0,0.0,0.0,0.0,0.0,0.0,0.0,0.0,0.0,0.0,0.0,0.0,0.0,0.0,0.0,0.0,0.0,0.0,0.0,0.0,0.0,0.0,0.0,0.0,0.0,0.0,0.0,0.0,0.0,0.0,0.0,0.0,0.0,0.0,0.0,0.0,0.0,0.0,0.0,0.0,0.0,0.0,0.0,0.0,0.0,0.0,0.0,0.0,0.0,0.0,6.7131,7.2717,7.6606,7.6606,7.5511,7.5382,7.7043,7.603,7.259,0.0,0.0,0.0,0.0,0.0,0.0,0.0,0.0,0.0,0.0,0.0,0.0,0.0,0.0,0.0,0.0,0.0,0.0,0.0,0.0,0.0,0.0,0.0,0.0,0.0,0.0,0.0,0.0,0.0,0.0,0.0,0.0,0.0,0.0,0.0,0.0,0.0,0.0,0.0,0.0,0.0,0.0,0.0,0.0,0.0,0.0,0.0,0.0,0.0,0.0,0.0,0.0,0.0,0.0,0.0,0.0,0.0,0.0,0.0,0.0,0.0,0.0,0.0,0.0,0.0,0.0,0.0,0.0,0.0,0.0,0.0,0.0,0.0,0.0,0.0,0.0,0.0,0.0,0.0,0.0,0.0,0.0,0.0,0.0,0.0,0.0,0.0,0.0,0.0,0.0,0.0,0.0,0.0,0.0,0.0,0.0,0.0,0.0,0.0,0.0,0.0,0.0,0.0,6.4391,6.9975,7.393,7.393,7.3581,7.3491,7.4089,7.2978,6.9921,6.4323,0.0,0.0,0.0,0.0,0.0,0.0,0.0,0.0,0.0,0.0,0.0,0.0,0.0,0.0,0.0,0.0,0.0,0.0,0.0,0.0,0.0,0.0,0.0,0.0,0.0,0.0,0.0,0.0,0.0,0.0,0.0,0.0,0.0,0.0,0.0,0.0,0.0,0.0,0.0,0.0,0.0,0.0,0.0,0.0,0.0,0.0,0.0,0.0,0.0,0.0,0.0,0.0,0.0,0.0,0.0,0.0,0.0,0.0,0.0,0.0,0.0,0.0,0.0,0.0,0.0,0.0,0.0,0.0,0.0,0.0,0.0,0.0,0.0,0.0,0.0,0.0,0.0,0.0,0.0,0.0,0.0,0.0,0.0,0.0,0.0,0.0,0.0,0.0,0.0,0.0,0.0,0.0,0.0,0.0,0.0,0.0,0.0,0.0,0.0,0.0,0.0,0.0,0.0,6.7939,7.1661,7.265,7.2301,7.2069,7.2069,7.0905,6.7997,6.2763,0.0,0.0,0.0,0.0,0.0,0.0,0.0,0.0,0.0,0.0,0.0,0.0,0.0,0.0,0.0,0.0,0.0,0.0,0.0,0.0,0.0,0.0,0.0,0.0,0.0,0.0,0.0,0.0,0.0,0.0,0.0,0.0,0.0,0.0,0.0,0.0,0.0,0.0,0.0,0.0,0.0,0.0,0.0,0.0,0.0,0.0,0.0,0.0,0.0,0.0,0.0,0.0,0.0,0.0,0.0,0.0,0.0,0.0,0.0,0.0,0.0,0.0,0.0,0.0,0.0,0.0,0.0,0.0,0.0,0.0,0.0,0.0,0.0,0.0,0.0,0.0,0.0,0.0,0.0,0.0,0.0,0.0,0.0,0.0,0.0,0.0,0.0,0.0,0.0,0.0,0.0,0.0,0.0,0.0,0.0,0.0,0.0,0.0,0.0,0.0,0.0,0.0,0.0,6.6543,6.9852,7.1986,7.1232,7.0601,7.0601,6.9492,6.6592,6.1542,6.1252,0.0,0.0,0.0,0.0,0.0,0.0,0.0,0.0,0.0,0.0,0.0,0.0,0.0,0.0,0.0,0.0,0.0,0.0,0.0,0.0,0.0,0.0,0.0,0.0,0.0,0.0,0.0,0.0,0.0,0.0,0.0,0.0,0.0,0.0,0.0,0.0,0.0,0.0,0.0,0.0,0.0,0.0,0.0,0.0,0.0,0.0,0.0,0.0,0.0,0.0,0.0,0.0,0.0,0.0,0.0,0.0,0.0,0.0,0.0,0.0,0.0,0.0,0.0,0.0,0.0,0.0,0.0,0.0,0.0,0.0,0.0,0.0,0.0,0.0,0.0,0.0,0.0,0.0,0.0,0.0,0.0,0.0,0.0,0.0,0.0,0.0,0.0,0.0,0.0,0.0,0.0,0.0,0.0,0.0,0.0,0.0,0.0,0.0,0.0,0.0,0.0,0.0,6.6019,6.8651,6.7686,6.7385,6.7215,6.7215,6.6933,6.5235,6.1429,6.1252,0.0,0.0,0.0,0.0,0.0,0.0,0.0,0.0,0.0,0.0,0.0,0.0,0.0,0.0,0.0,0.0,0.0,0.0,0.0,0.0,0.0,0.0,0.0,0.0,0.0,0.0,0.0,0.0,0.0,0.0,0.0,0.0,0.0,0.0,0.0,0.0,0.0,0.0,0.0,0.0,0.0,0.0,0.0,0.0,0.0,0.0,0.0,0.0,0.0,0.0,0.0,0.0,0.0,0.0,0.0,0.0,0.0,0.0,0.0,0.0,0.0,0.0,0.0,0.0,0.0,0.0,0.0,0.0,0.0,0.0,0.0,0.0,0.0,0.0,0.0,0.0,0.0,0.0,0.0,0.0,0.0,0.0,0.0,0.0,0.0,0.0,0.0,0.0,0.0,0.0,0.0,0.0,0.0,0.0,0.0,0.0,0.0,0.0,0.0,0.0,0.0,0.0,6.1838,6.5638,6.6023,6.5384,6.5182,6.5983,6.6049,6.4427,6.0515,6.0277,0.0,0.0,0.0,0.0,0.0,0.0,0.0,0.0,0.0,0.0,0.0,0.0,0.0,0.0,0.0,0.0,0.0,0.0,0.0,0.0,0.0,0.0,0.0,0.0,0.0,0.0,0.0,0.0,0.0,0.0,0.0,0.0,0.0,0.0,0.0,0.0,0.0,0.0,0.0,0.0,0.0,0.0,0.0,0.0,0.0,0.0,0.0,0.0,0.0,0.0,0.0,0.0,0.0,0.0,0.0,0.0,0.0,0.0,0.0,0.0,0.0,0.0,0.0,0.0,0.0,0.0,0.0,0.0,0.0,0.0,0.0,0.0,0.0,0.0,0.0,0.0,0.0,0.0,0.0,0.0,0.0,0.0,0.0,0.0,0.0,0.0,0.0,0.0,0.0,0.0,0.0,0.0,0.0,0.0,0.0,0.0,0.0,0.0,0.0,0.0,0.0,0.0,0.0,6.1836,6.4856,6.3826,6.3701,6.5517,6.5651,6.3804,5.942,0.0,0.0,0.0,0.0,0.0,0.0,0.0,0.0,0.0,0.0,0.0,0.0,0.0,0.0,0.0,0.0,0.0,0.0,0.0,0.0,0.0,0.0,0.0,0.0,0.0,0.0,0.0,0.0,0.0,0.0,0.0,0.0,0.0,0.0,0.0,0.0,0.0,0.0,0.0,0.0,0.0,0.0,0.0,0.0,0.0,0.0,0.0,0.0,0.0,0.0,0.0,0.0,0.0,0.0,0.0,0.0,0.0,0.0,0.0,0.0,0.0,0.0,0.0,0.0,0.0,0.0,0.0,0.0,0.0,0.0,0.0,0.0,0.0,0.0,0.0,0.0,0.0,0.0,0.0,0.0,0.0,0.0,0.0,0.0,0.0,0.0,0.0,0.0,0.0,0.0,0.0,0.0,0.0,0.0,0.0,0.0,0.0,0.0,0.0,0.0,0.0,0.0,0.0,0.0,5.8914,6.0956,6.108,6.187,6.3632,6.3769,6.2514,5.9473,0.0,0.0,0.0,0.0,0.0,0.0,0.0,0.0,0.0,0.0,0.0,0.0,0.0,0.0]}]]]